[[{"header":{"parameterUnit":"m.s-1","parameterCategory":1,"la1":30.6,"la2":28.766,"lo1":-90.7593,"lo2":-88.6598,"dx":0.0162,"dy":0.0183,"nx":116,"ny":114,"refTime":"2022-12-24T06:00:00:Z","depth":0,"parameterNumber":2,"parameterNumberName":"U-component_of_WINDS"},"data":[0.0,0.0,0.0,0.0,0.0,0.0,0.0,0.0,0.0,0.0,0.0,0.0,0.0,0.0,0.0,0.0,0.0,0.0,0.0,0.0,0.0,0.0,0.0,0.0,0.0,0.0,0.0,0.0,0.0,0.0,0.0,0.0,0.0,0.0,0.0,0.0,0.0,0.0,0.0,0.0,0.0,0.0,0.0,0.0,0.0,0.0,0.0,0.0,0.0,0.0,0.0,0.0,0.0,0.0,0.0,0.0,0.0,0.0,0.0,0.0,0.0,0.0,0.0,0.0,0.0,0.0,0.0,0.0,0.0,0.0,0.0,0.0,0.0,0.0,0.0,0.0,0.0,0.0,0.0,0.0,0.0,0.0,0.0,0.0,0.0,0.0,0.0,0.0,0.0,0.0,0.0,0.0,0.0,0.0,0.0,0.0,0.0,0.0,0.0,0.0,0.0,0.0,0.0,0.0,0.0,0.0,0.0,0.0,0.0,0.0,0.0,0.0,0.0,0.0,0.0,0.0,0.0,0.0,0.0,0.0,0.0,0.0,0.0,0.0,0.0,0.0,0.0,0.0,0.0,0.0,0.0,0.0,0.0,0.0,0.0,0.0,0.0,0.0,0.0,0.0,0.0,0.0,0.0,0.0,0.0,0.0,0.0,0.0,0.0,0.0,0.0,0.0,0.0,0.0,0.0,0.0,0.0,0.0,0.0,0.0,0.0,0.0,0.0,0.0,0.0,0.0,0.0,0.0,0.0,0.0,0.0,0.0,0.0,0.0,0.0,0.0,0.0,0.0,0.0,0.0,0.0,0.0,0.0,0.0,0.0,0.0,0.0,0.0,0.0,0.0,0.0,0.0,0.0,0.0,0.0,0.0,0.0,0.0,0.0,0.0,0.0,0.0,0.0,0.0,0.0,0.0,0.0,0.0,0.0,0.0,0.0,0.0,0.0,0.0,0.0,0.0,0.0,0.0,0.0,0.0,0.0,0.0,0.0,0.0,0.0,0.0,0.0,0.0,0.0,0.0,0.0,0.0,0.0,0.0,0.0,0.0,0.0,0.0,0.0,0.0,0.0,0.0,0.0,0.0,0.0,0.0,0.0,0.0,0.0,0.0,0.0,0.0,0.0,0.0,0.0,0.0,0.0,0.0,0.0,0.0,0.0,0.0,0.0,0.0,0.0,0.0,0.0,0.0,0.0,0.0,0.0,0.0,0.0,0.0,0.0,0.0,0.0,0.0,0.0,0.0,0.0,0.0,0.0,0.0,0.0,0.0,0.0,0.0,0.0,0.0,0.0,0.0,0.0,0.0,0.0,0.0,0.0,0.0,0.0,0.0,0.0,0.0,0.0,0.0,0.0,0.0,0.0,0.0,0.0,0.0,0.0,0.0,0.0,0.0,0.0,0.0,0.0,0.0,0.0,0.0,0.0,0.0,0.0,0.0,0.0,0.0,0.0,0.0,0.0,0.0,0.0,0.0,0.0,0.0,0.0,0.0,0.0,0.0,0.0,0.0,0.0,0.0,0.0,0.0,0.0,0.0,0.0,0.0,0.0,0.0,0.0,0.0,0.0,0.0,0.0,0.0,0.0,0.0,0.0,0.0,0.0,0.0,0.0,0.0,0.0,0.0,0.0,0.0,0.0,0.0,0.0,0.0,0.0,0.0,0.0,0.0,0.0,0.0,0.0,0.0,0.0,0.0,0.0,0.0,0.0,0.0,0.0,0.0,0.0,0.0,0.0,0.0,0.0,0.0,0.0,0.0,0.0,0.0,0.0,0.0,0.0,0.0,0.0,0.0,0.0,0.0,0.0,0.0,0.0,0.0,0.0,0.0,0.0,0.0,0.0,0.0,0.0,0.0,0.0,0.0,0.0,0.0,0.0,0.0,0.0,0.0,0.0,0.0,0.0,0.0,0.0,0.0,0.0,0.0,0.0,0.0,0.0,0.0,0.0,0.0,0.0,0.0,0.0,0.0,0.0,0.0,0.0,0.0,0.0,0.0,0.0,0.0,0.0,0.0,0.0,0.0,0.0,0.0,0.0,0.0,0.0,0.0,0.0,0.0,0.0,0.0,0.0,0.0,0.0,0.0,0.0,0.0,0.0,0.0,0.0,0.0,0.0,0.0,0.0,0.0,0.0,0.0,0.0,0.0,0.0,0.0,0.0,0.0,0.0,0.0,0.0,0.0,0.0,0.0,0.0,0.0,0.0,0.0,0.0,0.0,0.0,0.0,0.0,0.0,0.0,0.0,0.0,0.0,0.0,0.0,0.0,0.0,0.0,0.0,0.0,0.0,0.0,0.0,0.0,0.0,0.0,0.0,0.0,0.0,0.0,0.0,0.0,0.0,0.0,0.0,0.0,0.0,0.0,0.0,0.0,0.0,0.0,0.0,0.0,0.0,0.0,0.0,0.0,0.0,0.0,0.0,0.0,0.0,0.0,0.0,0.0,0.0,0.0,0.0,0.0,0.0,0.0,0.0,0.0,0.0,0.0,0.0,0.0,0.0,0.0,0.0,0.0,0.0,0.0,0.0,0.0,0.0,0.0,0.0,0.0,0.0,0.0,0.0,0.0,0.0,0.0,0.0,0.0,0.0,0.0,0.0,0.0,0.0,0.0,0.0,0.0,0.0,0.0,0.0,0.0,0.0,0.0,0.0,0.0,0.0,0.0,0.0,0.0,0.0,0.0,0.0,0.0,0.0,0.0,0.0,0.0,0.0,0.0,0.0,0.0,0.0,0.0,0.0,0.0,0.0,0.0,0.0,0.0,0.0,0.0,0.0,0.0,0.0,0.0,0.0,0.0,0.0,0.0,0.0,0.0,0.0,0.0,0.0,0.0,0.0,0.0,0.0,0.0,0.0,0.0,0.0,0.0,0.0,0.0,0.0,0.0,0.0,0.0,0.0,0.0,0.0,0.0,0.0,0.0,0.0,0.0,0.0,0.0,0.0,0.0,0.0,0.0,0.0,0.0,0.0,0.0,0.0,0.0,0.0,0.0,0.0,0.0,0.0,0.0,0.0,0.0,0.0,0.0,0.0,0.0,0.0,0.0,0.0,0.0,0.0,0.0,0.0,0.0,0.0,0.0,0.0,0.0,0.0,0.0,0.0,0.0,0.0,0.0,0.0,0.0,0.0,0.0,0.0,0.0,0.0,0.0,0.0,0.0,0.0,0.0,0.0,0.0,0.0,0.0,0.0,0.0,0.0,0.0,0.0,0.0,0.0,0.0,0.0,0.0,0.0,0.0,0.0,0.0,0.0,0.0,0.0,0.0,0.0,0.0,0.0,0.0,0.0,0.0,0.0,0.0,0.0,0.0,0.0,0.0,0.0,0.0,0.0,0.0,0.0,0.0,0.0,0.0,0.0,0.0,0.0,0.0,0.0,0.0,0.0,0.0,0.0,0.0,0.0,0.0,0.0,0.0,0.0,0.0,0.0,0.0,0.0,0.0,0.0,0.0,0.0,0.0,0.0,0.0,0.0,0.0,0.0,0.0,0.0,0.0,0.0,0.0,0.0,0.0,0.0,0.0,0.0,0.0,0.0,0.0,0.0,0.0,0.0,0.0,0.0,0.0,0.0,0.0,0.0,0.0,0.0,0.0,0.0,0.0,0.0,0.0,0.0,0.0,0.0,0.0,0.0,0.0,0.0,0.0,0.0,0.0,0.0,0.0,0.0,0.0,0.0,0.0,0.0,0.0,0.0,0.0,0.0,0.0,0.0,0.0,0.0,0.0,0.0,0.0,0.0,0.0,0.0,0.0,0.0,0.0,0.0,0.0,0.0,0.0,0.0,0.0,0.0,0.0,0.0,0.0,0.0,0.0,0.0,0.0,0.0,0.0,0.0,0.0,0.0,0.0,0.0,0.0,0.0,0.0,0.0,0.0,0.0,0.0,0.0,0.0,0.0,0.0,0.0,0.0,0.0,0.0,0.0,0.0,0.0,0.0,0.0,0.0,0.0,0.0,0.0,0.0,0.0,0.0,0.0,0.0,0.0,0.0,0.0,0.0,0.0,0.0,0.0,0.0,0.0,0.0,0.0,0.0,0.0,0.0,0.0,0.0,0.0,0.0,0.0,0.0,0.0,0.0,0.0,0.0,0.0,0.0,0.0,0.0,0.0,0.0,0.0,0.0,0.0,0.0,0.0,0.0,0.0,0.0,0.0,0.0,0.0,0.0,0.0,0.0,0.0,0.0,0.0,0.0,0.0,0.0,0.0,0.0,0.0,0.0,0.0,0.0,0.0,0.0,0.0,0.0,0.0,0.0,0.0,0.0,0.0,0.0,0.0,0.0,0.0,0.0,0.0,0.0,0.0,0.0,0.0,0.0,0.0,0.0,0.0,0.0,0.0,0.0,0.0,0.0,0.0,0.0,0.0,0.0,0.0,0.0,0.0,0.0,0.0,0.0,0.0,0.0,0.0,0.0,0.0,0.0,0.0,0.0,0.0,0.0,0.0,0.0,0.0,0.0,0.0,0.0,0.0,0.0,0.0,0.0,0.0,0.0,0.0,0.0,0.0,0.0,0.0,0.0,0.0,0.0,0.0,0.0,0.0,0.0,0.0,0.0,0.0,0.0,0.0,0.0,0.0,0.0,0.0,0.0,0.0,0.0,0.0,0.0,0.0,0.0,0.0,0.0,0.0,0.0,0.0,0.0,0.0,0.0,0.0,0.0,0.0,0.0,0.0,0.0,0.0,0.0,0.0,0.0,0.0,0.0,0.0,0.0,0.0,0.0,0.0,0.0,0.0,0.0,0.0,0.0,0.0,0.0,0.0,0.0,0.0,0.0,0.0,0.0,0.0,0.0,0.0,0.0,0.0,0.0,0.0,0.0,0.0,0.0,0.0,0.0,0.0,0.0,0.0,0.0,0.0,0.0,0.0,0.0,0.0,0.0,0.0,0.0,0.0,0.0,0.0,0.0,0.0,0.0,0.0,0.0,0.0,0.0,0.0,0.0,0.0,0.0,0.0,0.0,0.0,0.0,0.0,0.0,0.0,0.0,0.0,0.0,0.0,0.0,0.0,0.0,0.0,0.0,0.0,0.0,0.0,0.0,0.0,0.0,0.0,0.0,0.0,0.0,0.0,0.0,0.0,0.0,0.0,0.0,0.0,0.0,0.0,0.0,0.0,0.0,0.0,0.0,0.0,0.0,0.0,0.0,0.0,0.0,0.0,0.0,0.0,0.0,0.0,0.0,0.0,0.0,0.0,0.0,0.0,0.0,0.0,0.0,0.0,0.0,0.0,0.0,0.0,0.0,0.0,0.0,0.0,0.0,0.0,0.0,0.0,0.0,0.0,0.0,0.0,0.0,0.0,0.0,0.0,0.0,0.0,0.0,0.0,0.0,0.0,0.0,0.0,0.0,0.0,0.0,0.0,0.0,0.0,0.0,0.0,0.0,0.0,0.0,0.0,0.0,0.0,0.0,0.0,0.0,0.0,0.0,0.0,0.0,0.0,0.0,0.0,0.0,0.0,0.0,0.0,0.0,0.0,0.0,0.0,0.0,0.0,0.0,0.0,0.0,0.0,0.0,0.0,0.0,0.0,0.0,0.0,0.0,0.0,0.0,0.0,0.0,0.0,0.0,0.0,0.0,0.0,0.0,0.0,0.0,0.0,0.0,0.0,0.0,0.0,0.0,0.0,0.0,0.0,0.0,0.0,0.0,0.0,0.0,0.0,0.0,0.0,0.0,0.0,0.0,0.0,0.0,0.0,0.0,0.0,0.0,0.0,0.0,0.0,0.0,0.0,0.0,0.0,0.0,0.0,0.0,0.0,0.0,0.0,0.0,0.0,0.0,0.0,0.0,0.0,0.0,0.0,0.0,0.0,0.0,0.0,0.0,0.0,0.0,0.0,0.0,0.0,0.0,0.0,0.0,0.0,0.0,0.0,0.0,0.0,0.0,0.0,0.0,0.0,0.0,0.0,0.0,0.0,0.0,0.0,0.0,0.0,0.0,0.0,0.0,0.0,0.0,0.0,0.0,0.0,0.0,0.0,0.0,0.0,0.0,0.0,0.0,0.0,0.0,0.0,0.0,0.0,0.0,0.0,0.0,0.0,0.0,0.0,0.0,0.0,0.0,0.0,0.0,0.0,0.0,0.0,0.0,0.0,0.0,0.0,2.7861,0.0,0.0,0.0,0.0,0.0,0.0,0.0,0.0,0.0,0.0,0.0,0.0,0.0,0.0,0.0,0.0,0.0,0.0,0.0,0.0,0.0,0.0,0.0,0.0,1.5906,1.6027,1.6418,1.6418,0.0,0.0,0.0,0.0,0.0,0.0,0.0,0.0,0.0,1.915,2.0781,2.2504,2.462,2.7044,2.5274,2.3389,2.1397,0.0,0.0,0.0,0.0,0.0,0.0,0.0,0.0,0.0,0.0,0.0,0.0,0.0,0.0,0.0,0.0,0.0,0.0,0.0,0.0,0.0,0.0,0.0,0.0,0.0,0.0,0.0,0.0,0.0,0.0,0.0,0.0,0.0,0.0,0.0,0.0,0.0,0.0,0.0,0.0,0.0,0.0,0.0,0.0,0.0,0.0,0.0,0.0,0.0,0.0,0.0,0.0,0.0,0.0,0.0,0.0,0.0,0.0,0.0,0.0,0.0,0.0,0.0,0.0,0.0,0.0,0.0,0.0,0.0,0.0,0.0,2.917,0.0,0.0,0.0,0.0,0.0,0.0,0.0,0.0,0.0,0.0,0.0,0.0,0.0,0.0,0.0,0.0,0.0,0.0,0.0,0.0,0.0,1.5844,1.6728,1.6919,1.7228,1.7896,1.794,1.7979,1.8056,1.7363,0.0,0.0,0.0,0.0,0.0,1.9227,2.1334,2.4745,2.689,2.9275,3.1891,3.116,2.8967,2.5553,0.0,0.0,0.0,0.0,0.0,0.0,0.0,0.0,0.0,0.0,0.0,0.0,0.0,0.0,0.0,0.0,0.0,0.0,0.0,0.0,0.0,0.0,0.0,0.0,0.0,0.0,0.0,0.0,0.0,0.0,0.0,0.0,0.0,0.0,0.0,0.0,0.0,0.0,0.0,0.0,0.0,0.0,0.0,0.0,0.0,0.0,0.0,0.0,0.0,0.0,0.0,0.0,0.0,0.0,0.0,0.0,0.0,0.0,0.0,0.0,0.0,0.0,0.0,0.0,3.1883,3.2401,3.303,3.3176,3.3981,3.5081,3.2437,3.1484,3.17,0.0,0.0,0.0,0.0,0.0,0.0,0.0,0.0,0.0,0.0,0.0,0.0,0.0,0.0,0.0,0.0,0.0,0.0,0.0,0.0,1.6743,1.7556,1.8318,1.8782,1.8904,1.8981,1.902,1.902,1.8845,0.0,0.0,0.0,2.0199,2.0982,2.1867,2.3984,2.7411,3.1287,3.3045,3.2737,3.2622,3.2275,3.1672,2.9967,0.0,0.0,0.0,0.0,0.0,0.0,0.0,0.0,0.0,0.0,0.0,0.0,0.0,0.0,0.0,0.0,0.0,0.0,0.0,0.0,0.0,0.0,0.0,0.0,0.0,0.0,0.0,0.0,0.0,0.0,0.0,0.0,0.0,0.0,0.0,0.0,0.0,0.0,0.0,0.0,0.0,0.0,0.0,2.6303,2.7287,0.0,0.0,0.0,0.0,0.0,0.0,0.0,0.0,0.0,0.0,0.0,0.0,0.0,0.0,3.0982,3.1853,3.2318,3.2474,3.3844,3.4586,3.4723,3.5467,3.5927,3.6075,3.5698,0.0,3.3396,3.2502,0.0,0.0,0.0,0.0,0.0,0.0,0.0,0.0,0.0,0.0,0.0,0.0,0.0,0.0,0.0,0.0,0.0,0.0,0.0,0.0,0.0,2.0773,2.1894,2.3377,2.3423,2.3423,2.3462,2.2961,0.0,0.0,2.226,2.3039,2.4349,2.5659,2.8494,3.2865,3.5199,3.6622,3.7161,3.6713,3.6752,3.7137,3.5932,3.3545,3.0369,2.9716,0.0,0.0,0.0,0.0,0.0,0.0,0.0,0.0,0.0,0.0,0.0,0.0,0.0,0.0,0.0,0.0,0.0,0.0,0.0,0.0,0.0,0.0,0.0,0.0,0.0,0.0,0.0,0.0,0.0,0.0,0.0,0.0,0.0,0.0,0.0,0.0,0.0,0.0,0.0,2.5329,2.6696,2.9033,2.896,2.8859,0.0,0.0,0.0,0.0,0.0,0.0,0.0,0.0,0.0,3.3428,3.3258,3.3552,3.4365,3.4586,3.4686,3.4686,3.5393,3.5966,3.6421,3.6809,3.6985,3.6985,3.6985,3.6311,3.5141,3.428,3.4311,3.4659,0.0,0.0,0.0,0.0,0.0,3.0988,0.0,0.0,0.0,0.0,0.0,0.0,0.0,0.0,0.0,0.0,0.0,0.0,2.2487,2.3675,2.5195,2.7343,2.7461,2.7496,2.7771,2.6874,2.6262,2.6033,2.5821,2.6418,2.7883,2.9778,3.2493,3.6045,3.7777,3.9176,4.0177,3.9807,3.9923,4.0477,3.9673,3.6727,3.2387,3.2799,3.1623,0.0,0.0,0.0,0.0,0.0,0.0,0.0,0.0,0.0,0.0,0.0,0.0,0.0,0.0,0.0,0.0,0.0,0.0,0.0,0.0,0.0,0.0,0.0,0.0,0.0,0.0,0.0,0.0,0.0,0.0,0.0,0.0,0.0,0.0,0.0,0.0,0.0,0.0,2.7981,2.8605,3.1364,3.1531,3.1558,0.0,0.0,0.0,0.0,0.0,0.0,3.3422,3.3392,3.4036,3.5455,3.5259,3.5726,3.6869,3.6906,3.6906,3.6906,3.7119,3.755,3.8151,3.8314,3.8428,3.8392,3.8413,3.8083,3.743,3.5944,3.6067,3.6997,3.5182,3.4458,3.4385,3.4,3.3469,3.3049,0.0,0.0,0.0,0.0,0.0,0.0,0.0,0.0,0.0,0.0,0.0,2.2532,2.5113,2.6913,2.8281,2.9219,2.9258,2.9601,3.0369,2.9536,2.9709,3.1261,3.0506,3.0506,3.1426,3.3887,3.4908,3.4314,3.8392,4.0023,3.9374,4.0106,4.0444,4.0447,3.9662,3.8681,3.757,3.678,3.546,3.3659,3.1263,0.0,0.0,0.0,0.0,0.0,0.0,0.0,0.0,0.0,0.0,0.0,0.0,0.0,0.0,0.0,0.0,0.0,0.0,0.0,0.0,0.0,0.0,0.0,0.0,0.0,0.0,0.0,0.0,0.0,0.0,0.0,0.0,0.0,0.0,0.0,0.0,0.0,0.0,3.5122,3.4505,0.0,0.0,0.0,0.0,3.3684,3.4194,3.5168,3.6762,3.6622,3.6843,3.7718,3.7704,3.7644,3.7467,3.8218,3.8579,3.8579,3.9332,3.9731,3.9841,4.0544,4.0917,4.0951,4.0914,4.0923,4.0634,3.7503,3.6274,3.6324,3.6213,3.6176,3.6255,3.7004,3.7217,3.718,0.0,0.0,0.0,1.5391,1.5399,1.5685,1.6483,1.7555,1.8804,2.0196,2.3096,2.5607,2.7109,2.9375,3.1328,3.2617,3.2717,3.2754,3.2979,3.313,3.3029,3.2493,3.2722,3.3506,3.489,3.5803,3.7185,3.9076,4.0053,4.0939,4.1755,4.2033,4.2179,4.214,4.1886,4.1239,4.0346,3.896,3.7377,3.5767,3.5451,3.3288,0.0,0.0,0.0,0.0,0.0,0.0,0.0,0.0,0.0,0.0,0.0,0.0,0.0,0.0,0.0,0.0,0.0,0.0,0.0,0.0,0.0,0.0,0.0,0.0,0.0,0.0,0.0,0.0,0.0,0.0,0.0,0.0,0.0,0.0,0.0,0.0,0.0,3.5339,3.5699,0.0,0.0,3.6367,3.6252,3.6496,3.6689,3.7173,3.8102,3.8028,3.8452,3.9427,3.9443,3.9538,3.982,4.0108,4.0251,4.0251,4.054,4.0939,4.1445,4.1748,4.1896,4.186,4.1886,4.1556,4.1013,3.9856,3.9072,3.8575,3.8037,3.7833,3.7881,3.8168,3.8263,3.8245,0.0,0.0,0.0,1.5351,1.5594,1.6094,1.6885,1.8473,2.0241,2.1928,2.5176,2.8008,2.9766,3.1797,3.3555,3.4844,3.4947,3.4941,3.5109,3.536,3.5254,3.4654,3.4908,3.571,3.7102,3.7448,3.8945,4.1786,4.2094,4.2787,4.3943,4.4229,4.4229,4.3943,4.3645,4.3167,4.2563,4.117,3.9585,3.7932,3.7371,3.5619,3.3096,0.0,0.0,0.0,0.0,0.0,0.0,0.0,0.0,0.0,0.0,0.0,0.0,0.0,0.0,0.0,0.0,0.0,0.0,0.0,0.0,0.0,0.0,0.0,0.0,0.0,0.0,0.0,0.0,0.0,0.0,0.0,0.0,0.0,0.0,0.0,3.462,3.5776,3.6622,3.7469,3.8344,3.8421,3.8551,3.8821,3.9028,3.9218,3.9389,3.9557,3.9942,4.0556,4.0845,4.1152,4.1499,4.1752,4.1933,4.1933,4.1933,4.2187,4.2732,4.2732,4.2732,4.2732,4.2732,4.2404,4.1933,4.1933,4.1595,4.1025,3.9942,3.9495,3.9511,3.9511,3.9501,3.9516,0.0,0.0,1.5366,1.5308,1.6015,1.686,1.7722,1.9316,2.1673,2.5193,2.7187,2.9609,3.3047,3.4219,3.5,3.5625,3.5685,3.5982,3.665,3.6021,3.6286,3.7986,0.0,0.0,3.8117,3.8969,4.0239,4.1979,4.4449,4.5637,4.5696,4.6502,4.6467,4.5586,4.4722,4.432,4.4282,4.3496,4.2168,4.0315,3.7046,3.6118,3.6236,0.0,0.0,0.0,0.0,0.0,0.0,0.0,0.0,0.0,0.0,0.0,0.0,0.0,0.0,0.0,0.0,0.0,0.0,0.0,0.0,0.0,0.0,0.0,0.0,0.0,0.0,0.0,0.0,0.0,0.0,0.0,0.0,0.0,3.4505,3.5699,3.6766,3.6804,3.7555,3.8408,3.9323,3.94,3.9762,4.0508,4.1062,4.1232,4.0908,4.139,4.1499,4.1209,4.1933,4.2333,4.2333,4.3096,4.3497,4.3497,4.3534,4.3534,4.3534,4.3569,4.3569,4.3534,4.3534,4.3534,4.3534,4.3534,4.3534,4.3424,4.1789,4.1172,4.1172,4.1172,4.1165,4.1185,1.5352,1.5385,1.5397,1.5323,1.6013,1.7113,1.8595,2.0292,2.2644,2.6093,2.8633,3.0976,3.3164,3.4687,3.5603,3.5679,3.5649,3.593,3.665,3.7088,3.7795,3.8873,0.0,0.0,4.0708,4.1594,4.3173,4.5522,4.6204,4.6839,4.7432,4.7083,4.6775,4.6506,4.5624,4.524,4.5201,4.432,4.3705,4.3069,4.0947,3.8715,3.657,0.0,0.0,0.0,0.0,0.0,0.0,0.0,0.0,0.0,0.0,0.0,0.0,0.0,0.0,0.0,0.0,0.0,0.0,0.0,0.0,0.0,0.0,0.0,0.0,0.0,0.0,0.0,0.0,0.0,0.0,0.0,0.0,3.6535,3.6098,3.6972,3.8089,3.9292,3.9662,4.0392,4.1902,4.2069,4.2151,4.2381,4.2497,4.2706,4.2975,4.2866,4.2951,4.3169,4.3169,4.3169,4.3169,4.3387,4.3497,4.3497,4.4081,4.4373,4.4373,4.4957,4.492,4.4373,4.4373,4.4373,4.4373,4.4373,4.4702,4.5068,4.3461,4.2842,4.2842,4.2842,4.2839,4.2837,1.5351,1.5352,1.5458,1.5796,1.654,1.7705,1.9449,2.1193,2.3711,2.7539,2.9726,3.1836,3.4219,3.5357,3.5912,3.5778,3.5738,3.6021,3.6727,3.756,3.8691,0.0,0.0,4.1293,4.3349,4.4256,4.5586,4.7394,4.7761,4.8202,4.8644,4.7798,4.7219,4.6852,4.5988,4.5586,4.5547,4.5068,4.4645,4.4205,4.3239,4.1024,3.8176,3.7112,3.5894,3.452,3.2814,3.198,3.1758,3.1835,0.0,0.0,0.0,0.0,0.0,0.0,0.0,0.0,0.0,0.0,0.0,0.0,0.0,0.0,0.0,0.0,0.0,0.0,0.0,0.0,0.0,0.0,0.0,0.0,3.793,3.8768,3.833,3.8729,3.9538,4.0885,4.1393,4.2107,4.3464,4.3607,4.3918,4.4645,4.4684,4.4914,4.5355,4.5024,4.4923,4.5029,4.4665,4.4518,4.4518,4.4518,4.4518,4.4518,4.4957,4.5217,4.5223,4.5699,4.5662,0.0,4.5217,4.5213,4.5178,4.5185,4.548,0.0,0.0,0.0,0.0,0.0,4.3791,4.3497,1.5427,1.5352,1.5575,1.6468,1.7285,1.8426,2.0272,2.1992,2.4648,2.9023,3.0351,3.2148,3.5508,3.5935,3.597,3.5893,3.597,3.6331,3.7112,3.7862,0.0,4.1825,4.204,4.3256,4.5817,4.6743,4.7569,4.8414,4.9163,4.9567,4.9529,4.8644,4.7798,4.7024,4.6142,4.568,4.5586,4.5586,4.5163,4.4435,4.432,4.2838,4.0369,3.7906,3.6483,3.557,3.3824,3.2799,3.2262,3.2301,0.0,0.0,0.0,0.0,0.0,0.0,0.0,0.0,0.0,0.0,0.0,0.0,0.0,0.0,0.0,0.0,0.0,0.0,0.0,0.0,0.0,0.0,0.0,0.0,4.0665,4.194,4.1331,4.1216,4.1447,4.2002,4.2761,4.3611,4.4474,4.4607,4.5278,4.6908,4.7045,4.7199,4.764,0.0,0.0,0.0,0.0,4.6207,4.617,4.617,4.617,4.617,4.6244,4.6323,4.6318,4.6428,4.6391,4.6318,4.6323,4.6352,4.6318,4.6322,4.6391,4.643,4.6028,4.5881,4.581,4.5112,4.4413,0.0,1.5664,1.5352,1.5575,1.6507,1.7343,1.8716,2.1169,2.2422,2.4648,2.9023,3.0351,3.1914,3.4648,3.554,3.5916,3.5916,3.6426,3.7391,3.8806,3.9608,4.087,4.278,4.3478,4.4997,4.7569,4.8452,4.9317,5.0202,5.0356,5.0433,5.0433,4.9567,4.8702,4.7812,4.7024,4.6275,4.5586,4.5586,4.5509,4.5278,4.4568,4.3201,4.1347,3.9508,3.8247,3.7294,3.5671,3.4979,3.4879,3.5076,3.3626,3.1914,3.2851,3.1758,0.0,0.0,0.0,0.0,0.0,0.0,0.0,0.0,0.0,0.0,0.0,0.0,0.0,0.0,0.0,0.0,0.0,0.0,0.0,4.217,4.2733,4.3651,4.556,4.5736,4.518,4.3953,4.3974,4.4684,4.6257,4.639,4.6814,4.7773,4.7855,4.7914,4.801,4.8356,0.0,4.7905,4.8236,4.8236,4.783,4.783,4.783,4.783,0.0,0.0,4.8822,4.9562,4.9487,4.8897,4.8899,4.8863,4.8863,4.886,4.9266,4.9599,4.6946,4.5918,4.588,4.5736,4.5796,4.602,1.6914,1.6602,1.6866,1.7732,1.8266,1.9286,2.1484,2.2578,2.4531,2.8437,2.9726,3.1406,3.4375,3.5078,3.5469,3.5898,3.7031,3.8034,0.0,3.9954,4.154,4.3721,4.4554,4.6148,4.8683,4.9606,5.0279,5.0702,5.0702,5.0702,5.0664,4.9798,4.8914,4.8048,4.7276,4.6429,4.5586,4.5586,4.5586,4.5547,4.5201,4.4547,4.3564,4.1459,3.9823,3.8575,3.7382,3.6422,3.5788,3.5852,3.4766,3.3437,3.3906,3.2891,3.1484,0.0,0.0,0.0,0.0,0.0,0.0,0.0,0.0,0.0,0.0,0.0,0.0,0.0,0.0,4.0273,0.0,0.0,4.2891,4.4492,4.5053,4.5726,4.7009,4.7414,4.724,4.6296,4.618,4.6544,4.7409,4.7489,4.7855,4.8682,4.9144,4.9606,4.999,5.0471,5.0543,5.0116,5.0194,5.0025,4.9541,4.9541,4.9541,4.9541,5.0025,5.0171,5.0171,5.0578,5.0578,5.0208,5.0208,5.0208,5.0208,5.0431,5.0765,5.0949,4.9504,4.8567,4.8073,4.8296,4.8194,4.8093,1.8555,1.8395,1.8557,1.9037,1.9175,1.9805,2.1562,2.2617,2.4297,2.7383,2.8711,3.0547,3.3633,3.4414,3.5195,3.6406,3.75,3.8287,0.0,3.9792,4.1699,4.4407,4.5089,4.6647,4.9356,5.0106,5.051,5.0702,5.0702,5.0702,5.0664,4.9798,4.8933,4.8049,4.7258,4.6429,4.5624,4.5624,4.5663,4.568,4.5796,4.5719,4.5355,4.3133,4.12,3.9514,3.8457,3.7151,3.5859,3.5508,3.4961,3.4453,3.4453,3.3516,3.2539,3.3047,3.3516,0.0,0.0,0.0,0.0,0.0,0.0,0.0,0.0,3.7773,3.875,4.0312,4.1328,4.2461,4.4141,4.4453,4.5039,4.6836,4.7703,4.8241,4.8509,4.901,4.9279,4.916,4.8526,4.8218,4.8582,4.8625,4.9048,5.0067,5.0779,5.1453,5.2107,5.2666,5.2741,5.2252,5.2076,5.1773,5.125,5.125,5.125,5.125,5.125,5.125,5.125,5.125,5.125,5.125,5.125,5.125,5.1286,5.1621,5.1801,5.1934,5.2343,5.1956,5.115,5.1088,5.0694,5.022,2.0234,2.02,2.001,1.9304,1.9195,1.9805,2.1602,2.2656,2.3867,2.5742,2.7422,2.918,3.1094,3.3359,3.5664,3.8086,3.7656,0.0,3.9445,3.9641,4.1201,4.4538,4.4641,4.6165,4.9529,4.9567,4.9913,5.0702,5.0702,5.0702,5.0664,4.9798,4.8933,4.8049,4.7335,4.6544,4.5796,4.5834,4.5873,4.5873,4.5873,4.547,4.4722,4.3765,4.2244,4.0345,3.8119,3.6716,3.5664,3.418,3.3633,3.3555,3.3555,3.3437,3.3711,3.6055,3.625,3.5859,3.6523,3.6953,3.75,3.8945,3.9336,3.9726,0.0,4.1758,4.2109,4.3086,4.3984,4.5117,4.6836,4.7148,4.7969,5.0391,5.0779,5.1297,5.2854,5.3051,5.2974,5.282,5.001,4.8702,5.026,5.0394,5.1068,5.2647,5.2897,5.2974,5.3025,5.3815,5.3891,5.308,5.3749,5.3744,5.2926,5.2926,5.2926,5.2926,5.2926,5.2926,5.2926,5.2926,5.2926,5.2926,5.2926,5.2926,5.2926,5.2962,5.3227,5.359,5.4034,5.4373,5.4326,5.2548,5.2026,5.24,2.043,2.0495,2.0424,2.0041,1.995,2.0234,2.1016,2.1875,2.3047,2.4727,2.6445,2.8398,3.0664,3.3164,3.4922,3.5508,3.6562,3.7305,3.7539,3.8867,4.0537,4.2442,4.387,4.552,4.7412,4.8875,4.9798,5.0202,5.0664,5.0664,5.0164,4.9798,4.8914,4.7548,4.7237,4.6654,4.5857,4.5896,4.5896,4.5874,4.5433,4.5053,4.4603,4.3389,4.1831,4.0078,3.8555,3.7148,0.0,3.5156,3.4258,3.3476,3.3984,3.4141,3.4258,3.4844,3.5859,3.707,3.8437,3.8828,3.9101,4.0351,4.0664,4.0976,4.2148,4.2773,4.3398,4.4297,4.5976,4.7656,4.8906,4.9922,5.1094,0.0,5.2851,5.3078,5.3798,5.3814,5.3669,5.3513,5.2125,5.1431,5.2088,5.2164,5.2451,5.3164,5.3664,5.3972,5.3968,5.4759,5.4912,5.4314,5.4455,5.4154,5.3561,5.3335,5.3225,5.3225,5.3225,5.3225,5.3225,5.3225,5.3225,5.3225,5.3445,5.3561,5.3597,5.4081,5.4387,5.4613,5.502,5.5318,5.5357,5.4468,5.4271,5.4472,2.0468,2.0539,2.056,2.0544,2.0547,2.0547,2.0586,2.1328,2.2344,2.3555,2.5,2.7109,3.0195,3.2187,3.3437,3.3711,3.5508,3.6406,3.6016,3.7891,3.9648,4.1016,4.2734,4.4298,4.5583,4.7636,4.8952,4.9431,5.0051,5.0167,4.978,4.9301,4.8399,4.7185,4.6991,4.6536,4.5937,4.5742,4.5664,4.5585,4.4802,4.4238,4.3672,4.25,4.1016,3.9453,3.8828,3.7461,3.6016,3.6016,3.5,3.3867,3.4492,3.4687,3.4609,3.4219,3.5781,3.8008,3.9492,4.0078,4.0508,4.1601,4.207,4.2383,4.2969,4.3789,4.4609,4.5234,4.7266,4.9219,5.0312,5.1719,5.3047,5.418,5.4375,5.4453,5.4687,5.4648,5.4509,5.4401,5.4226,5.4105,5.3956,5.372,5.364,5.3891,5.4468,5.4836,5.4836,5.5395,5.5511,5.5105,5.473,5.4277,5.3823,5.3371,5.3225,5.3225,5.3225,5.3225,5.3225,5.3298,5.3408,5.3597,5.3897,5.4004,5.4018,5.4689,5.4987,5.5132,5.5428,5.5742,5.6071,5.6071,5.5895,5.5703,2.0581,2.0586,2.0586,2.0586,2.0586,2.0586,2.0586,2.1328,2.1914,2.1953,2.2695,2.4844,2.918,2.9726,3.1094,3.4375,3.4726,3.5117,3.5937,3.6875,3.8516,4.1094,4.1133,4.2265,4.4765,4.5624,4.6835,4.8554,4.8554,4.8983,4.9765,4.8085,4.7265,4.7187,4.6445,4.6132,4.6055,4.5312,4.5039,4.4961,4.4062,4.2773,4.1289,4.125,4.0156,3.8633,3.8594,3.7461,3.6016,3.6016,3.5391,3.4687,3.4687,3.4687,3.4844,3.5664,3.7187,3.875,3.9648,4.0508,4.1562,4.3203,4.4258,4.4883,4.4922,4.5586,4.6211,4.625,4.7656,4.9414,5.1055,5.2109,5.3242,5.4961,5.5273,5.5547,5.6406,5.6523,5.6484,5.6327,5.6214,5.6032,0.0,5.4989,5.4797,5.5588,5.5665,5.5665,5.5665,5.5703,5.5511,5.5105,5.4715,5.4278,5.3823,5.3371,5.3225,5.3225,5.3225,5.3225,5.3225,5.3597,5.4044,5.4454,5.4454,5.449,5.4463,5.4501,5.4732,5.51,5.5105,5.5857,5.6977,5.6977,5.6417,5.5703,2.0504,2.0558,2.0586,2.0586,2.0586,2.0586,2.0586,2.0859,2.125,2.1836,2.3086,0.0,0.0,0.0,0.0,0.0,3.3047,3.4336,3.3516,3.5898,3.7695,3.8555,3.9687,4.1172,4.3164,4.457,4.6172,4.7891,4.7891,4.7773,4.7461,4.6289,4.543,4.4883,4.4609,4.4492,4.4492,4.4258,4.4141,4.4023,4.2617,4.1719,4.1211,4.1211,3.9766,3.7969,0.0,3.8476,3.6094,3.668,3.5898,3.4883,3.6055,3.6836,3.7461,3.832,3.9414,4.0391,4.0664,4.1797,4.3125,4.4297,4.4766,4.5156,4.5742,4.6523,4.7148,4.7148,4.8555,5.0117,5.1211,5.2578,5.3945,5.5117,5.5781,5.625,5.6562,5.6601,5.6562,5.6406,5.6343,0.0,0.0,0.0,0.0,5.5665,5.5703,5.5703,5.5703,5.5472,5.5241,5.5105,5.472,5.4524,5.4607,5.3934,5.3897,5.4381,5.4154,5.4044,5.4049,5.4204,5.4354,5.4506,5.4762,5.4919,5.4912,5.5182,5.5703,5.634,5.634,5.6977,5.7884,5.7857,5.7659,5.7428,2.0515,2.0558,2.0586,2.0586,2.0586,0.0,0.0,0.0,0.0,0.0,0.0,0.0,0.0,0.0,0.0,0.0,0.0,3.3008,3.2266,3.4805,3.6523,3.6836,3.8203,3.9609,4.1016,4.2422,4.4023,4.5742,4.5469,4.5312,4.5351,4.418,4.3359,4.2812,4.2812,4.2812,4.2773,4.2461,4.2851,4.3476,4.0859,4.0351,4.1055,3.9805,3.8281,0.0,3.9101,3.8164,3.6211,3.7734,3.707,3.582,3.6953,3.7461,3.8047,3.9844,4.0742,4.1406,4.2305,4.3359,4.4375,4.5234,4.5703,4.6094,4.6641,4.7422,4.8047,4.8047,4.9219,5.0351,5.0898,5.2383,5.3828,5.4687,5.5586,5.625,5.6562,5.6601,5.6562,5.6484,5.6441,5.6343,0.0,0.0,0.0,5.5703,5.5703,5.5703,5.5703,5.5318,5.5116,5.5104,5.4553,5.4345,5.4565,5.4072,5.4293,5.5238,5.535,5.5313,5.5197,5.5467,5.5549,5.5434,5.5994,5.6225,5.6263,5.6533,5.6977,5.7439,5.7456,5.7995,5.8726,5.8735,5.8927,5.9119,2.0581,2.0586,2.0586,0.0,0.0,0.0,0.0,0.0,0.0,0.0,0.0,0.0,0.0,0.0,0.0,0.0,0.0,0.0,3.1992,3.3672,0.0,3.5898,3.6758,3.7656,3.8594,3.9414,4.0664,4.2344,4.1523,4.1953,4.3476,4.1836,4.1055,4.1055,4.1055,4.1055,4.1016,4.0156,4.1172,4.3086,3.8906,3.875,4.0625,3.7344,3.6016,3.6055,3.7031,3.6797,3.6406,3.8906,3.8672,3.7305,3.7383,3.6875,3.6875,4.0312,4.1328,4.1875,4.4336,4.5039,4.5273,4.6094,4.6953,4.7617,4.7617,4.832,4.8945,4.8906,4.957,5.0156,5.0195,5.1484,5.2891,5.3828,5.4726,5.5586,5.6484,5.6601,5.6601,0.0,0.0,0.0,0.0,0.0,0.0,5.5703,0.0,5.5703,5.5703,5.5318,5.5113,5.5059,5.4307,5.3867,5.3859,5.3907,5.4503,5.5703,5.6533,5.6763,5.6456,5.7208,5.7401,5.7131,5.7961,5.8308,5.8308,5.8308,5.8308,5.8346,5.8373,5.8889,5.9565,5.9565,6.0104,6.0589,0.0,0.0,0.0,0.0,0.0,0.0,0.0,0.0,0.0,0.0,0.0,0.0,0.0,0.0,0.0,0.0,0.0,0.0,3.0234,3.2422,0.0,0.0,0.0,0.0,0.0,3.8828,3.9766,4.1523,4.0664,4.0469,4.0859,3.9766,3.9258,3.9258,3.9258,3.9258,3.9219,3.832,3.8711,3.9687,3.7305,3.7109,3.8203,3.7305,3.6172,3.5312,3.75,3.7305,3.6211,3.7539,3.7656,3.7539,3.8828,3.9062,3.9453,4.2226,4.3047,4.3359,4.4648,4.5469,4.6016,4.625,4.6953,4.7617,4.7617,4.8789,4.9687,4.9023,4.9062,4.9414,5.0078,5.0547,5.1523,5.3672,5.4726,5.5586,5.6484,5.6601,0.0,5.6601,0.0,5.6481,5.628,5.618,0.0,0.0,5.5703,5.5703,5.5703,5.5318,5.496,5.4649,5.4754,5.4744,5.469,5.5352,5.553,5.5263,5.5785,5.6307,5.6867,5.7049,5.7456,5.7966,5.8197,5.8296,5.8296,5.8296,5.8642,5.9204,5.9196,5.9719,6.0473,6.0473,6.0666,6.0896,0.0,0.0,0.0,0.0,0.0,0.0,0.0,0.0,0.0,0.0,0.0,0.0,0.0,0.0,0.0,0.0,0.0,0.0,0.0,3.1094,0.0,0.0,0.0,0.0,0.0,3.7266,3.793,3.8906,3.8437,3.8203,3.8164,3.7695,3.7461,3.7461,3.7461,3.7461,3.7422,3.6953,3.7656,0.0,0.0,3.6055,3.7656,3.5781,3.4687,3.4375,3.6211,3.6523,3.6055,3.6562,3.7226,3.8047,3.9023,3.9844,4.0898,4.3047,4.3984,4.4531,4.5781,4.6484,4.6953,4.7344,4.8086,4.8633,4.8242,4.8945,4.9492,4.8984,4.8281,4.8047,4.8906,4.9375,5.0234,5.2031,5.3672,5.5039,5.5898,5.6367,5.6601,5.6601,5.6601,5.6523,5.6406,5.6291,5.6109,0.0,5.578,5.5703,5.5703,5.5318,5.4995,5.4764,5.461,5.4608,5.4769,5.5836,5.6203,5.5922,5.656,5.7082,5.7566,5.7934,5.8335,5.885,0.0,5.9388,5.9388,5.9388,5.9681,6.0065,6.0142,6.0473,6.0896,6.0973,6.105,6.1135,0.0,0.0,0.0,0.0,0.0,0.0,0.0,0.0,0.0,2.4219,2.3711,2.3437,2.3437,2.4102,0.0,0.0,0.0,0.0,0.0,0.0,0.0,0.0,0.0,0.0,3.4375,3.5195,3.5664,3.5664,3.5664,3.5664,3.5664,3.5664,3.5664,3.5664,3.5664,3.5664,3.5664,3.5547,3.6875,3.8711,3.4805,3.5039,3.7344,0.0,3.2461,3.3164,3.4062,3.5,3.582,3.582,3.6992,3.8437,3.8555,3.9805,4.1523,4.3203,4.4414,4.5547,4.7148,4.7617,4.7812,4.8672,4.9453,4.9805,4.8945,4.8906,4.8984,4.8633,4.7422,4.668,4.7305,4.8047,4.8906,5.0039,5.2031,5.3906,5.5117,5.5937,5.6484,5.6601,5.6601,5.6601,5.6562,5.6369,5.6225,5.6148,5.5895,5.5703,5.5703,5.5395,5.5143,5.5105,5.438,5.4163,5.4583,5.5742,5.6456,5.6862,5.7576,5.8077,5.8329,5.9011,5.9465,5.9719,0.0,0.0,6.0781,6.0781,6.0819,6.0819,6.0935,6.101,6.1059,6.1252,6.1323,6.1334,0.0,0.0,0.0,0.0,0.0,0.0,0.0,0.0,0.0,0.0,2.7031,2.5234,0.0,0.0,0.0,0.0,0.0,0.0,0.0,0.0,0.0,0.0,0.0,0.0,3.2617,3.3437,3.3867,3.3867,3.3867,3.3867,3.3867,3.3867,3.3867,3.3867,3.3867,3.3867,3.3828,3.3125,3.3516,3.4414,3.2969,3.2773,3.3164,3.168,0.0,0.0,3.2305,3.3633,3.4922,3.4922,3.6094,3.7656,3.8359,3.9805,4.1523,4.3203,4.4844,4.6289,4.7305,4.7617,4.7812,4.8672,4.9023,4.8906,4.8008,4.8945,4.9375,4.7187,4.707,4.7187,4.6641,4.6641,4.75,4.9805,5.0586,5.1914,5.4883,5.543,5.5781,5.6523,5.6601,5.6562,5.6445,5.6408,0.0,0.0,0.0,5.5818,5.5703,5.5626,5.5434,5.5105,5.494,5.4907,5.4989,5.5549,5.5857,5.5934,5.6071,5.69,5.8329,5.845,5.9273,6.0589,6.0742,0.0,6.0781,6.0781,6.0858,6.0973,6.0973,6.1112,6.126,6.1299,6.1382,6.1482,0.0,0.0,0.0,0.0,0.0,0.0,0.0,3.0078,3.1289,3.3906,3.2773,3.0898,2.8633,2.7617,2.6875,0.0,0.0,0.0,0.0,0.0,0.0,0.0,0.0,0.0,3.1523,3.2344,3.2773,3.2773,0.0,3.3203,3.2773,3.3203,3.3398,3.3398,3.3398,3.3398,3.3359,3.3008,3.3047,3.3281,3.2031,3.1523,3.1367,0.0,0.0,0.0,3.2031,3.3555,3.5312,3.4844,3.6172,3.8125,3.8984,4.0742,4.2734,4.4023,4.5625,4.7187,4.8047,4.8281,4.8594,4.9883,4.9531,4.8672,4.7812,4.7539,4.6992,4.5312,4.4609,4.4258,4.4258,4.4648,4.5508,4.7226,4.9023,5.1094,5.3594,5.4726,5.5469,5.5859,5.6328,5.6406,5.5898,5.6175,5.634,5.6186,0.0,5.5818,5.5703,5.5703,5.5511,5.5105,5.5313,5.5317,5.5105,5.5511,5.5703,5.5703,5.5703,5.6609,5.8329,5.8296,5.9196,6.0781,6.0781,0.0,6.0781,6.0781,6.0858,6.1004,6.1133,6.1251,6.1406,6.1484,6.1564,6.1615,0.0,0.0,0.0,0.0,0.0,0.0,0.0,3.2617,3.3984,3.7422,3.7695,3.6211,3.2656,3.0547,2.875,0.0,0.0,0.0,0.0,0.0,0.0,0.0,0.0,0.0,0.0,0.0,0.0,3.1641,3.2266,0.0,0.0,0.0,0.0,0.0,3.2773,3.2851,3.2851,3.2656,3.2695,0.0,0.0,3.0351,3.0156,0.0,0.0,0.0,0.0,3.332,3.5117,3.4609,3.5898,3.7969,3.9023,4.1367,4.3828,4.4531,4.6094,4.7734,4.8437,4.8633,4.9023,5.0703,4.9883,4.8359,4.7266,4.6133,4.4805,4.3203,4.2109,4.1523,4.1797,4.2734,4.3633,4.4336,4.7383,5.0273,5.2148,5.375,5.4883,5.5273,5.5742,5.5781,5.5078,5.5901,0.0,5.64,0.0,0.0,5.5703,5.5703,5.5511,5.5105,5.5497,5.5503,5.5105,5.5511,5.5703,5.5703,5.5703,5.6609,5.8329,5.8296,5.9196,6.0781,6.0781,0.0,0.0,6.0819,6.0935,6.107,6.1264,6.1406,6.1562,6.164,6.1719,6.1713,0.0,0.0,0.0,0.0,0.0,0.0,0.0,3.3945,3.5703,3.9219,3.8984,3.8047,3.6836,3.4453,3.1328,0.0,0.0,0.0,0.0,0.0,0.0,0.0,0.0,0.0,0.0,0.0,0.0,2.9844,2.9922,0.0,0.0,0.0,0.0,0.0,0.0,3.1133,3.1094,3.0273,0.0,0.0,0.0,0.0,0.0,0.0,0.0,0.0,0.0,3.168,3.2656,3.3281,3.4219,3.5351,3.6992,4.0351,4.3711,4.3789,4.5625,4.7617,4.7695,4.7734,4.8125,4.9883,4.8984,4.7266,4.5625,4.5742,4.5039,4.1055,4.1328,4.1836,4.0391,4.1445,4.2539,4.2617,4.5547,4.8711,5.1172,5.2344,5.3516,5.5117,5.4687,5.4219,5.4141,5.5622,5.6542,5.6424,0.0,0.0,5.5742,5.5703,5.5511,5.5105,5.5477,5.5516,5.5105,5.5511,5.5703,5.5703,5.5703,5.6609,5.8329,5.8296,5.9196,6.0781,6.0781,0.0,0.0,6.0935,6.1112,6.1302,6.142,6.1562,6.168,6.1719,6.1719,6.1718,0.0,0.0,0.0,0.0,0.0,0.0,3.3594,3.4023,3.5547,4.0078,3.9922,3.9062,3.8164,3.7148,3.4375,2.9023,0.0,0.0,0.0,0.0,0.0,0.0,0.0,0.0,0.0,0.0,2.8476,3.0391,2.9336,0.0,0.0,0.0,0.0,0.0,0.0,3.0508,2.9961,2.9687,0.0,0.0,0.0,0.0,0.0,0.0,0.0,0.0,0.0,0.0,3.2969,3.3281,3.4687,3.6406,3.707,3.918,4.1719,4.3242,4.5195,4.6914,4.7461,4.7969,4.8555,4.9258,4.8125,4.6367,4.4609,4.3711,4.2461,3.9687,3.9219,3.9141,3.8476,3.9297,4.0273,4.082,4.3789,4.6953,4.9531,5.1523,5.2969,5.3633,5.4336,5.457,5.4062,0.0,5.62,0.0,0.0,0.0,5.6648,5.6032,5.5626,5.5472,5.5626,5.5626,5.5472,5.5626,5.5703,5.5703,5.5703,5.6609,5.8329,5.8296,5.9196,6.0781,6.0781,0.0,0.0,6.0973,6.1173,6.1431,6.1475,6.1562,6.1719,6.1719,6.1719,6.1719,0.0,0.0,0.0,0.0,0.0,2.9766,3.4023,3.4414,3.5664,3.9883,4.0117,3.9687,3.9062,3.8281,3.5898,3.1133,2.8906,0.0,0.0,0.0,0.0,0.0,0.0,0.0,0.0,0.0,2.8164,3.0508,2.9297,2.918,0.0,0.0,3.0312,3.0312,0.0,0.0,0.0,0.0,0.0,0.0,0.0,0.0,0.0,0.0,0.0,0.0,0.0,0.0,0.0,0.0,0.0,3.582,3.6055,3.7187,3.9023,4.2344,4.4375,4.5781,4.6914,4.7656,4.8203,4.8437,4.6992,4.5156,4.3633,4.2031,4.0234,3.8242,3.7539,3.7226,3.6953,3.7851,3.8789,3.9414,4.2617,4.5742,4.7851,5.0547,5.2422,5.2656,5.4023,5.4687,5.4062,5.5234,5.6719,0.0,0.0,0.0,5.7649,5.6686,5.6032,5.5703,5.5703,5.5703,5.5703,5.5703,5.5703,5.5703,5.5703,5.6609,5.8329,5.8296,5.9196,6.0781,0.0,0.0,0.0,6.1059,6.1237,6.1484,6.1523,6.1601,6.1719,6.1719,6.1719,6.1719,0.0,0.0,0.0,0.0,0.0,0.0,3.4023,3.543,3.6601,3.8398,3.9375,3.9883,3.9883,3.7578,3.5312,3.3516,3.1055,0.0,0.0,0.0,0.0,0.0,0.0,0.0,0.0,0.0,2.7851,2.9609,2.9609,2.9101,2.8281,3.0781,3.1016,2.9375,0.0,0.0,0.0,0.0,0.0,0.0,0.0,0.0,2.5703,0.0,0.0,0.0,0.0,0.0,0.0,0.0,0.0,0.0,0.0,3.4023,3.5742,4.0898,4.3047,4.4101,4.5859,4.6328,4.6523,4.7383,4.5664,4.3516,4.2617,4.1133,3.918,3.6562,3.6719,3.7031,3.6172,3.7422,3.8594,3.8594,4.2226,4.5312,4.6211,4.9258,5.1719,5.2617,5.3476,5.4023,5.3984,5.6367,0.0,0.0,0.0,0.0,5.8558,5.7665,5.6746,5.5742,5.5703,5.5703,5.5703,5.5703,5.5703,5.5703,5.5703,5.6609,5.8329,5.8296,5.9196,0.0,0.0,0.0,0.0,6.1212,6.1367,6.1523,6.164,6.1719,6.1719,6.1719,6.1719,6.1719,0.0,0.0,0.0,0.0,0.0,0.0,0.0,3.2734,3.3359,3.5625,3.5664,3.6133,3.793,3.6328,3.4414,3.2734,3.0742,0.0,0.0,0.0,0.0,0.0,0.0,0.0,0.0,0.0,2.8437,3.1367,3.0078,3.0234,3.168,3.1855,3.1909,3.1816,3.183,3.1338,0.0,0.0,0.0,0.0,0.0,2.5898,2.5703,0.0,0.0,0.0,0.0,0.0,0.0,0.0,0.0,0.0,0.0,0.0,0.0,3.8789,4.043,4.1601,4.3906,4.4961,4.5195,4.4258,4.3437,4.2266,4.0273,3.8945,3.7734,3.6289,3.6211,3.6328,3.6055,3.7422,3.8789,3.9375,4.2578,4.5312,4.6172,4.9258,5.1289,5.1016,5.2773,5.3984,0.0,0.0,0.0,0.0,0.0,0.0,5.8796,5.8341,5.7324,5.5742,5.5703,5.5703,5.5703,5.5703,5.5703,5.5703,5.5703,5.6609,5.8329,5.8296,0.0,0.0,0.0,0.0,0.0,6.1374,6.1523,6.164,6.168,6.1719,6.1719,6.1719,6.1719,6.1719,0.0,0.0,0.0,0.0,0.0,0.0,0.0,3.1328,3.1953,3.3555,3.3555,3.4258,3.6562,3.5234,3.3672,3.2305,3.0625,0.0,0.0,0.0,0.0,0.0,0.0,0.0,0.0,2.8398,2.9844,3.2617,3.1758,3.2176,3.3662,3.3421,3.3186,3.2966,3.2788,3.1852,0.0,0.0,0.0,0.0,2.527,2.5352,2.5664,0.0,0.0,0.0,0.0,0.0,0.0,0.0,0.0,0.0,0.0,0.0,0.0,0.0,3.8242,3.9062,4.1953,4.3164,4.332,4.2226,4.1445,4.0547,3.8945,3.7656,3.6641,3.6094,3.6016,3.6094,3.6445,3.7656,3.8984,4.0195,4.2969,4.5195,4.5742,4.9023,5.1445,5.1601,5.332,0.0,0.0,5.6562,0.0,0.0,0.0,0.0,5.8517,5.8587,5.7807,5.5955,5.578,5.5703,5.5703,5.5703,5.5703,5.5703,5.5703,5.6609,5.8329,5.8296,0.0,0.0,0.0,0.0,0.0,6.1456,6.1562,6.1719,6.1719,6.1719,6.1719,6.1719,6.1719,6.1719,0.0,0.0,0.0,0.0,0.0,0.0,0.0,3.0898,3.1914,3.1914,3.2578,3.3672,3.5351,3.4023,3.2734,3.1992,0.0,0.0,0.0,0.0,0.0,0.0,0.0,0.0,0.0,3.0078,3.1719,3.3398,3.4178,3.4559,3.4491,3.5378,3.4826,3.3196,3.3953,3.2827,3.0083,0.0,0.0,0.0,2.4723,2.4921,0.0,0.0,0.0,0.0,0.0,0.0,0.0,0.0,0.0,0.0,0.0,0.0,0.0,0.0,0.0,0.0,0.0,4.0937,4.1016,4.0937,3.9726,3.8476,3.8437,3.7148,0.0,3.6016,3.6055,3.6328,3.707,3.8086,3.9336,4.1016,4.3437,4.5156,4.5273,4.875,5.1992,5.3789,5.4726,0.0,5.539,0.0,0.0,0.0,0.0,0.0,5.7812,5.8467,5.8084,5.6263,5.5895,5.5742,5.5703,5.5742,5.5703,5.5703,5.5703,5.6609,5.8329,5.8296,0.0,0.0,0.0,0.0,0.0,6.1523,6.1601,6.1719,6.1719,6.1719,6.1719,6.1719,6.1719,6.1719,0.0,0.0,0.0,0.0,0.0,0.0,0.0,0.0,0.0,0.0,2.9375,2.9922,3.0976,3.0156,2.9414,0.0,0.0,0.0,0.0,0.0,0.0,0.0,0.0,0.0,0.0,3.0586,3.1914,3.4297,3.4342,3.5046,3.6305,3.7098,3.6843,3.5776,3.5378,3.3031,2.9273,2.72,0.0,0.0,2.5221,2.5347,0.0,0.0,0.0,0.0,2.6914,2.8164,0.0,0.0,0.0,0.0,0.0,0.0,0.0,0.0,3.6172,3.6172,3.6992,0.0,3.9062,3.8398,3.7891,3.7422,0.0,3.6289,3.6016,3.6016,3.6523,3.6836,3.6406,3.8633,4.0937,4.1953,4.4297,4.6445,4.7812,4.9414,5.1367,5.3711,5.418,5.4844,5.6172,0.0,0.0,0.0,0.0,5.9023,5.789,5.8538,5.814,5.64,5.6186,5.6032,5.5857,5.6032,5.5955,5.5703,5.578,5.6708,5.8329,5.8412,0.0,0.0,0.0,0.0,6.1523,6.1601,6.168,6.1719,6.1719,6.1719,6.1719,6.1719,6.1719,6.1719,0.0,0.0,0.0,0.0,0.0,0.0,0.0,0.0,0.0,0.0,0.0,0.0,0.0,0.0,0.0,0.0,0.0,0.0,0.0,0.0,0.0,0.0,0.0,0.0,3.1445,3.2539,3.374,3.5109,3.6134,3.691,3.7417,3.7786,3.7531,3.6594,3.4208,3.1891,2.9506,2.6651,2.5418,2.5301,2.4976,0.0,0.0,0.0,0.0,0.0,2.668,2.7851,0.0,3.0391,3.1406,3.2461,0.0,0.0,0.0,0.0,3.6016,3.6016,3.6016,3.668,3.7305,3.6836,3.6992,3.7187,3.6719,3.6914,3.7187,3.7187,3.7891,3.8476,3.8398,4.0547,4.2617,4.3476,4.5781,4.8242,5.0351,5.1055,5.1992,5.3789,5.4726,5.539,0.0,0.0,0.0,0.0,0.0,5.8633,5.7383,5.8398,5.8258,5.6558,5.643,5.6275,5.6041,5.6152,5.6114,5.5913,5.598,5.6708,5.7884,5.8373,5.9341,0.0,0.0,0.0,6.1601,6.168,6.1719,6.1719,6.1719,6.1719,6.1719,6.1719,6.1719,6.1717,0.0,0.0,0.0,0.0,0.0,0.0,0.0,0.0,0.0,0.0,0.0,0.0,0.0,0.0,0.0,0.0,0.0,0.0,0.0,0.0,0.0,0.0,0.0,3.1016,3.2734,3.4922,3.62,3.6472,3.8697,3.9413,3.877,3.877,3.8101,3.6727,3.2603,3.0662,3.0134,2.6294,2.4908,2.5264,2.463,0.0,0.0,0.0,0.0,0.0,0.0,0.0,0.0,3.1055,3.207,3.2773,3.5078,0.0,0.0,0.0,0.0,0.0,3.6172,3.6289,3.6328,3.6055,3.6562,3.7148,3.7266,3.7969,3.8633,3.8789,3.9492,4.0312,4.1055,4.2578,4.4023,4.5039,4.75,5.0,5.2031,5.2539,5.3086,5.4062,5.5508,0.0,0.0,0.0,0.0,0.0,0.0,5.8281,5.668,5.8125,5.8242,5.664,5.6601,5.6484,5.625,5.6251,5.6251,5.6211,5.62,5.6616,5.7446,5.8317,5.9257,0.0,0.0,0.0,6.1719,6.1719,6.1719,6.1719,6.1719,6.1719,6.1719,6.1719,6.1719,6.1709,0.0,0.0,0.0,0.0,0.0,0.0,0.0,0.0,0.0,0.0,0.0,0.0,0.0,0.0,0.0,0.0,0.0,0.0,0.0,0.0,0.0,0.0,0.0,0.0,3.5391,3.6367,3.7864,4.0,4.0974,4.1745,4.2341,4.2341,4.0708,3.7665,3.4107,3.1737,3.025,2.8193,2.6535,2.5303,2.5187,0.0,0.0,0.0,0.0,0.0,0.0,0.0,0.0,2.9844,3.1445,3.3398,3.4531,0.0,0.0,0.0,0.0,0.0,3.6914,3.7656,3.7851,3.6367,3.6094,3.6406,3.7148,3.7969,3.8828,3.9531,4.0391,4.1055,4.1172,4.2578,4.4219,4.5859,4.8867,5.0898,5.0625,5.1797,5.3281,5.4922,0.0,0.0,0.0,0.0,0.0,0.0,0.0,5.7656,5.664,5.7539,5.7656,5.664,5.6601,5.6562,5.6523,5.6554,5.6437,5.6211,5.6319,5.6738,5.7441,5.8414,5.9366,0.0,0.0,6.168,6.1719,6.1719,6.1719,6.1719,6.1719,6.1719,6.1719,6.1719,6.1719,6.167,0.0,0.0,0.0,0.0,0.0,0.0,0.0,0.0,0.0,0.0,0.0,0.0,0.0,0.0,0.0,0.0,0.0,0.0,0.0,0.0,0.0,0.0,0.0,0.0,0.0,3.7539,3.8906,4.0104,4.2168,4.3129,4.3077,4.1684,3.9692,3.7165,3.4236,3.1981,3.0302,2.8625,2.6892,2.5303,0.0,0.0,0.0,0.0,0.0,0.0,0.0,0.0,0.0,0.0,3.1406,3.3047,3.4844,0.0,0.0,0.0,0.0,0.0,3.6484,3.6875,3.7226,3.7383,3.8437,3.957,3.9961,4.0742,4.1484,4.1875,4.2656,4.3398,4.3867,4.4609,4.5664,4.7422,4.9414,5.1094,5.2109,5.332,5.457,0.0,0.0,0.0,0.0,0.0,0.0,0.0,0.0,0.0,5.7305,5.7695,5.7734,5.7305,5.6836,5.6601,5.6601,5.6601,5.6523,5.6406,5.6484,5.668,5.6992,5.793,5.8594,5.9023,0.0,6.1015,6.1015,6.1523,6.1719,6.1719,6.1719,6.1719,6.168,6.1601,6.1601,6.156,0.0,0.0,0.0,0.0,0.0,0.0,0.0,0.0,0.0,0.0,0.0,0.0,0.0,0.0,0.0,0.0,0.0,0.0,0.0,0.0,0.0,0.0,0.0,0.0,0.0,3.9083,4.0477,4.1259,4.4096,4.4883,4.3637,4.0866,3.8661,3.6934,3.4749,3.2516,3.0303,2.9028,2.7248,2.5303,0.0,0.0,0.0,0.0,0.0,0.0,0.0,0.0,0.0,0.0,0.0,0.0,0.0,0.0,0.0,3.6016,3.6133,3.6289,3.6289,3.6758,3.7578,3.9101,4.0508,4.1719,4.2539,4.3398,4.4101,4.4531,4.5156,4.5898,4.6758,4.707,4.7695,4.9258,5.0234,5.1523,5.3711,5.4726,5.5508,5.6211,0.0,0.0,0.0,0.0,0.0,0.0,0.0,0.0,5.7617,5.7617,5.7617,5.7617,5.6953,5.6601,5.6601,5.6601,5.6601,5.6601,5.6601,5.6601,5.664,5.75,5.789,5.7969,5.9453,6.0234,6.0469,6.1133,6.1523,6.1719,6.168,6.164,6.1601,6.1484,6.1436,6.1392,0.0,0.0,0.0,0.0,0.0,0.0,0.0,0.0,0.0,0.0,0.0,0.0,0.0,0.0,0.0,0.0,0.0,0.0,0.0,0.0,0.0,0.0,0.0,0.0,0.0,4.1468,4.3393,4.6467,4.8183,4.778,4.5337,4.197,3.9538,3.7872,3.6881,3.4183,3.0379,3.0254,2.8319,2.5303,2.5303,0.0,0.0,0.0,0.0,0.0,0.0,0.0,0.0,0.0,0.0,0.0,0.0,0.0,3.6016,3.6016,3.6562,3.7226,3.7226,3.8984,4.1055,4.1914,4.0508,3.9687,4.2891,4.4297,4.5351,4.6992,4.7383,4.7695,4.8555,4.9375,5.0195,5.1094,5.1953,5.2851,5.3867,0.0,5.5195,0.0,0.0,0.0,0.0,0.0,0.0,0.0,0.0,0.0,5.668,5.668,5.668,5.668,5.664,5.6601,5.6601,5.6601,5.6601,5.6601,5.6601,5.6601,5.664,5.75,5.789,5.7969,5.8867,5.9726,6.039,6.0469,6.0976,6.168,6.1562,6.1445,6.1328,6.1328,6.1305,6.1263,0.0,0.0,0.0,0.0,0.0,0.0,0.0,0.0,0.0,0.0,0.0,0.0,0.0,0.0,0.0,0.0,0.0,0.0,0.0,0.0,0.0,0.0,0.0,3.6921,4.0798,4.2202,4.4246,4.6992,4.7549,4.7068,4.5533,4.2079,3.9623,3.7954,3.7098,3.4941,3.1941,3.1433,2.9545,2.6853,2.6333,2.5784,0.0,0.0,0.0,0.0,0.0,0.0,0.0,0.0,3.0156,3.168,3.375,3.5117,3.6016,3.6016,3.6601,3.7422,3.7969,3.9219,4.0859,4.2734,4.2891,4.3047,4.4883,4.5976,4.6797,4.7461,4.8047,4.8516,4.8828,5.0039,5.1055,5.1367,5.2148,5.3203,5.4609,5.4968,0.0,0.0,0.0,0.0,0.0,0.0,0.0,0.0,0.0,0.0,0.0,5.7422,0.0,5.7422,5.7422,5.7148,5.6601,5.6601,5.6601,5.6601,5.6601,5.6601,5.6601,5.6953,5.7109,5.7148,5.8008,5.8555,5.8906,5.9883,6.0469,6.0819,6.1206,6.1352,6.1274,6.1158,6.1116,6.1112,0.0,0.0,0.0,0.0,0.0,0.0,0.0,0.0,0.0,0.0,0.0,0.0,0.0,0.0,0.0,0.0,0.0,0.0,0.0,0.0,0.0,0.0,0.0,3.6801,4.0668,4.2453,4.4379,4.657,4.6225,4.5627,4.4755,4.1578,3.9531,3.837,0.0,0.0,3.2851,3.2324,3.0458,2.7834,2.7238,2.6497,0.0,0.0,0.0,0.0,0.0,0.0,0.0,0.0,2.9365,3.0742,3.3086,3.4609,3.5664,3.625,3.6992,3.7851,3.875,4.0039,4.1484,4.3242,4.4766,4.5976,4.6562,4.7617,4.8476,4.875,4.9492,5.0195,5.0469,5.1445,5.2305,5.2578,5.3125,5.4023,5.5469,0.0,0.0,0.0,0.0,0.0,0.0,0.0,0.0,0.0,0.0,0.0,0.0,5.7656,0.0,0.0,5.8125,5.789,5.7031,5.6992,5.6875,5.6601,5.6601,5.6601,5.6601,5.6601,5.6601,5.664,5.7226,5.7617,5.7929,5.8973,5.9669,6.0114,6.0616,6.0935,6.1151,6.0973,6.0935,6.0896,0.0,0.0,0.0,0.0,0.0,0.0,0.0,0.0,0.0,0.0,0.0,0.0,0.0,0.0,0.0,0.0,0.0,0.0,2.9453,2.9609,3.1094,3.4453,3.543,3.7405,4.0577,4.2309,4.3987,4.563,4.471,4.3883,4.3011,4.0469,0.0,0.0,0.0,0.0,0.0,0.0,0.0,2.7927,2.7922,2.7364,2.6497,0.0,0.0,0.0,0.0,0.0,0.0,0.0,2.9385,3.0039,3.3555,3.4648,3.4961,3.6758,3.7812,3.8633,3.9648,4.1758,4.3633,4.3711,4.5703,4.7617,4.7617,4.8945,5.043,5.125,5.2109,5.2969,5.3828,5.3984,5.4297,5.5156,5.5312,5.5547,5.6289,0.0,0.0,0.0,0.0,0.0,0.0,0.0,0.0,0.0,0.0,0.0,0.0,0.0,0.0,0.0,5.8672,5.8789,5.793,5.789,5.7461,5.6601,5.6601,5.6601,5.6601,5.6601,5.6601,5.6601,5.6601,5.6992,5.7692,5.7688,5.8519,5.9796,5.9796,6.0181,6.0781,6.0781,6.0781,6.0781,0.0,0.0,0.0,0.0,0.0,0.0,0.0,0.0,0.0,0.0,0.0,0.0,0.0,0.0,0.0,0.0,0.0,0.0,3.0312,3.043,3.1926,3.5369,3.5621,3.6411,3.8001,3.9615,4.2441,4.6491,4.5026,4.358,4.2133,0.0,0.0,3.7445,0.0,0.0,0.0,0.0,0.0,3.0471,2.924,2.7901,2.6574,0.0,0.0,0.0,0.0,0.0,0.0,0.0,0.0,0.0,3.2201,3.4159,3.582,3.6953,3.875,4.058,4.1401,4.3557,4.5664,4.6289,4.7969,4.9414,4.9414,4.9844,5.0586,5.2031,5.2539,5.2969,5.3828,5.3984,5.4258,5.5039,5.5234,5.5508,0.0,0.0,0.0,0.0,0.0,0.0,0.0,0.0,0.0,0.0,0.0,0.0,0.0,0.0,0.0,0.0,5.8359,5.8711,5.8476,5.8476,5.832,5.8086,5.8086,5.7578,5.6601,5.6484,5.6445,5.6445,5.6367,5.6425,5.6668,5.7158,5.7879,5.8787,5.9396,5.9719,5.995,6.0589,6.0781,6.0781,0.0,0.0,0.0,0.0,0.0,0.0,0.0,0.0,2.5703,2.5703,2.5703,2.5703,0.0,0.0,0.0,2.5703,2.5703,0.0,3.0195,3.0583,3.2097,3.5238,3.5545,3.6136,3.7319,3.8631,4.0954,4.436,4.2996,4.1786,0.0,0.0,0.0,3.7718,0.0,0.0,0.0,0.0,0.0,3.2071,3.0674,2.9313,2.8027,0.0,0.0,0.0,0.0,0.0,0.0,0.0,0.0,0.0,3.1966,3.3704,3.5351,3.7617,3.9336,4.0933,4.2829,4.4714,4.6406,4.7305,4.8867,5.0351,5.1055,5.1172,5.168,5.3398,5.3711,5.3984,5.4883,5.5039,0.0,5.5547,5.5699,0.0,0.0,0.0,0.0,0.0,0.0,0.0,0.0,0.0,0.0,0.0,0.0,0.0,0.0,0.0,0.0,0.0,5.8724,5.9221,5.9221,5.9221,5.9026,5.8715,5.8715,5.8247,5.742,5.7009,5.6628,5.6308,5.6152,5.6071,5.6109,5.6456,5.7054,5.7884,5.8688,5.9242,5.9604,6.0473,6.0781,6.0781,0.0,0.0,0.0,0.0,0.0,0.0,0.0,2.625,2.5703,2.5703,2.5703,2.5703,0.0,0.0,0.0,2.5703,2.5781,2.6875,2.9414,3.0294,3.1851,3.4466,3.5224,3.629,3.7756,3.8554,3.9378,4.0254,3.9615,3.9246,0.0,0.0,3.8387,0.0,0.0,3.7359,0.0,0.0,0.0,3.2952,3.2081,3.1121,3.0098,2.8587,0.0,0.0,0.0,0.0,0.0,0.0,0.0,0.0,3.2578,3.3398,3.4219,3.8281,3.9608,4.0462,4.3626,4.5268,4.6324,4.7265,4.8984,5.082,5.2461,5.2851,5.3359,5.4961,5.5273,5.5547,5.6406,5.6562,5.6523,5.6367,0.0,0.0,0.0,0.0,0.0,0.0,0.0,0.0,0.0,0.0,0.0,0.0,0.0,0.0,0.0,0.0,0.0,5.8329,5.9342,5.9873,5.995,6.0027,5.9681,0.0,5.8889,5.885,5.8735,5.7879,5.7093,5.6379,5.6109,5.5994,5.5994,5.578,5.6186,5.6977,5.7846,5.8688,5.9504,6.0358,6.0742,6.0781,0.0,0.0,0.0,0.0,0.0,0.0,2.6992,2.625,2.5703,2.5703,2.5703,2.5703,2.5703,2.5703,0.0,2.5703,2.6328,2.7539,2.9453,3.0294,3.1837,3.4428,3.5147,3.5699,3.6021,3.6213,3.7049,3.8554,3.9061,3.8969,0.0,0.0,0.0,0.0,0.0,3.6266,0.0,0.0,0.0,3.3786,3.2314,3.0764,2.9346,2.8986,2.789,0.0,0.0,0.0,0.0,0.0,0.0,0.0,3.2578,3.3867,3.4844,3.7148,3.9656,4.1879,4.2626,4.4833,4.7167,4.8035,5.0156,5.2305,5.3476,5.418,5.4687,5.5078,5.5156,5.539,5.6133,5.6289,5.6211,0.0,0.0,0.0,0.0,0.0,0.0,0.0,0.0,0.0,0.0,0.0,0.0,0.0,0.0,0.0,0.0,0.0,0.0,5.7285,5.8181,5.8965,5.9604,6.0296,6.055,0.0,6.0358,5.9988,5.9311,5.8594,5.8115,5.7807,5.7093,5.6785,5.6708,5.5994,5.5818,5.6071,5.6939,5.778,5.8635,5.9465,6.0219,6.0781,0.0,0.0,0.0,0.0,0.0,0.0,0.0,0.0,2.6172,2.5742,2.5703,2.5703,2.5703,2.5703,0.0,0.0,2.6484,2.7578,2.8906,3.0048,3.1641,3.3684,3.4183,3.4351,3.4274,3.4672,3.5507,3.6804,3.7271,3.767,0.0,0.0,0.0,0.0,0.0,3.6688,0.0,0.0,0.0,0.0,0.0,3.1519,3.0305,2.9863,2.8912,2.7813,2.789,0.0,0.0,0.0,0.0,0.0,0.0,0.0,3.4492,3.6601,3.8719,4.0781,4.2291,4.432,4.6491,4.866,5.1206,5.3242,5.3789,5.4844,5.5696,5.552,5.554,5.5745,5.6135,5.6212,5.6135,0.0,0.0,0.0,0.0,0.0,0.0,0.0,0.0,0.0,0.0,0.0,0.0,0.0,0.0,0.0,0.0,5.5703,5.6109,5.6977,5.7841,5.8704,5.9465,6.0358,6.0781,6.0781,6.0781,6.055,6.0065,5.8934,5.8357,5.828,5.7819,5.761,5.7576,5.7131,5.6708,5.6417,5.7285,5.7649,5.7835,5.9065,5.9796,6.0219,0.0,0.0,0.0,0.0,0.0,0.0,0.0,0.0,0.0,2.5781,2.5703,2.5703,2.5703,2.5703,2.5742,0.0,0.0,0.0,2.8437,3.0,3.1484,3.2739,3.3045,3.3108,3.2903,3.3736,3.4647,3.5493,3.5499,0.0,0.0,0.0,0.0,0.0,0.0,0.0,0.0,0.0,0.0,0.0,0.0,0.0,0.0,0.0,0.0,2.9509,2.9113,2.9267,2.9666,2.978,0.0,0.0,0.0,0.0,3.3633,3.6016,3.741,3.8815,4.1788,4.3785,4.5781,4.8914,5.1609,5.3555,5.3711,5.4993,5.6081,5.5924,5.6032,5.6148,5.6109,5.6109,0.0,0.0,0.0,0.0,0.0,0.0,0.0,0.0,0.0,0.0,0.0,0.0,0.0,0.0,0.0,0.0,5.5703,5.5703,5.6032,5.6746,5.7769,5.8633,5.9273,6.0319,6.0781,6.0781,6.0781,6.0781,6.0742,5.935,5.8711,5.8711,5.8558,5.8489,5.8501,5.8385,5.7863,5.7302,5.8038,5.7846,5.7401,5.8934,5.9488,5.9642,0.0,0.0,0.0,0.0,0.0,0.0,0.0,0.0,0.0,0.0,2.5703,2.5703,2.5703,2.5703,2.6016,2.6758,2.7617,2.8476,2.9297,0.0,0.0,3.202,3.2663,3.3017,3.2979,3.3774,3.4635,3.5493,3.5493,0.0,0.0,0.0,0.0,0.0,0.0,0.0,0.0,0.0,0.0,0.0,0.0,0.0,0.0,0.0,0.0,0.0,3.2875,3.2528,3.1465,3.1543,3.1182,0.0,0.0,0.0,3.2695,3.4492,3.6091,3.7717,3.9629,4.333,4.6993,4.8222,5.0432,5.2578,5.3437,5.4315,5.5094,0.0,5.5895,5.5895,5.578,0.0,0.0,0.0,0.0,0.0,0.0,0.0,0.0,0.0,0.0,0.0,0.0,0.0,0.0,0.0,0.0,0.0,5.5703,5.5703,5.5742,5.5857,5.7461,5.8363,5.8443,6.0027,6.0781,6.0781,6.0781,6.0781,6.0781,6.0589,6.0473,6.0435,5.9681,5.9335,5.9296,5.8581,5.8235,5.8158,5.8248,5.8252,5.8252,5.9177,5.9518,5.9642,0.0,0.0,0.0,0.0,0.0,0.0,0.0,0.0,0.0,0.0,0.0,2.5703,2.5703,2.5703,2.6055,2.6914,2.7812,2.8815,3.0095,3.0827,3.1178,3.1133,3.1448,3.1584,3.1542,3.2362,3.3224,3.403,3.4543,0.0,0.0,3.7108,3.6724,0.0,0.0,0.0,0.0,0.0,0.0,0.0,0.0,0.0,0.0,0.0,0.0,0.0,0.0,3.4148,3.3083,3.2659,3.1968,3.1328,3.1367,0.0,0.0,0.0,3.4805,3.6637,4.0643,4.3944,4.6819,4.9183,5.0937,5.2219,5.2658,5.3785,5.4797,5.5066,5.5472,5.578,0.0,0.0,0.0,0.0,0.0,0.0,0.0,0.0,0.0,0.0,0.0,0.0,0.0,0.0,0.0,0.0,0.0,5.5703,5.5703,5.5703,5.5895,5.6417,5.7653,5.8402,5.8558,5.9796,6.0258,6.0027,6.0027,6.0027,6.0027,6.0027,6.0142,6.0396,6.0258,6.0065,5.9835,5.9758,5.9388,5.8965,5.8973,5.8704,5.8319,5.8693,5.9095,5.9565,0.0,0.0,0.0,0.0,0.0,0.0,0.0,0.0,0.0,0.0,0.0,2.5703,2.5703,0.0,0.0,0.0,2.8086,2.9196,3.0582,3.0662,3.0616,3.0512,3.0515,3.0469,3.0429,3.1261,3.2006,3.2647,0.0,0.0,3.8001,3.7356,3.7264,0.0,3.6367,0.0,0.0,0.0,0.0,0.0,0.0,0.0,0.0,0.0,0.0,0.0,0.0,0.0,3.5004,3.3994,3.3114,3.2277,3.1298,3.1436,0.0,0.0,0.0,3.6328,4.1055,4.3683,4.5858,4.8818,5.0356,5.1222,5.1665,5.2915,5.4028,0.0,5.4836,5.5395,0.0,0.0,0.0,0.0,0.0,0.0,0.0,0.0,0.0,0.0,0.0,0.0,0.0,0.0,0.0,0.0,0.0,5.5703,5.5703,5.5703,5.6109,5.6977,5.7747,5.8319,5.8788,5.9519,5.9731,5.9426,5.9426,5.9426,5.9426,5.9426,5.954,5.9769,6.037,6.0365,5.995,6.055,6.0358,5.9681,5.9796,5.9311,5.8619,5.8842,5.9326,5.9819,0.0,0.0,0.0,0.0,0.0,0.0,0.0,0.0,0.0,0.0,0.0,2.5703,2.5703,2.6445,2.7266,2.8086,2.8945,2.9726,3.0468,3.0506,3.0518,3.0513,3.0513,0.0,3.0583,3.1338,3.1773,0.0,0.0,0.0,3.8078,3.7983,3.8788,4.0215,3.7714,3.7088,3.7833,0.0,0.0,0.0,0.0,0.0,0.0,0.0,0.0,0.0,0.0,0.0,3.7563,3.5993,3.4879,3.3909,3.2331,3.187,3.1914,0.0,0.0,0.0,3.918,4.1568,4.3925,4.5457,4.7223,4.8875,5.0433,5.1414,5.2299,5.3102,5.3968,0.0,0.0,0.0,0.0,0.0,0.0,0.0,0.0,0.0,0.0,0.0,0.0,0.0,0.0,0.0,0.0,0.0,0.0,5.5703,5.5703,5.5703,5.6109,5.6977,5.7389,5.802,5.8788,5.9215,5.9419,5.9382,5.9382,5.9382,5.9382,5.9382,5.9198,5.8821,5.9723,5.9889,5.9504,6.0435,6.0512,6.0104,6.055,6.0181,5.9542,6.0358,6.0696,6.0723,0.0,0.0,0.0,0.0,0.0,0.0,0.0,0.0,0.0,0.0,0.0,0.0,0.0,2.793,2.8071,2.8837,2.9683,3.0273,3.0506,2.9988,0.0,2.9586,2.9113,2.9113,2.9713,2.9913,0.0,0.0,0.0,3.4179,3.7203,3.7185,3.8091,3.9665,3.82,3.7409,3.7165,3.6825,0.0,0.0,0.0,0.0,0.0,0.0,0.0,0.0,0.0,0.0,3.9454,3.8339,3.7021,3.556,3.393,3.3439,3.3456,3.3534,3.4796,3.6752,3.9513,4.0951,4.2433,4.5646,4.7301,4.8451,4.9606,5.0914,5.2011,5.2279,5.3512,0.0,0.0,0.0,0.0,0.0,0.0,0.0,0.0,0.0,0.0,0.0,0.0,0.0,0.0,0.0,0.0,0.0,0.0,0.0,5.6494,5.6263,5.6746,5.8115,5.7989,5.8158,5.8728,5.8554,5.8483,5.8483,5.8483,5.8483,5.8483,5.8483,5.841,5.83,5.8897,5.914,5.901,5.9643,5.9804,5.9719,6.0181,5.9988,5.9427,5.9504,5.9858,6.0342,0.0,0.0,0.0,2.8203,0.0,2.875,2.875,2.8984,0.0,0.0,0.0,0.0,0.0,0.0,2.9635,3.0106,3.0379,3.0506,3.0467,2.9663,2.9164,2.9083,2.833,2.8176,2.8775,0.0,0.0,0.0,0.0,0.0,0.0,0.0,3.7223,3.8827,3.7924,3.7406,0.0,0.0,0.0,3.7348,0.0,0.0,4.1984,0.0,0.0,0.0,0.0,0.0,0.0,0.0,3.9976,3.8824,0.0,0.0,0.0,0.0,0.0,0.0,3.8994,3.9831,4.0717,4.4299,4.603,4.7104,4.7953,4.9644,5.1068,5.1068,5.2416,0.0,0.0,0.0,0.0,0.0,0.0,0.0,0.0,0.0,0.0,0.0,0.0,0.0,0.0,0.0,0.0,0.0,0.0,0.0,5.7362,5.6973,5.7249,5.831,5.8304,5.8349,5.8492,5.8143,5.7997,5.7997,5.7997,5.7997,5.7997,5.7997,5.7997,5.7997,5.8336,5.849,5.8483,5.9144,5.9278,5.9216,5.9665,5.9654,5.9379,5.9092,5.9551,6.0327,0.0,2.7773,2.8359,2.8398,2.9101,2.9687,2.9726,3.043,3.0937,0.0,0.0,0.0,0.0,0.0,0.0,3.185,3.1018,3.0467,3.0379,2.9586,2.9083,2.9062,0.0,0.0,0.0,0.0,0.0,0.0,0.0,0.0,0.0,0.0,3.6286,0.0,3.7072,3.7156,3.7963,0.0,3.7963,3.8194,0.0,4.1801,4.2138,0.0,0.0,0.0,4.6065,4.6281,0.0,4.408,0.0,0.0,0.0,0.0,0.0,0.0,0.0,0.0,0.0,0.0,0.0,4.1232,4.3179,4.4705,4.5458,4.7588,4.9394,4.9394,5.0741,0.0,0.0,0.0,0.0,0.0,0.0,0.0,0.0,0.0,0.0,0.0,0.0,0.0,0.0,0.0,0.0,0.0,0.0,5.7401,5.8269,5.7905,5.7597,5.7409,5.8263,5.8447,5.7997,5.7997,5.7997,5.7997,5.7997,5.7997,5.7997,5.7997,5.7997,5.7997,5.7997,5.7997,5.807,5.9016,5.909,5.875,5.92,5.9365,5.9345,5.9387,5.9955,6.0722,2.875,2.9062,2.9648,3.0898,3.1328,3.168,3.2266,3.25,3.2834,0.0,0.0,0.0,0.0,0.0,0.0,3.2632,3.2362,3.1696,3.0467,2.9586,2.8841,2.827,2.7402,2.6969,0.0,0.0,0.0,0.0,0.0,0.0,0.0,0.0,0.0,0.0,3.629,3.6829,3.7049,3.7049,0.0,0.0,4.0524,4.2202,0.0,0.0,0.0,0.0,0.0,4.9144,4.7665,0.0,4.5624,4.3772,0.0,0.0,0.0,0.0,0.0,0.0,3.7488,0.0,0.0,0.0,0.0,0.0,4.6201,4.8007,4.9412,4.9413,5.0741,0.0,0.0,0.0,0.0,0.0,0.0,0.0,0.0,0.0,0.0,0.0,0.0,0.0,0.0,0.0,0.0,0.0,5.7588,5.8296,5.9127,5.9001,5.8545,5.785,5.807,5.8107,5.7997,5.7997,5.7997,5.7997,5.7997,5.7997,5.7997,5.7997,5.7997,5.7997,5.7997,5.7997,5.7997,5.83,5.83,5.8263,5.8713,5.8702,5.8452,5.8755,5.943,6.0194,2.9492,2.9883,3.0586,3.1953,3.2461,3.2969,3.3828,3.4186,3.4552,0.0,0.0,0.0,0.0,0.0,0.0,0.0,3.3108,3.2324,3.1018,3.0148,2.9264,2.845,2.7228,2.6612,2.6651,0.0,0.0,0.0,0.0,0.0,0.0,0.0,0.0,0.0,0.0,0.0,0.0,0.0,0.0,0.0,4.0044,0.0,0.0,4.6701,4.8874,0.0,0.0,0.0,4.9624,4.9298,4.7242,0.0,0.0,0.0,0.0,0.0,0.0,0.0,0.0,0.0,0.0,0.0,0.0,0.0,0.0,0.0,0.0,0.0,5.0202,0.0,0.0,0.0,0.0,0.0,0.0,0.0,0.0,0.0,0.0,0.0,0.0,0.0,0.0,0.0,0.0,5.7511,5.7851,5.8366,5.9119,5.9103,5.8787,5.7997,5.7997,5.7997,5.7997,5.7997,5.7997,5.7997,5.7997,5.7997,5.7997,5.7997,5.7997,5.7997,5.7997,5.7997,5.7997,5.7997,5.7997,5.8033,5.83,5.8263,5.8033,5.83,5.8713,5.9274,0.0,3.0351,3.1211,3.2187,3.3008,3.3828,3.4687,3.5523,3.5982,0.0,0.0,0.0,0.0,0.0,0.0,0.0,3.3878,3.2979,3.2184,3.121,3.0302,2.9433,2.7852,2.6882,2.6612,2.6025,0.0,0.0,0.0,0.0,0.0,0.0,0.0,0.0,3.34,3.4674,0.0,0.0,0.0,3.7456,3.9854,4.1415,0.0,0.0,4.9527,5.125,5.2137,5.2406,5.2158,5.1067,4.8625,0.0,0.0,0.0,0.0,0.0,3.8907,0.0,0.0,0.0,0.0,0.0,0.0,0.0,0.0,0.0,0.0,0.0,4.8971,0.0,0.0,0.0,0.0,0.0,0.0,0.0,0.0,0.0,0.0,0.0,0.0,0.0,0.0,5.578,5.6472,5.7981,5.7761,5.7774,5.8413,5.85,5.8336,5.7886,5.796,5.7997,5.7997,5.7997,5.7997,5.7997,5.7997,5.7997,5.7997,5.7997,5.7997,5.7997,5.7997,5.7997,5.7997,5.7997,5.7997,5.7997,5.7997,5.7997,5.7997,5.7997,5.8107,5.8437,3.0664,3.0781,3.1367,3.2891,3.3867,3.4726,3.5547,3.6309,3.6766,0.0,0.0,0.0,0.0,0.0,0.0,0.0,0.0,3.5611,3.4814,3.3275,3.2042,3.1222,3.021,2.8709,2.6651,2.7759,0.0,0.0,0.0,0.0,0.0,0.0,0.0,0.0,0.0,0.0,0.0,0.0,0.0,4.0924,4.2092,0.0,4.6219,4.9086,5.1682,5.3968,5.5472,5.5549,5.4528,5.1664,4.9797,4.8373,0.0,0.0,0.0,4.1316,0.0,0.0,0.0,0.0,0.0,0.0,0.0,0.0,0.0,4.4574,4.5074,0.0,4.632,4.6628,0.0,0.0,0.0,0.0,0.0,0.0,0.0,0.0,0.0,0.0,0.0,0.0,0.0,5.634,5.6763,5.678,5.6986,5.701,5.6747,5.7405,5.751,5.7061,5.7657,5.7997,5.7997,5.7997,5.7997,5.7997,5.7997,5.7997,5.7997,5.7997,5.7997,5.7997,5.7997,5.7997,5.7997,5.7997,5.7997,5.7997,5.7997,5.7997,5.7997,5.7997,5.8823,5.9992,3.0508,3.1289,3.2539,3.3828,3.4375,3.5071,3.6339,3.6781,3.6934,0.0,0.0,0.0,0.0,0.0,0.0,0.0,0.0,0.0,3.6181,3.5287,3.4045,3.2362,3.1492,3.0263,2.8514,2.8499,2.8078,0.0,0.0,0.0,0.0,0.0,0.0,0.0,0.0,0.0,0.0,0.0,4.1501,4.305,4.3088,0.0,4.7756,5.0317,5.2856,5.5259,5.6566,5.6451,5.5434,5.3741,5.1777,0.0,0.0,4.793,4.5834,0.0,4.2453,4.1501,0.0,0.0,0.0,4.0831,0.0,0.0,0.0,0.0,4.4075,4.5329,4.5582,4.5873,4.6737,0.0,0.0,0.0,0.0,0.0,0.0,0.0,0.0,0.0,0.0,0.0,0.0,5.4468,5.4661,5.507,5.6063,5.6434,5.5985,5.6735,5.7059,5.6795,5.7584,5.7997,5.7997,5.7997,5.7997,5.7997,5.7997,5.7997,5.7997,5.7997,5.7997,5.7997,5.7997,5.7997,5.7997,5.7997,5.7997,5.7997,5.7997,5.7997,5.7997,5.7997,5.875,5.9799,3.0586,3.1875,3.3672,3.4531,3.4798,3.5349,3.6935,3.7165,0.0,0.0,0.0,0.0,0.0,0.0,0.0,0.0,0.0,0.0,0.0,3.7609,3.6503,3.4443,3.3133,3.2083,3.1404,2.9571,2.8384,2.7893,0.0,0.0,0.0,0.0,0.0,0.0,0.0,0.0,0.0,0.0,0.0,4.4537,0.0,4.6124,4.9083,5.1472,5.3993,5.6319,5.7175,5.7021,5.6395,5.6049,5.4049,5.1799,5.2685,5.0721,0.0,0.0,0.0,0.0,0.0,0.0,0.0,0.0,0.0,4.2017,0.0,0.0,0.0,0.0,0.0,0.0,0.0,0.0,0.0,0.0,0.0,0.0,0.0,4.8123,0.0,0.0,0.0,0.0,0.0,5.2665,5.2862,5.3539,5.5165,5.5876,5.5165,5.6024,5.6565,5.6575,5.751,5.7997,5.7997,5.7997,5.7997,5.7997,5.7997,5.7997,5.7997,5.7997,5.7997,5.7997,5.7997,5.7997,5.7997,5.7997,5.7997,5.7997,5.7997,5.7997,5.7997,5.8189,5.875,5.9458,3.2422,3.2695,3.3672,3.4531,3.5295,3.6035,3.6895,3.7602,0.0,0.0,0.0,0.0,0.0,0.0,0.0,0.0,0.0,0.0,4.2495,0.0,3.9931,3.9638,3.6704,3.5005,3.4916,3.2519,3.0139,2.79,0.0,0.0,0.0,0.0,0.0,0.0,3.7594,0.0,0.0,0.0,4.5368,0.0,4.7799,4.9817,0.0,5.351,5.5801,5.8115,5.8912,5.9158,5.8835,0.0,5.6071,5.478,0.0,5.2241,5.1582,4.6954,0.0,0.0,0.0,0.0,0.0,0.0,4.1748,0.0,0.0,0.0,4.1062,4.2017,0.0,0.0,0.0,0.0,0.0,0.0,0.0,0.0,4.3605,4.5393,4.7274,0.0,0.0,0.0,0.0,0.0,5.4129,5.2858,5.4528,5.5054,5.3561,5.4901,5.5742,5.5706,5.7208,5.7997,5.7997,5.7997,5.7997,5.7997,5.7997,5.7997,5.7997,5.7997,5.7997,5.7997,5.7997,5.7997,5.7997,5.7997,5.7997,5.7997,5.7997,5.7997,5.807,5.8787,5.9578,6.0397,3.2031,3.332,3.5039,3.5391,3.5648,3.6213,3.7564,3.9182,0.0,0.0,0.0,0.0,0.0,0.0,0.0,0.0,0.0,4.6317,0.0,0.0,0.0,3.9915,3.8454,3.7241,3.6228,3.4211,3.2622,3.1569,3.0209,0.0,0.0,0.0,0.0,0.0,3.9438,0.0,4.1872,0.0,4.7653,0.0,0.0,0.0,0.0,5.51,5.6774,5.9088,5.9973,5.9911,5.9412,0.0,5.7566,0.0,0.0,0.0,0.0,4.9736,0.0,0.0,0.0,0.0,0.0,0.0,0.0,0.0,4.2479,0.0,4.1078,0.0,0.0,0.0,0.0,0.0,0.0,0.0,4.1446,0.0,0.0,0.0,4.4704,0.0,0.0,0.0,0.0,0.0,0.0,0.0,0.0,5.4717,5.259,5.4454,5.5588,5.5597,5.7171,5.7997,5.7997,5.7997,5.7997,5.7997,5.7997,5.7997,5.7997,5.7997,5.7997,5.7997,5.7997,5.7997,5.7997,5.7997,5.7997,5.8033,5.8483,5.841,5.807,5.8897,5.9696,6.0518,3.2539,0.0,3.5976,3.5976,3.5803,3.6367,3.8281,4.08,0.0,0.0,0.0,0.0,4.8971,4.9047,0.0,0.0,5.0238,4.9124,0.0,0.0,4.551,4.2217,4.0973,3.9862,3.8821,3.621,3.4672,3.4186,3.2756,0.0,0.0,0.0,0.0,0.0,0.0,4.2612,4.4154,0.0,0.0,5.0856,5.2779,5.507,5.7324,5.6906,5.8035,5.995,6.0589,6.0396,5.9873,5.9873,5.8889,0.0,5.7143,0.0,0.0,0.0,0.0,0.0,4.6509,0.0,0.0,0.0,0.0,0.0,0.0,0.0,0.0,0.0,0.0,0.0,0.0,0.0,0.0,0.0,0.0,3.9084,0.0,3.9446,0.0,0.0,0.0,0.0,0.0,0.0,0.0,0.0,0.0,0.0,5.2443,5.4007,5.514,5.5597,5.6942,5.7813,5.7997,5.7997,5.7997,5.7997,5.7997,5.7997,5.7997,5.7813,5.7694,5.7694,5.7694,5.7694,5.7694,5.7923,5.8107,5.8373,5.8934,5.8851,5.8454,5.9495,6.0199,6.0834,3.4922,3.5351,3.5976,3.5898,3.5803,3.6507,3.89,4.211,0.0,0.0,0.0,0.0,0.0,0.0,0.0,0.0,0.0,5.3563,5.183,0.0,5.0117,4.9118,4.517,4.332,0.0,3.9169,3.5844,3.4197,0.0,0.0,0.0,0.0,0.0,0.0,0.0,4.2305,4.3388,4.7588,4.9875,5.0933,5.3459,5.5983,5.8346,0.0,5.995,6.0742,6.0781,0.0,0.0,6.0742,6.0142,0.0,0.0,0.0,0.0,0.0,0.0,0.0,0.0,0.0,0.0,4.8164,0.0,0.0,0.0,0.0,4.2819,0.0,0.0,0.0,0.0,0.0,0.0,0.0,0.0,0.0,0.0,0.0,3.9692,0.0,0.0,0.0,0.0,0.0,0.0,0.0,0.0,0.0,5.3188,5.3225,5.3983,5.556,5.642,5.7208,5.7997,5.7997,5.7997,5.7997,5.7997,5.7997,5.7997,5.7244,5.6942,5.6942,5.6942,5.6942,5.6978,5.7694,5.8447,5.9164,5.92,5.9187,5.9383,6.094,6.1566,6.1665,0.0,0.0,3.6161,3.6612,3.6598,3.7353,3.972,4.2992,0.0,0.0,0.0,0.0,0.0,5.4143,5.4972,0.0,0.0,5.4556,5.2888,5.197,0.0,0.0,0.0,4.4607,0.0,0.0,0.0,0.0,0.0,0.0,0.0,0.0,0.0,0.0,0.0,4.3442,0.0,0.0,0.0,0.0,0.0,5.8204,5.9919,0.0,0.0,6.0781,6.0781,6.0781,0.0,6.0781,6.0589,6.0142,5.9042,5.9034,5.883,5.5429,5.522,0.0,0.0,0.0,5.1567,5.0162,0.0,0.0,0.0,0.0,0.0,0.0,0.0,0.0,0.0,0.0,0.0,0.0,0.0,0.0,0.0,0.0,0.0,0.0,0.0,0.0,0.0,0.0,0.0,0.0,0.0,0.0,0.0,5.2831,5.4002,5.4019,5.5806,5.6905,5.7208,5.773,5.773,5.7244,5.7244,5.6978,5.6456,5.6191,5.6088,5.615,5.615,5.6383,5.6868,5.7171,5.7694,5.8483,5.9029,5.92,5.932,6.042,6.0787,6.098,3.6172,0.0,3.6615,3.7051,3.806,0.0,0.0,0.0,0.0,0.0,5.1373,0.0,5.5665,0.0,5.6527,0.0,5.7297,5.6313,5.5511,5.4353,0.0,5.1718,4.9199,0.0,0.0,0.0,0.0,0.0,0.0,3.7469,0.0,0.0,0.0,0.0,0.0,4.3728,4.5764,0.0,5.1547,0.0,0.0,6.0096,0.0,0.0,6.118,6.1651,0.0,6.1266,6.1266,6.1266,6.105,6.0666,5.9758,5.9881,5.9848,5.7357,5.7225,5.7401,5.5154,5.4562,0.0,5.282,5.2184,0.0,5.0221,0.0,4.6454,0.0,0.0,0.0,0.0,0.0,0.0,0.0,0.0,0.0,0.0,3.3609,0.0,0.0,0.0,0.0,0.0,0.0,0.0,0.0,0.0,0.0,0.0,0.0,5.2794,5.2889,5.4906,5.6145,5.6456,5.7474,5.762,5.6905,5.6927,5.6492,5.5652,5.5437,5.5355,5.5281,5.5281,5.5695,5.6403,5.674,5.7509,5.8478,5.9023,5.9193,5.9229,6.0117,6.0413,6.0528,3.6289,0.0,0.0,0.0,4.0015,0.0,0.0,0.0,5.0064,0.0,5.4147,5.6417,5.8231,5.8373,5.9042,6.0666,5.9287,5.8676,5.9391,5.7923,0.0,0.0,5.3297,5.1567,5.0717,0.0,0.0,0.0,0.0,0.0,0.0,0.0,0.0,0.0,4.1053,0.0,4.5817,4.8394,5.1987,5.6319,6.0381,6.1612,6.1166,6.2732,0.0,6.3315,6.2444,6.2175,6.2175,6.2175,6.1612,6.0781,5.995,5.9681,5.9504,5.8711,5.9034,5.9276,5.7632,5.7143,5.6883,5.5989,0.0,0.0,0.0,0.0,4.9102,0.0,0.0,0.0,0.0,0.0,0.0,0.0,0.0,0.0,0.0,0.0,0.0,0.0,0.0,0.0,0.0,0.0,0.0,0.0,0.0,0.0,0.0,0.0,5.0611,5.2163,5.3763,5.4935,5.567,5.7171,5.751,5.6786,5.6806,5.6371,5.5553,5.4873,5.4567,5.4567,5.4601,5.4975,5.5758,5.6596,5.7814,5.9123,5.9123,5.9089,5.9123,5.9989,6.0375,6.0326,3.7969,3.9141,4.035,0.0,4.2538,4.4143,0.0,0.0,0.0,0.0,5.4528,5.6819,5.9842,5.9571,5.9624,6.0704,5.9819,0.0,0.0,0.0,0.0,5.669,5.422,5.2197,5.0758,4.7759,0.0,4.3088,0.0,0.0,3.8962,0.0,0.0,0.0,0.0,0.0,4.674,4.9298,5.3874,5.9588,6.0666,6.2127,0.0,0.0,6.4103,6.5037,6.3526,6.3002,6.2988,6.2983,6.2852,6.2598,6.2406,6.2329,6.2175,6.1381,6.1289,6.1174,6.0111,5.8912,5.7766,5.6883,5.6181,5.5591,0.0,0.0,0.0,0.0,0.0,0.0,0.0,0.0,0.0,0.0,0.0,0.0,0.0,0.0,0.0,3.2825,0.0,0.0,0.0,0.0,0.0,0.0,0.0,0.0,0.0,0.0,0.0,5.0563,5.3098,5.4349,5.4018,5.556,5.5935,5.5176,5.5183,5.4839,5.4059,5.3856,5.3788,5.3822,5.4364,5.4975,5.5758,5.6491,5.7364,5.8225,5.8225,5.8191,5.8332,5.9123,5.9423,5.9557,3.9726,0.0,0.0,4.3789,0.0,0.0,4.7969,0.0,0.0,5.5126,5.6896,0.0,6.1574,6.144,6.1376,6.1843,6.1112,0.0,5.9427,0.0,0.0,5.8088,5.6395,5.4797,5.3486,5.0602,0.0,4.531,0.0,0.0,3.98,0.0,0.0,0.0,0.0,4.4256,4.7699,5.2127,5.6634,6.0888,6.2012,0.0,0.0,6.4462,6.5064,6.5782,6.4795,6.4193,6.3886,6.3858,6.3614,6.3306,6.3306,6.3306,6.3205,6.2781,6.2627,6.2512,6.2026,6.095,5.9758,5.8896,5.8209,5.7516,5.6489,5.4962,5.3857,0.0,0.0,0.0,0.0,0.0,0.0,0.0,0.0,0.0,0.0,0.0,0.0,0.0,3.6733,0.0,0.0,0.0,0.0,0.0,0.0,0.0,0.0,0.0,0.0,4.9581,5.213,5.3401,5.2971,5.4788,5.5324,5.4591,5.4569,5.4228,5.3518,5.3822,5.3788,5.3551,5.4635,5.5315,5.5786,5.652,5.7229,5.7881,5.7881,5.7881,5.7915,5.84,5.8535,5.8676,0.0,0.0,0.0,0.0,0.0,0.0,0.0,5.2913,0.0,5.7923,0.0,6.1473,6.3253,6.3372,6.3347,6.3445,0.0,6.1766,6.1012,6.0142,5.9642,5.9504,5.8842,5.7978,5.7033,5.3877,5.1048,0.0,0.0,0.0,0.0,0.0,0.0,0.0,0.0,0.0,0.0,5.575,5.9493,0.0,6.3666,6.468,6.4872,6.5628,6.5897,6.5897,6.5897,6.5436,6.4757,6.4757,6.427,6.363,6.363,6.363,6.363,6.363,6.363,6.3591,6.3399,6.2796,6.1905,6.0856,5.9738,5.855,5.7417,5.6026,5.5148,5.572,5.285,5.0849,0.0,0.0,0.0,0.0,0.0,0.0,0.0,0.0,0.0,0.0,0.0,0.0,0.0,0.0,0.0,0.0,0.0,0.0,0.0,0.0,0.0,4.8862,5.107,0.0,5.2236,0.0,5.4975,5.4432,5.4432,5.4093,5.3518,5.4296,5.4262,5.3754,5.5179,5.5822,5.5889,5.6645,5.7296,5.7881,5.7881,5.7881,5.7881,5.7881,5.7881,5.7881,0.0,0.0,0.0,0.0,0.0,5.3146,5.5692,5.6829,5.762,5.8235,5.9763,6.1722,6.4103,6.3732,6.3617,6.4295,6.2998,0.0,0.0,0.0,0.0,5.9504,5.9373,5.8543,5.7036,5.5045,5.3144,0.0,0.0,0.0,0.0,0.0,0.0,0.0,0.0,0.0,5.3649,5.7597,0.0,6.2988,6.4141,6.5026,6.5705,6.582,6.5897,6.5897,6.5897,6.5782,6.5667,6.5667,6.559,6.5436,6.5436,6.5436,6.5436,6.5436,6.5436,6.518,6.4039,6.313,6.2016,6.0065,5.9373,5.896,5.8124,5.7687,5.7302,5.6823,5.5028,5.3486,5.3238,0.0,0.0,0.0,0.0,0.0,0.0,0.0,0.0,0.0,0.0,0.0,0.0,0.0,0.0,0.0,0.0,0.0,0.0,0.0,0.0,0.0,5.0249,0.0,0.0,0.0,5.318,5.372,5.372,5.3619,5.3518,5.4296,5.4531,5.4472,5.5962,5.6609,5.6679,5.7364,5.7814,5.7881,5.7881,5.7881,5.7881,5.7881,5.7881,5.7881,0.0,0.0,0.0,0.0,0.0,0.0,0.0,5.8604,0.0,6.0781,6.1593,6.2913,6.5026,6.491,6.4641,6.4603,6.3449,6.2551,6.2136,6.1304,6.0627,6.0181,6.0181,0.0,5.8327,5.6643,5.4759,5.2581,0.0,0.0,0.0,0.0,0.0,0.0,0.0,5.1626,0.0,0.0,0.0,6.3399,6.4424,6.5103,6.5474,6.5218,6.5103,6.5141,6.5397,6.5513,6.5551,6.582,6.5897,6.5897,6.5897,6.5897,6.5897,6.5897,6.5897,6.5705,6.4718,6.3854,6.2786,6.1093,6.015,5.9328,5.8305,5.7931,5.7586,5.7024,5.5927,5.4625,5.3161,5.1565,0.0,0.0,0.0,0.0,0.0,0.0,0.0,0.0,0.0,0.0,0.0,0.0,0.0,0.0,0.0,0.0,0.0,0.0,0.0,0.0,0.0,0.0,0.0,0.0,0.0,5.3518,5.3518,5.3687,5.4125,5.4872,5.5204,5.5241,5.6701,5.7145,5.6886,5.7606,5.7881,5.7881,5.7881,5.7881,5.7881,5.7881,5.7881,5.7881,0.0,5.3047,0.0,0.0,5.6992,0.0,5.8027,5.9419,6.1151,6.2814,6.318,6.3962,6.5705,6.5897,6.5551,6.468,6.3809,6.2963,6.2175,6.1304,6.0781,6.0781,6.0781,6.0565,6.008,5.8396,5.6549,0.0,0.0,0.0,0.0,0.0,0.0,0.0,0.0,0.0,0.0,0.0,6.2666,6.3668,6.4834,6.5214,6.5077,6.4665,6.4474,6.4436,6.4818,6.4977,6.5026,6.5436,6.5705,6.5897,6.5897,6.5897,6.5897,6.5897,6.5897,6.5743,6.5103,6.4445,6.3516,6.1972,6.0798,5.9651,5.8373,5.7813,5.7437,5.6942,5.6176,5.5057,5.3546,5.2493,0.0,0.0,0.0,0.0,0.0,0.0,0.0,0.0,0.0,0.0,0.0,0.0,0.0,0.0,0.0,0.0,0.0,0.0,0.0,0.0,0.0,5.0634,5.1693,0.0,5.2539,0.0,5.3687,5.4058,5.4592,5.5545,5.5947,5.5962,5.7369,5.7572,5.7055,5.764,5.7881,5.7881,5.7881,5.7881,5.7881,5.7881,5.7881,5.7881,0.0,0.0,0.0,0.0,0.0,0.0,0.0,5.9681,6.0258,6.1982,6.2834,6.3962,6.5705,6.5897,6.5551,6.468,6.3809,6.2963,6.2175,6.1304,6.0781,6.0781,6.0781,6.1142,6.1837,6.0157,5.9142,0.0,0.0,0.0,0.0,0.0,0.0,0.0,0.0,0.0,0.0,6.0958,6.3012,6.4564,6.5474,6.5521,6.5123,6.5086,6.4779,6.4398,6.4435,6.4483,6.4462,6.4501,6.5141,6.5897,6.5897,6.5897,6.5897,6.5897,6.5897,6.5705,6.4718,6.4407,6.375,6.1176,6.0456,5.9955,5.8373,5.7997,5.773,5.6942,5.5875,5.5096,5.5266,5.4354,5.3836,0.0,0.0,0.0,0.0,0.0,4.8157,4.8084,0.0,0.0,0.0,0.0,0.0,0.0,0.0,0.0,0.0,0.0,0.0,4.9959,0.0,5.1155,5.3245,5.1933,0.0,5.3518,5.416,5.4531,5.4666,5.6021,5.6701,5.6731,5.7543,5.7848,5.7814,5.7881,5.7881,5.7881,5.7881,5.7881,5.7881,5.7881,5.7881,5.7881,0.0,0.0,0.0,0.0,0.0,0.0,0.0,6.0512,6.0704,6.1944,6.2796,6.377,6.4987,6.5103,6.4757,6.3924,6.3065,6.2435,6.2136,6.1304,6.0781,6.0781,6.0781,6.0973,6.131,6.0104,5.9511,0.0,0.0,0.0,0.0,0.0,0.0,0.0,0.0,5.7588,5.9973,6.2536,6.3998,6.4666,6.5205,6.512,6.4668,6.429,6.386,6.3479,6.3787,6.3928,6.3984,6.4284,6.4681,6.4987,6.4987,6.518,6.5436,6.5436,6.5667,6.5667,6.468,6.4407,6.375,6.1103,6.0419,5.9992,5.8373,5.7997,5.7923,5.7584,5.674,5.5985,5.5644,5.5613,5.53,0.0,0.0,0.0,0.0,0.0,0.0,4.9903,0.0,4.9513,0.0,0.0,0.0,0.0,0.0,0.0,0.0,0.0,0.0,5.0757,0.0,5.1186,5.3483,5.237,5.2605,5.416,5.4025,5.4668,5.5953,5.6055,5.6596,5.7514,5.7746,5.7881,5.7881,5.7881,5.7881,5.7881,5.7881,5.7881,5.7881,5.7881,5.7881,5.7881,5.8594,0.0,6.0469,0.0,6.1055,6.132,6.1288,6.1228,6.142,6.2021,6.2781,6.3526,6.4155,6.4218,6.3872,6.3002,6.2435,6.1982,6.1728,6.1151,6.0781,6.0781,6.0781,0.0,6.1189,6.0589,6.0242,6.0265,5.9704,0.0,0.0,0.0,0.0,0.0,5.8088,5.9742,6.1666,6.3705,6.4743,6.4974,6.5243,6.4949,6.437,6.3973,6.3406,6.2842,6.3259,6.3369,6.3406,6.3787,6.392,6.3987,6.4291,6.4628,6.4877,6.4895,6.5141,6.5257,6.4385,6.4143,6.364,6.1323,6.0566,6.0029,5.8676,5.8189,5.7997,5.7997,5.7354,5.6621,5.6073,5.6455,5.6213,5.4556,0.0,0.0,0.0,5.2777,0.0,5.2272,5.2806,5.1955,4.8804,0.0,0.0,0.0,0.0,0.0,0.0,0.0,0.0,0.0,0.0,0.0,0.0,5.3145,5.3416,5.4905,5.4634,5.5277,5.6799,5.6494,5.6934,5.7881,5.7881,5.7881,5.7881,5.7881,5.7881,5.7881,5.7881,5.7881,5.7881,5.7881,5.7881,5.7881,6.0195,6.039,6.0664,6.1523,6.1484,6.132,6.1288,6.1728,6.2098,6.2098,6.2814,6.333,6.3284,6.3344,6.3007,6.2175,6.2098,6.1728,6.0858,6.0819,6.0781,0.0,0.0,6.1189,6.2059,6.2065,6.2065,6.205,0.0,0.0,5.3203,5.1548,5.3857,5.9435,5.9473,6.0896,6.332,6.4205,6.5089,6.5859,6.5897,6.5295,6.4408,6.4389,6.375,6.2805,6.2805,6.2805,6.2805,6.2842,6.2805,6.3002,6.4107,6.4401,6.4438,6.439,6.4385,6.4308,6.377,6.3578,6.3296,6.1935,6.0981,6.0176,5.9348,5.8603,5.7997,5.7997,5.7354,5.6795,5.6795,5.6795,5.6795,5.6759,0.0,0.0,0.0,5.4191,0.0,5.5352,5.4128,5.3202,5.3219,0.0,0.0,0.0,0.0,0.0,0.0,0.0,0.0,5.2232,5.1589,0.0,5.5649,5.4228,5.4228,5.5716,5.6427,5.6765,5.6833,5.7543,5.7881,5.7881,5.7881,5.7881,5.7881,5.7881,5.7881,5.7881,5.7881,5.7881,5.7881,5.7881,5.7881,5.7881,6.2109,6.2656,6.3164,6.3437,6.332,6.3154,6.3029,6.3084,6.3291,6.3743,6.3036,6.2675,6.3229,6.2829,6.2136,0.0,6.1228,6.1112,0.0,6.0781,6.0781,6.0781,6.0781,6.0935,6.1228,6.1204,6.1219,6.1219,0.0,0.0,0.0,5.8088,5.8896,6.1281,6.1858,6.2858,6.4243,6.5128,6.546,6.5359,6.5346,6.4742,6.3834,6.3825,6.3406,6.2805,6.2805,6.2805,6.2805,6.2805,6.2805,6.2879,6.3222,6.3553,6.3825,6.3861,6.4112,6.4262,6.3734,6.3576,6.3296,6.1935,6.097,6.0224,5.9375,5.8603,5.7997,5.7997,5.7813,5.762,5.762,5.762,5.7474,5.6868,5.6813,0.0,5.4956,0.0,5.4326,5.4748,5.3913,5.2945,0.0,5.1941,0.0,0.0,0.0,0.0,0.0,0.0,0.0,0.0,5.2604,0.0,5.5683,5.4434,5.474,5.6461,5.5369,5.5576,5.6833,5.7543,5.7881,5.7881,5.7881,5.7881,5.7881,5.7881,5.7881,5.7881,5.7881,5.7881,5.7881,5.7881,5.7881,5.7881,6.3476,6.3945,6.4297,6.4297,6.418,6.4044,6.382,6.3961,6.4075,6.4116,6.3501,6.2988,6.2868,6.2406,0.0,6.0858,6.0781,6.0781,6.0781,6.0781,6.0781,6.0781,6.0781,6.0781,6.0781,0.0,0.0,6.1296,6.2127,6.2551,6.2551,6.1973,6.2204,6.3051,6.3551,6.4282,6.5128,6.546,6.5417,6.5067,6.4893,6.4332,6.3615,6.3606,6.3279,6.2805,6.2805,6.2805,6.2805,6.2805,6.2805,6.2805,6.2805,6.3025,6.3296,6.3296,6.3516,6.375,6.3369,6.3296,6.3062,6.2228,6.1213,6.0103,5.9034,5.8373,5.7997,5.7997,5.7997,5.7997,5.7997,5.7997,5.785,5.7317,5.7244,5.6795,5.5477,0.0,5.5522,0.0,0.0,0.0,0.0,5.2171,0.0,0.0,0.0,0.0,0.0,0.0,0.0,5.2739,5.2942,0.0,5.6089,5.4675,5.4891,5.6553,5.5421,5.568,5.7239,5.7679,5.7881,5.7881,5.7881,5.7881,5.7881,5.7881,5.7881,5.7881,5.7881,5.7881,5.7881,5.7881,5.7881,5.7881,6.4375,6.4453,0.0,0.0,6.4375,0.0,6.4023,6.4503,6.4564,6.3668,6.4193,6.4001,6.2459,6.2175,6.1728,6.0858,0.0,0.0,0.0,6.0781,6.0781,6.0781,6.0781,6.0781,6.0781,6.1574,6.2059,6.2175,6.2935,6.3358,6.3474,6.3474,6.3897,6.4705,6.4705,6.5103,6.5808,6.5291,6.5067,6.4971,6.4519,6.4021,6.3509,6.3535,6.3227,6.2805,6.2805,6.2805,6.2805,6.2805,6.2805,6.2805,6.2805,6.2805,6.2805,6.2805,6.2805,6.2805,6.2805,6.2805,6.2805,6.2805,6.1592,6.0005,5.8354,5.7997,5.7997,5.7997,5.7997,5.7997,5.7997,5.7997,5.7997,5.7997,5.7997,5.7694,5.6905,5.6735,5.7036,0.0,0.0,0.0,0.0,5.2609,5.1014,0.0,0.0,0.0,0.0,0.0,5.2378,5.345,5.2875,5.3856,5.6525,5.4833,5.4667,5.6126,5.6204,5.6778,5.7881,5.7881,5.7881,5.7881,5.7881,5.7881,5.7881,5.7881,5.7881,5.7881,5.7881,5.7881,5.7881,5.7881,5.7881,5.7881,0.0,0.0,6.6289,6.6289,6.6133,6.5976,6.582,6.58,6.5897,6.6167,6.5295,6.4462,6.4064,6.2882,6.1728,6.0858,6.0781,6.0781,6.0781,6.0781,6.0781,6.0781,6.0781,6.0781,6.0781,6.0973,6.1728,6.2998,6.3205,6.3974,6.5282,6.5282,6.5397,6.559,6.559,6.5471,6.5291,6.515,6.4668,6.3934,6.3862,6.3464,6.2988,6.2973,6.2903,6.2805,6.2805,6.2805,6.2805,6.2805,6.2805,6.2805,6.2805,6.2805,6.2805,6.2805,6.2805,6.2805,6.2805,6.2805,6.2805,6.2805,6.1569,6.001,5.841,5.7997,5.7997,5.7997,5.7997,5.7997,5.7997,5.7997,5.7997,5.7997,5.7997,5.7694,5.6905,5.6356,5.6108,0.0,5.4793,5.3798,5.3763,5.2706,5.2232,0.0,0.0,0.0,0.0,5.3114,5.2909,5.345,5.4431,5.4555,5.3904,5.3701,5.4051,5.5002,5.581,5.6778,5.7881,5.7881,5.7881,5.7881,5.7881,5.7881,5.7881,5.7881,5.7881,5.7881,5.7881,5.7881,5.7881,5.7881,5.7881,5.7881,6.6172,6.6562,6.6914,6.6914,6.6719,6.6552,6.6429,6.6245,6.623,6.65,6.5743,6.491,6.4078,6.319,6.2136,6.0896,6.0781,6.0781,6.0781,6.0781,6.0781,6.0781,6.0781,6.0781,6.0781,6.0781,6.1612,6.3291,6.3281,6.4205,6.5897,6.5897,6.5897,6.5897,6.5663,6.5388,6.5067,6.4593,6.4094,6.3587,6.332,6.3025,6.2805,6.2805,6.2805,6.2805,6.2805,6.2805,6.2805,6.2805,6.2805,6.2805,6.2805,6.2805,6.2805,6.2805,6.2805,6.2805,6.2805,6.2805,6.2732,6.2352,6.1323,6.0066,5.8823,5.8263,5.7997,5.7997,5.7997,5.7997,5.7997,5.7997,5.7997,5.7997,5.7997,5.785,5.7437,5.6759,0.0,5.5757,5.4374,5.3377,5.3025,5.2281,5.2131,5.2909,0.0,0.0,5.4532,5.4347,5.4276,5.4532,5.4149,5.4083,5.4425,5.3629,5.3481,5.3828,5.497,5.581,5.6393,5.6887,5.7114,5.7114,5.7114,5.7372,5.7881,5.7881,5.7881,5.7881,5.7881,5.7881,5.7881,5.7881,5.7881,5.7881,6.6914,6.6914,6.6914,6.6914,6.6719,6.6511,6.6422,6.623,6.6013,6.5897,6.5782,6.5103,6.3476,6.319,6.2483,6.0935,6.0781,6.0781,6.0781,6.0781,6.0781,6.0781,6.0781,6.0781,6.0781,6.0935,6.1728,6.3276,6.3421,6.432,6.5897,6.5897,6.5872,6.5781,6.5291,6.5035,6.4833,6.3937,6.3587,6.3453,6.2965,6.2805,6.2805,6.2805,6.2805,6.2805,6.2805,6.2805,6.2805,6.2805,6.2805,6.2805,6.2805,6.2805,6.2805,6.2805,6.2805,6.2805,6.2805,6.2805,6.2608,6.1775,6.097,6.0204,5.9384,5.8603,5.7997,5.7997,5.7997,5.7997,5.7997,5.7997,5.8107,5.8483,5.8336,5.8263,5.8483,0.0,5.6757,5.5786,5.4534,5.3315,5.257,5.1928,5.1826,5.2435,5.2469,5.3044,0.0,5.5141,5.5581,5.5716,5.3728,5.3643,5.5772,5.3584,5.263,5.29,5.4084,5.4589,5.4672,5.5889,5.636,5.6204,5.636,5.6887,5.7628,5.7808,5.7808,5.7628,5.7808,5.7881,5.7881,5.7881,5.7881,5.7881,6.6914,6.6914,6.6914,6.6914,6.664,6.6433,6.6422,6.6128,6.5897,6.5897,6.5257,6.4424,6.3399,6.2704,6.1905,6.0896,6.0781,6.0781,6.0781,6.0781,6.0781,6.0781,6.0781,6.0781,6.0781,6.1535,6.2367,6.3276,6.4037,6.4897,6.5897,6.5897,6.5663,6.523,6.513,6.4626,6.3813,6.3637,6.3317,6.2953,6.2855,6.2805,6.2805,6.2805,6.2805,6.2805,6.2805,6.2805,6.2805,6.2805,6.2805,6.2805,6.2805,6.2805,6.2805,6.2805,6.2805,6.2805,6.2805,6.2805,6.2608,6.1775,6.0993,6.0201,5.9375,5.8603,5.7997,5.7997,5.7997,5.7997,5.7997,5.7997,5.8676,6.0711,5.9918,5.9504,6.0859,0.0,5.7355,5.5899,5.4939,5.4093,5.3382,5.3213,5.3179,5.3315,5.3315,5.3416,5.3653,5.4363,5.5074,5.5683,5.5913,5.5372,5.397,5.1713,5.1425,5.29,5.4084,5.4589,5.4672,5.6734,5.7114,5.6282,5.7222,5.7222,5.6547,5.748,5.7297,5.6547,5.7554,5.7881,5.7881,5.7881,5.7881,5.7881,6.6914,6.6914,6.6875,6.6758,6.6562,6.6355,6.6267,6.6051,6.5743,6.5257,6.4872,6.4103,6.2796,6.2305,6.1728,6.0858,6.0781,6.0781,6.0781,6.0781,6.0781,6.0781,6.0781,6.0781,6.0781,6.1651,6.2497,6.332,6.4166,6.5051,6.5897,6.5897,6.5597,6.5099,6.4833,6.4294,6.3587,6.3308,6.3014,6.2805,6.2805,6.2805,6.2805,6.2805,6.2805,6.2805,6.2805,6.2805,6.2805,6.2805,6.2805,6.2805,6.2805,6.2805,6.2805,6.2805,6.2805,6.2805,6.2805,6.2805,6.2732,6.2352,6.1629,6.0823,6.001,5.92,5.852,5.807,5.7997,5.7997,5.7997,5.7997,5.8483,6.0066,5.9297,0.0,6.0176,5.8307,5.6681,5.6395,5.496,5.4023,5.4076,5.3717,5.3518,5.3518,5.3518,5.3518,5.3518,5.4194,5.4938,5.5683,5.5671,5.4648,5.2649,5.1333,5.1516,5.29,5.4084,5.4253,5.3742,5.5968,5.6393,5.541,5.5889,5.647,5.7114,5.7039,5.7039,5.7189,5.7701,5.7881,5.7881,5.7881,5.7881,5.7881,6.6914,6.6875,6.6797,6.664,6.6468,6.6273,6.6144,6.582,6.5333,6.468,6.4257,6.3512,6.2252,6.1944,6.1535,6.0858,6.0781,6.0781,6.0781,6.0781,6.0781,6.0781,6.0781,6.0781,6.0781,6.1843,6.2666,6.3284,6.4385,6.5218,6.5897,6.5782,6.5416,6.4921,6.4439,6.3944,6.3363,6.2965,6.2805,6.2805,6.2805,6.2805,6.2805,6.2805,6.2805,6.2805,6.2805,6.2805,6.2805,6.2805,6.2805,6.2805,6.2805,6.2805,6.2805,6.2805,6.2805,6.2805,6.2805,6.2805,6.2805,6.2805,6.2192,6.1385,6.0588,5.99,5.92,5.8226,5.8143,5.8226,5.8033,5.7997,5.8373,5.9578,0.0,5.861,5.9638,5.758,5.6151,5.6564,5.4787,5.3703,5.4293,5.3815,5.3518,5.3518,5.3653,5.3754,5.3754,5.46,5.5446,5.619,5.5411,5.4166,5.2559,5.188,5.188,5.2485,5.3656,5.3742,5.2989,5.5215,5.5698,5.5002,5.5247,5.6159,5.7446,5.6887,5.6963,5.7554,5.7808,5.7881,5.7881,5.7881,5.7881,5.7881,6.6914,6.6758,6.6601,6.6601,6.6335,6.6136,6.6115,6.5295,6.468,6.4603,6.3243,6.2252,6.2098,6.1381,6.0858,6.0819,6.0781,6.0781,6.0781,6.0781,6.0781,6.0781,6.0781,6.0781,6.0781,6.2367,6.3229,6.3284,6.4987,6.582,6.5897,6.5397,6.49,6.4453,6.3877,6.336,6.2855,6.2805,6.2805,6.2805,6.2805,6.2805,6.2805,6.2805,6.2805,6.2805,6.2805,6.2805,6.2805,6.2805,6.2805,6.2805,6.2805,6.2805,6.2805,6.2805,6.2805,6.2805,6.2805,6.2805,6.2805,6.2805,6.2192,6.1359,6.0578,6.0346,5.9882,5.8336,5.8603,5.886,5.8107,5.7997,5.875,6.1043,0.0,0.0,6.1218,5.8787,5.6551,5.5843,5.4452,5.3515,5.3549,5.3484,5.3518,5.3518,5.4126,5.4499,5.4499,5.5852,5.6968,5.7712,5.6668,5.5538,5.4409,5.3309,5.2336,5.1293,5.2485,5.2989,5.2989,5.5215,5.6204,5.6126,5.7222,5.7114,5.636,5.7372,5.7222,5.6437,5.748,5.7881,5.7881,5.7881,5.7881,5.7881,6.6914,6.6758,6.6586,6.6489,6.626,6.5897,6.5257,6.4872,6.4218,6.3166,6.2497,6.1905,6.1343,6.0973,6.0781,6.0781,6.0781,6.0781,6.0781,6.0781,6.0781,6.0781,6.0781,6.0781,6.0781,6.2444,6.3306,6.3284,6.4718,6.5397,6.5397,6.491,6.4364,6.3913,6.3689,6.3289,6.2805,6.2805,6.2805,6.2805,6.2805,6.2805,6.2805,6.2805,6.2805,6.2805,6.2805,6.2805,6.2805,6.2805,6.2805,6.2805,6.2805,6.2805,6.2805,6.2805,6.2805,6.2805,6.2805,6.2805,6.2805,6.2805,6.2572,6.2118,6.1323,6.0761,6.0093,5.8981,5.86,5.8373,5.8033,5.7997,5.8447,5.9882,0.0,5.8867,5.9946,5.785,5.6233,5.6395,5.4689,5.3862,5.4789,5.4464,5.4363,5.4837,5.5141,5.5277,5.5277,5.6258,5.6934,5.7205,5.7245,5.6393,5.4589,5.3483,5.3077,5.3309,5.3742,5.4305,5.497,5.6547,5.6887,5.6204,5.6624,5.7039,5.7222,5.6963,5.7039,5.7297,5.7701,5.7881,5.7881,5.7881,5.7881,5.7881,6.6914,6.6758,6.6556,6.6405,6.6013,6.5474,6.4718,6.4141,6.3397,6.2252,6.1843,6.1458,6.0858,6.0781,6.0781,6.0781,6.0781,6.0781,6.0781,6.0781,6.0781,6.0781,6.0781,6.0935,6.1189,6.256,6.3344,6.3438,6.4564,6.5043,6.4862,6.4372,6.3951,6.3593,6.3451,6.315,6.2805,6.2805,6.2805,6.2805,6.2805,6.2805,6.2805,6.2805,6.2805,6.2805,6.2805,6.2805,6.2805,6.2805,6.2805,6.2805,6.2805,6.2805,6.2805,6.2805,6.2805,6.2805,6.2805,6.2805,6.2805,6.2805,6.2805,6.2498,6.1482,6.1006,6.0467,5.942,5.8747,5.8373,5.8373,5.8189,5.8189,5.875,5.8373,5.83,5.909,5.7437,5.635,5.7199,5.5414,5.46,5.5588,5.5279,5.5175,5.5683,5.5919,5.6156,5.6393,5.6867,5.7137,5.7137,5.7645,5.6963,5.5166,5.3999,5.3828,5.4589,5.4253,5.4806,5.6204,5.7039,5.7114,5.6701,5.6701,5.7222,5.7808,5.7039,5.7222,5.7881,5.7881,5.7881,5.7881,5.7881,5.7881,5.7881,6.6914,6.6758,6.6556,6.6405,6.5513,6.4757,6.4603,6.3166,6.2098,6.2098,6.1343,6.0781,6.0781,6.0781,6.0781,6.0781,6.0781,6.0781,6.0781,6.0781,6.0781,6.0781,6.0781,6.1228,6.2098,6.2891,6.346,6.3809,6.4654,6.4837,6.4352,6.3823,6.3603,6.3603,6.3025,6.2805,6.2805,6.2805,6.2805,6.2805,6.2805,6.2805,6.2805,6.2805,6.2805,6.2805,6.2805,6.2805,6.2805,6.2805,6.2805,6.2805,6.2805,6.2805,6.2805,6.2805,6.2805,6.2805,6.2805,6.2805,6.2805,6.2805,6.2805,6.2388,6.0797,6.103,6.1129,5.9522,5.92,5.92,5.92,5.852,5.7997,5.7997,5.7997,5.83,5.909,5.7886,5.7182,5.8029,5.669,5.5724,5.5726,5.5689,5.5716,5.575,5.6393,5.7137,5.7848,5.7881,5.7881,5.7881,5.7881,5.7372,5.6204,5.5166,5.4589,5.4589,5.3483,5.4052,5.6204,5.6204,5.6854,5.7881,5.7881,5.7881,5.7881,5.7881,5.7881,5.7881,5.7881,5.7881,5.7881,5.7881,5.7881,5.7881,6.6719,6.6562,6.6402,6.6219,6.533,6.4449,6.3792,6.2791,6.1905,6.1266,6.0935,6.0781,6.0781,6.0781,6.0781,6.0781,6.0781,6.0781,6.0781,6.0781,6.0781,6.0781,6.0781,6.1228,6.2098,6.2897,6.3463,6.3809,6.4331,6.4316,6.3823,6.3296,6.3025,6.3025,6.2879,6.2805,6.2805,6.2805,6.2805,6.2805,6.2805,6.2805,6.2805,6.2805,6.2805,6.2805,6.2805,6.2805,6.2805,6.2805,6.2805,6.2805,6.2805,6.2805,6.2805,6.2805,6.2805,6.2805,6.2805,6.2805,6.2805,6.2805,6.2805,6.2535,6.1519,6.1006,6.0646,6.014,5.9564,5.92,5.9191,5.9016,5.8676,5.807,5.7997,5.807,5.8336,5.7982,5.7801,5.805,5.7739,5.7656,5.8184,5.7682,5.7533,5.8049,5.7732,5.7645,5.7881,5.7881,5.7881,5.7881,5.7881,5.7735,5.7372,5.6282,5.573,5.573,5.5377,5.5968,5.7372,5.7372,5.7554,5.7881,5.7881,5.7881,5.7881,5.7881,5.7881,5.7881,5.7881,5.7881,5.7881,5.7881,5.7881,5.7881,6.664,6.6517,6.6283,6.5699,6.4831,6.3872,6.2983,6.2136,6.142,6.0858,6.0781,6.0781,6.0781,6.0781,6.0781,6.0781,6.0781,6.0781,6.0781,6.0781,6.0781,6.0781,6.1151,6.1689,6.256,6.318,6.3668,6.4039,6.4079,6.3823,6.3296,6.2952,6.2805,6.2805,6.2805,6.2805,6.2805,6.2805,6.2805,6.2805,6.2805,6.2805,6.2805,6.2805,6.2805,6.2805,6.2805,6.2805,6.2805,6.2805,6.2805,6.2805,6.2805,6.2805,6.2805,6.2805,6.2805,6.2805,6.2805,6.2805,6.2805,6.2805,6.2805,6.2572,6.1775,6.1213,6.0859,6.0859,6.0224,5.9797,6.0078,5.9632,5.9127,5.9016,5.8676,5.8603,5.8897,5.8969,5.8863,5.8608,5.886,5.8979,5.8765,5.8892,5.902,5.9076,5.8388,5.7881,5.7881,5.7881,5.7881,5.7881,5.7881,5.7881,5.7881,5.7222,5.6854,5.6887,5.6437,5.6778,5.7881,5.7881,5.7881,5.7881,5.7881,5.7881,5.7881,5.7881,5.7881,5.7881,5.7881,5.7881,5.7881,5.7881,5.7881,5.7881,6.6601,6.6503,6.609,6.4987,6.4039,6.318,6.2228,6.1381,6.0781,6.0781,6.0781,6.0781,6.0781,6.0781,6.0781,6.0781,6.0781,6.0781,6.0781,6.0781,6.0819,6.0896,6.1728,6.256,6.3353,6.3641,6.4027,6.4392,6.3841,6.3332,6.2805,6.2805,6.2805,6.2805,6.2805,6.2805,6.2805,6.2805,6.2805,6.2805,6.2805,6.2805,6.2805,6.2805,6.2805,6.2805,6.2805,6.2805,6.2805,6.2805,6.2805,6.2805,6.2732,6.2682,6.2682,6.2682,6.2682,6.2732,6.2805,6.2805,6.2805,6.2805,6.2768,6.2498,6.1739,6.1581,6.1606,6.1606,6.1006,6.0761,6.1482,6.0419,5.9605,6.0296,5.9799,5.9568,6.0324,6.0457,6.0214,5.949,6.013,6.0012,5.8497,5.9601,6.0023,5.9044,5.8317,5.7881,5.7881,5.7881,5.7881,5.7881,5.7881,5.7881,5.7881,5.7881,5.7881,5.7881,5.6887,5.6887,5.7881,5.7881,5.7881,5.7881,5.7881,5.7881,5.7881,5.7881,5.7881,5.7881,5.7881,5.7881,5.7881,5.7881,5.7881,5.7881,6.6484,6.575,6.5064,6.4718,6.3397,6.2344,6.2136,6.1381,6.0781,6.0781,6.0781,6.0781,6.0781,6.0781,6.0781,6.0781,6.0781,6.0781,6.0781,6.0781,6.1112,6.1766,6.2598,6.3253,6.368,6.377,6.4007,6.4406,6.3848,6.3332,6.2805,6.2805,6.2805,6.2805,6.2805,6.2805,6.2805,6.2805,6.2805,6.2805,6.2805,6.2805,6.2805,6.2805,6.2805,6.2805,6.2805,6.2805,6.2805,6.2805,6.2805,6.2682,6.2045,6.1849,6.1849,6.1849,6.1849,6.2008,6.2608,6.2805,6.2805,6.2805,6.2352,6.1775,6.1629,6.1605,6.1581,6.1581,6.1459,6.1359,6.1592,6.1349,6.0933,6.0471,6.0236,6.0188,6.0371,6.0973,6.1265,6.1115,6.1761,6.2141,6.1768,6.0925,5.9768,5.8246,5.8027,5.7881,5.7881,5.7881,5.7881,5.7881,5.7881,5.7881,5.7881,5.7881,5.7881,5.7881,5.7628,5.7628,5.7881,5.7881,5.7881,5.7881,5.7881,5.7881,5.7881,5.7881,5.7881,5.7881,5.7881,5.7881,5.7881,5.7881,5.7881,5.7881,6.6312,6.547,6.4641,6.4075,6.2921,6.1982,6.1535,6.1112,6.0781,6.0781,6.0781,6.0781,6.0781,6.0781,6.0781,6.0781,6.0781,6.0781,6.0781,6.0781,6.1189,6.2059,6.2666,6.3218,6.3809,6.3731,6.3821,6.4057,6.3479,6.3062,6.2805,6.2805,6.2805,6.2805,6.2805,6.2805,6.2805,6.2805,6.2805,6.2805,6.2805,6.2805,6.2805,6.2805,6.2805,6.2805,6.2805,6.2805,6.2805,6.2805,6.2535,6.2192,6.2155,6.1914,6.1661,6.2042,6.2165,6.2228,6.2682,6.2498,6.2228,6.2228,6.1935,6.1702,6.2082,6.1898,6.1702,6.2082,6.2155,6.2155,6.2155,6.1849,6.1569,6.1544,6.1251,6.0943,6.0943,6.1696,6.1876,6.11,6.2099,6.2805,6.2805,6.0997,5.9574,5.9145,5.8317,5.7881,5.7881,5.7881,5.7881,5.7881,5.7881,5.7881,5.7881,5.7881,5.7881,5.7881,5.7881,5.7881,5.7881,5.7881,5.7881,5.7881,5.7881,5.7881,5.7881,5.7881,5.7881,5.7881,5.7881,5.7881,5.7881,5.7881,5.7881,5.7881,6.5958,6.5166,6.4243,6.3276,6.2406,6.1612,6.0896,6.0781,6.0781,6.0781,6.0781,6.0781,6.0781,6.0781,6.0781,6.0781,6.0781,6.0781,6.0781,6.0781,6.1228,6.2136,6.2463,6.2962,6.3732,6.3686,6.3603,6.3603,6.3025,6.2805,6.2805,6.2805,6.2805,6.2805,6.2805,6.2805,6.2805,6.2805,6.2805,6.2805,6.2805,6.2805,6.2805,6.2805,6.2805,6.2805,6.2805,6.2705,6.2618,6.2608,6.2045,6.1519,6.2155,6.1937,6.1571,6.237,6.257,6.2572,6.2572,6.2118,6.1601,6.1587,6.1516,6.1623,6.2581,6.2265,6.2008,6.2645,6.2805,6.2805,6.2805,6.2228,6.2008,6.2682,6.2118,6.1665,6.1775,6.2228,6.2172,6.0952,6.1964,6.2755,6.2618,6.0605,5.9574,6.0149,5.8772,5.7881,5.7881,5.7881,5.7881,5.7881,5.7881,5.7881,5.7881,5.7881,5.7881,5.7881,5.7881,5.7881,5.7881,5.7881,5.7881,5.7881,5.7881,5.7881,5.7881,5.7881,5.7881,5.7881,5.7881,5.7881,5.7881,5.7881,5.7881,5.7881,6.5153,6.4191,6.3214,6.2406,6.1535,6.0935,6.0819,6.0781,6.0781,6.0781,6.0781,6.0781,6.0781,6.0781,6.0781,6.0781,6.0781,6.0781,6.0781,6.0781,6.1343,6.2483,6.2579,6.2921,6.3604,6.3603,6.3603,6.3603,6.3025,6.2805,6.2805,6.2805,6.2805,6.2805,6.2805,6.2805,6.2805,6.2805,6.2805,6.2805,6.2805,6.2805,6.2805,6.2805,6.2805,6.2805,6.2805,6.2324,6.1752,6.177,6.1249,6.0564,6.0724,6.0653,6.0682,6.1514,6.174,6.1739,6.1739,6.1665,6.1587,6.1625,6.1085,6.0967,6.2474,6.2732,6.2645,6.2805,6.2805,6.2805,6.2805,6.2732,6.2645,6.2805,6.2118,6.1812,6.2535,6.2118,6.1958,6.242,6.2668,6.2515,6.1824,6.082,5.996,5.9311,5.8458,5.7881,5.7881,5.7881,5.7881,5.7881,5.7881,5.7881,5.7881,5.7881,5.7881,5.7881,5.7881,5.7881,5.7881,5.7881,5.7881,5.7881,5.7881,5.7881,5.7881,5.7881,5.7881,5.7881,5.7881,5.7881,5.7881,5.7881,5.7881,5.7881,6.4792,6.3561,6.2521,6.2175,6.1381,6.0781,6.0781,6.0781,6.0781,6.0781,6.0781,6.0781,6.0781,6.0781,6.0781,6.0781,6.0781,6.0704,6.0435,6.0435,6.0935,6.2175,6.1928,6.2332,6.3566,6.3332,6.3185,6.3185,6.2915,6.2805,6.2805,6.2805,6.2805,6.2805,6.2805,6.2805,6.2805,6.2805,6.2805,6.2805,6.2805,6.2805,6.2805,6.2805,6.2805,6.2755,6.2271,6.1911,6.1547,6.1064,6.0731,6.0491,6.0907,6.1103,6.114,6.1519,6.1592,6.1519,6.1066,6.0588,6.0288,6.0802,6.0656,6.0711,6.1865,6.2498,6.2805,6.2805,6.2805,6.2805,6.2805,6.2425,6.2265,6.2768,6.2118,6.1865,6.2655,6.249,6.2425,6.2768,6.2805,6.2654,6.2324,6.1548,6.076,5.9896,5.9078,5.8388,5.7954,5.7881,5.7881,5.7881,5.7881,5.7881,5.7881,5.7881,5.7881,5.7881,5.7881,5.7881,5.7881,5.7881,5.7881,5.7881,5.7881,5.7881,5.7881,5.7881,5.7881,5.7881,5.7881,5.7881,5.7881,5.7881,5.7881,5.7881]},{"header":{"parameterUnit":"m.s-1","parameterCategory":1,"la1":30.6,"la2":28.766,"lo1":-90.7593,"lo2":-88.6598,"dx":0.0162,"dy":0.0183,"nx":116,"ny":114,"refTime":"2022-12-24T06:00:00:Z","depth":0,"parameterNumber":3,"parameterNumberName":"V-component_of_WINDS"},"data":[0.0,0.0,0.0,0.0,0.0,0.0,0.0,0.0,0.0,0.0,0.0,0.0,0.0,0.0,0.0,0.0,0.0,0.0,0.0,0.0,0.0,0.0,0.0,0.0,0.0,0.0,0.0,0.0,0.0,0.0,0.0,0.0,0.0,0.0,0.0,0.0,0.0,0.0,0.0,0.0,0.0,0.0,0.0,0.0,0.0,0.0,0.0,0.0,0.0,0.0,0.0,0.0,0.0,0.0,0.0,0.0,0.0,0.0,0.0,0.0,0.0,0.0,0.0,0.0,0.0,0.0,0.0,0.0,0.0,0.0,0.0,0.0,0.0,0.0,0.0,0.0,0.0,0.0,0.0,0.0,0.0,0.0,0.0,0.0,0.0,0.0,0.0,0.0,0.0,0.0,0.0,0.0,0.0,0.0,0.0,0.0,0.0,0.0,0.0,0.0,0.0,0.0,0.0,0.0,0.0,0.0,0.0,0.0,0.0,0.0,0.0,0.0,0.0,0.0,0.0,0.0,0.0,0.0,0.0,0.0,0.0,0.0,0.0,0.0,0.0,0.0,0.0,0.0,0.0,0.0,0.0,0.0,0.0,0.0,0.0,0.0,0.0,0.0,0.0,0.0,0.0,0.0,0.0,0.0,0.0,0.0,0.0,0.0,0.0,0.0,0.0,0.0,0.0,0.0,0.0,0.0,0.0,0.0,0.0,0.0,0.0,0.0,0.0,0.0,0.0,0.0,0.0,0.0,0.0,0.0,0.0,0.0,0.0,0.0,0.0,0.0,0.0,0.0,0.0,0.0,0.0,0.0,0.0,0.0,0.0,0.0,0.0,0.0,0.0,0.0,0.0,0.0,0.0,0.0,0.0,0.0,0.0,0.0,0.0,0.0,0.0,0.0,0.0,0.0,0.0,0.0,0.0,0.0,0.0,0.0,0.0,0.0,0.0,0.0,0.0,0.0,0.0,0.0,0.0,0.0,0.0,0.0,0.0,0.0,0.0,0.0,0.0,0.0,0.0,0.0,0.0,0.0,0.0,0.0,0.0,0.0,0.0,0.0,0.0,0.0,0.0,0.0,0.0,0.0,0.0,0.0,0.0,0.0,0.0,0.0,0.0,0.0,0.0,0.0,0.0,0.0,0.0,0.0,0.0,0.0,0.0,0.0,0.0,0.0,0.0,0.0,0.0,0.0,0.0,0.0,0.0,0.0,0.0,0.0,0.0,0.0,0.0,0.0,0.0,0.0,0.0,0.0,0.0,0.0,0.0,0.0,0.0,0.0,0.0,0.0,0.0,0.0,0.0,0.0,0.0,0.0,0.0,0.0,0.0,0.0,0.0,0.0,0.0,0.0,0.0,0.0,0.0,0.0,0.0,0.0,0.0,0.0,0.0,0.0,0.0,0.0,0.0,0.0,0.0,0.0,0.0,0.0,0.0,0.0,0.0,0.0,0.0,0.0,0.0,0.0,0.0,0.0,0.0,0.0,0.0,0.0,0.0,0.0,0.0,0.0,0.0,0.0,0.0,0.0,0.0,0.0,0.0,0.0,0.0,0.0,0.0,0.0,0.0,0.0,0.0,0.0,0.0,0.0,0.0,0.0,0.0,0.0,0.0,0.0,0.0,0.0,0.0,0.0,0.0,0.0,0.0,0.0,0.0,0.0,0.0,0.0,0.0,0.0,0.0,0.0,0.0,0.0,0.0,0.0,0.0,0.0,0.0,0.0,0.0,0.0,0.0,0.0,0.0,0.0,0.0,0.0,0.0,0.0,0.0,0.0,0.0,0.0,0.0,0.0,0.0,0.0,0.0,0.0,0.0,0.0,0.0,0.0,0.0,0.0,0.0,0.0,0.0,0.0,0.0,0.0,0.0,0.0,0.0,0.0,0.0,0.0,0.0,0.0,0.0,0.0,0.0,0.0,0.0,0.0,0.0,0.0,0.0,0.0,0.0,0.0,0.0,0.0,0.0,0.0,0.0,0.0,0.0,0.0,0.0,0.0,0.0,0.0,0.0,0.0,0.0,0.0,0.0,0.0,0.0,0.0,0.0,0.0,0.0,0.0,0.0,0.0,0.0,0.0,0.0,0.0,0.0,0.0,0.0,0.0,0.0,0.0,0.0,0.0,0.0,0.0,0.0,0.0,0.0,0.0,0.0,0.0,0.0,0.0,0.0,0.0,0.0,0.0,0.0,0.0,0.0,0.0,0.0,0.0,0.0,0.0,0.0,0.0,0.0,0.0,0.0,0.0,0.0,0.0,0.0,0.0,0.0,0.0,0.0,0.0,0.0,0.0,0.0,0.0,0.0,0.0,0.0,0.0,0.0,0.0,0.0,0.0,0.0,0.0,0.0,0.0,0.0,0.0,0.0,0.0,0.0,0.0,0.0,0.0,0.0,0.0,0.0,0.0,0.0,0.0,0.0,0.0,0.0,0.0,0.0,0.0,0.0,0.0,0.0,0.0,0.0,0.0,0.0,0.0,0.0,0.0,0.0,0.0,0.0,0.0,0.0,0.0,0.0,0.0,0.0,0.0,0.0,0.0,0.0,0.0,0.0,0.0,0.0,0.0,0.0,0.0,0.0,0.0,0.0,0.0,0.0,0.0,0.0,0.0,0.0,0.0,0.0,0.0,0.0,0.0,0.0,0.0,0.0,0.0,0.0,0.0,0.0,0.0,0.0,0.0,0.0,0.0,0.0,0.0,0.0,0.0,0.0,0.0,0.0,0.0,0.0,0.0,0.0,0.0,0.0,0.0,0.0,0.0,0.0,0.0,0.0,0.0,0.0,0.0,0.0,0.0,0.0,0.0,0.0,0.0,0.0,0.0,0.0,0.0,0.0,0.0,0.0,0.0,0.0,0.0,0.0,0.0,0.0,0.0,0.0,0.0,0.0,0.0,0.0,0.0,0.0,0.0,0.0,0.0,0.0,0.0,0.0,0.0,0.0,0.0,0.0,0.0,0.0,0.0,0.0,0.0,0.0,0.0,0.0,0.0,0.0,0.0,0.0,0.0,0.0,0.0,0.0,0.0,0.0,0.0,0.0,0.0,0.0,0.0,0.0,0.0,0.0,0.0,0.0,0.0,0.0,0.0,0.0,0.0,0.0,0.0,0.0,0.0,0.0,0.0,0.0,0.0,0.0,0.0,0.0,0.0,0.0,0.0,0.0,0.0,0.0,0.0,0.0,0.0,0.0,0.0,0.0,0.0,0.0,0.0,0.0,0.0,0.0,0.0,0.0,0.0,0.0,0.0,0.0,0.0,0.0,0.0,0.0,0.0,0.0,0.0,0.0,0.0,0.0,0.0,0.0,0.0,0.0,0.0,0.0,0.0,0.0,0.0,0.0,0.0,0.0,0.0,0.0,0.0,0.0,0.0,0.0,0.0,0.0,0.0,0.0,0.0,0.0,0.0,0.0,0.0,0.0,0.0,0.0,0.0,0.0,0.0,0.0,0.0,0.0,0.0,0.0,0.0,0.0,0.0,0.0,0.0,0.0,0.0,0.0,0.0,0.0,0.0,0.0,0.0,0.0,0.0,0.0,0.0,0.0,0.0,0.0,0.0,0.0,0.0,0.0,0.0,0.0,0.0,0.0,0.0,0.0,0.0,0.0,0.0,0.0,0.0,0.0,0.0,0.0,0.0,0.0,0.0,0.0,0.0,0.0,0.0,0.0,0.0,0.0,0.0,0.0,0.0,0.0,0.0,0.0,0.0,0.0,0.0,0.0,0.0,0.0,0.0,0.0,0.0,0.0,0.0,0.0,0.0,0.0,0.0,0.0,0.0,0.0,0.0,0.0,0.0,0.0,0.0,0.0,0.0,0.0,0.0,0.0,0.0,0.0,0.0,0.0,0.0,0.0,0.0,0.0,0.0,0.0,0.0,0.0,0.0,0.0,0.0,0.0,0.0,0.0,0.0,0.0,0.0,0.0,0.0,0.0,0.0,0.0,0.0,0.0,0.0,0.0,0.0,0.0,0.0,0.0,0.0,0.0,0.0,0.0,0.0,0.0,0.0,0.0,0.0,0.0,0.0,0.0,0.0,0.0,0.0,0.0,0.0,0.0,0.0,0.0,0.0,0.0,0.0,0.0,0.0,0.0,0.0,0.0,0.0,0.0,0.0,0.0,0.0,0.0,0.0,0.0,0.0,0.0,0.0,0.0,0.0,0.0,0.0,0.0,0.0,0.0,0.0,0.0,0.0,0.0,0.0,0.0,0.0,0.0,0.0,0.0,0.0,0.0,0.0,0.0,0.0,0.0,0.0,0.0,0.0,0.0,0.0,0.0,0.0,0.0,0.0,0.0,0.0,0.0,0.0,0.0,0.0,0.0,0.0,0.0,0.0,0.0,0.0,0.0,0.0,0.0,0.0,0.0,0.0,0.0,0.0,0.0,0.0,0.0,0.0,0.0,0.0,0.0,0.0,0.0,0.0,0.0,0.0,0.0,0.0,0.0,0.0,0.0,0.0,0.0,0.0,0.0,0.0,0.0,0.0,0.0,0.0,0.0,0.0,0.0,0.0,0.0,0.0,0.0,0.0,0.0,0.0,0.0,0.0,0.0,0.0,0.0,0.0,0.0,0.0,0.0,0.0,0.0,0.0,0.0,0.0,0.0,0.0,0.0,0.0,0.0,0.0,0.0,0.0,0.0,0.0,0.0,0.0,0.0,0.0,0.0,0.0,0.0,0.0,0.0,0.0,0.0,0.0,0.0,0.0,0.0,0.0,0.0,0.0,0.0,0.0,0.0,0.0,0.0,0.0,0.0,0.0,0.0,0.0,0.0,0.0,0.0,0.0,0.0,0.0,0.0,0.0,0.0,0.0,0.0,0.0,0.0,0.0,0.0,0.0,0.0,0.0,0.0,0.0,0.0,0.0,0.0,0.0,0.0,0.0,0.0,0.0,0.0,0.0,0.0,0.0,0.0,0.0,0.0,0.0,0.0,0.0,0.0,0.0,0.0,0.0,0.0,0.0,0.0,0.0,0.0,0.0,0.0,0.0,0.0,0.0,0.0,0.0,0.0,0.0,0.0,0.0,0.0,0.0,0.0,0.0,0.0,0.0,0.0,0.0,0.0,0.0,0.0,0.0,0.0,0.0,0.0,0.0,0.0,0.0,0.0,0.0,0.0,0.0,0.0,0.0,0.0,0.0,0.0,0.0,0.0,0.0,0.0,0.0,0.0,0.0,0.0,0.0,0.0,0.0,0.0,0.0,0.0,0.0,0.0,0.0,0.0,0.0,0.0,0.0,0.0,0.0,0.0,0.0,0.0,0.0,0.0,0.0,0.0,0.0,0.0,0.0,0.0,0.0,0.0,0.0,0.0,0.0,0.0,0.0,0.0,0.0,0.0,0.0,0.0,0.0,0.0,0.0,0.0,0.0,0.0,0.0,0.0,0.0,0.0,0.0,0.0,0.0,0.0,0.0,0.0,0.0,0.0,0.0,0.0,0.0,0.0,0.0,0.0,0.0,0.0,0.0,0.0,0.0,0.0,0.0,0.0,0.0,0.0,0.0,0.0,0.0,0.0,0.0,0.0,0.0,0.0,0.0,0.0,0.0,0.0,0.0,0.0,0.0,0.0,0.0,0.0,0.0,0.0,0.0,0.0,0.0,0.0,0.0,0.0,0.0,0.0,0.0,0.0,0.0,0.0,0.0,0.0,0.0,0.0,0.0,0.0,0.0,0.0,0.0,0.0,0.0,0.0,0.0,0.0,0.0,0.0,0.0,0.0,0.0,0.0,0.0,0.0,0.0,0.0,0.0,0.0,0.0,0.0,0.0,0.0,0.0,0.0,0.0,0.0,0.0,0.0,0.0,0.0,0.0,0.0,0.0,0.0,0.0,0.0,0.0,0.0,0.0,0.0,0.0,0.0,0.0,0.0,0.0,0.0,0.0,0.0,0.0,0.0,0.0,0.0,0.0,0.0,0.0,0.0,0.0,0.0,0.0,0.0,0.0,0.0,0.0,0.0,0.0,0.0,0.0,0.0,0.0,0.0,0.0,0.0,0.0,0.0,0.0,0.0,0.0,0.0,0.0,0.0,0.0,0.0,0.0,0.0,0.0,0.0,0.0,0.0,0.0,0.0,0.0,0.0,0.0,0.0,0.0,0.0,0.0,0.0,0.0,1.154,0.0,0.0,0.0,0.0,0.0,0.0,0.0,0.0,0.0,0.0,0.0,0.0,0.0,0.0,0.0,0.0,0.0,0.0,0.0,0.0,0.0,0.0,0.0,0.0,0.2697,0.2682,0.2711,0.2711,0.0,0.0,0.0,0.0,0.0,0.0,0.0,0.0,0.0,0.342,0.3618,0.3968,0.4341,0.4769,0.4457,0.4124,0.3725,0.0,0.0,0.0,0.0,0.0,0.0,0.0,0.0,0.0,0.0,0.0,0.0,0.0,0.0,0.0,0.0,0.0,0.0,0.0,0.0,0.0,0.0,0.0,0.0,0.0,0.0,0.0,0.0,0.0,0.0,0.0,0.0,0.0,0.0,0.0,0.0,0.0,0.0,0.0,0.0,0.0,0.0,0.0,0.0,0.0,0.0,0.0,0.0,0.0,0.0,0.0,0.0,0.0,0.0,0.0,0.0,0.0,0.0,0.0,0.0,0.0,0.0,0.0,0.0,0.0,0.0,0.0,0.0,0.0,0.0,0.0,1.2157,0.0,0.0,0.0,0.0,0.0,0.0,0.0,0.0,0.0,0.0,0.0,0.0,0.0,0.0,0.0,0.0,0.0,0.0,0.0,0.0,0.0,0.0692,0.25,0.2793,0.2844,0.2874,0.2841,0.2848,0.286,0.2479,0.0,0.0,0.0,0.0,0.0,0.365,0.3858,0.4308,0.4741,0.5162,0.5623,0.5494,0.5108,0.4448,0.0,0.0,0.0,0.0,0.0,0.0,0.0,0.0,0.0,0.0,0.0,0.0,0.0,0.0,0.0,0.0,0.0,0.0,0.0,0.0,0.0,0.0,0.0,0.0,0.0,0.0,0.0,0.0,0.0,0.0,0.0,0.0,0.0,0.0,0.0,0.0,0.0,0.0,0.0,0.0,0.0,0.0,0.0,0.0,0.0,0.0,0.0,0.0,0.0,0.0,0.0,0.0,0.0,0.0,0.0,0.0,0.0,0.0,0.0,0.0,0.0,0.0,0.0,0.0,1.2318,1.2276,1.2267,1.2322,1.2284,1.2337,1.3353,1.3203,1.2248,0.0,0.0,0.0,0.0,0.0,0.0,0.0,0.0,0.0,0.0,0.0,0.0,0.0,0.0,0.0,0.0,0.0,0.0,0.0,0.0,0.0694,0.2506,0.3189,0.3481,0.3461,0.3475,0.3482,0.3482,0.1524,0.0,0.0,0.0,0.3064,0.3605,0.3757,0.4121,0.471,0.5446,0.5827,0.5772,0.5752,0.5691,0.5513,0.5284,0.0,0.0,0.0,0.0,0.0,0.0,0.0,0.0,0.0,0.0,0.0,0.0,0.0,0.0,0.0,0.0,0.0,0.0,0.0,0.0,0.0,0.0,0.0,0.0,0.0,0.0,0.0,0.0,0.0,0.0,0.0,0.0,0.0,0.0,0.0,0.0,0.0,0.0,0.0,0.0,0.0,0.0,0.0,0.4697,0.3714,0.0,0.0,0.0,0.0,0.0,0.0,0.0,0.0,0.0,0.0,0.0,0.0,0.0,0.0,1.2048,1.2068,1.2164,1.2303,1.2318,1.2332,1.2296,1.2299,1.2283,1.2334,1.2466,0.0,1.2403,1.3297,0.0,0.0,0.0,0.0,0.0,0.0,0.0,0.0,0.0,0.0,0.0,0.0,0.0,0.0,0.0,0.0,0.0,0.0,0.0,0.0,0.0,0.343,0.3077,0.1686,0.1587,0.1587,0.1589,0.0601,0.0,0.0,0.3277,0.3855,0.4075,0.4524,0.5088,0.5721,0.6207,0.6458,0.6552,0.6391,0.6398,0.6465,0.6094,0.5915,0.5903,0.5575,0.0,0.0,0.0,0.0,0.0,0.0,0.0,0.0,0.0,0.0,0.0,0.0,0.0,0.0,0.0,0.0,0.0,0.0,0.0,0.0,0.0,0.0,0.0,0.0,0.0,0.0,0.0,0.0,0.0,0.0,0.0,0.0,0.0,0.0,0.0,0.0,0.0,0.0,0.0,0.5211,0.5735,0.5185,0.5367,0.5479,0.0,0.0,0.0,0.0,0.0,0.0,0.0,0.0,0.0,0.818,0.9145,1.0498,1.2254,1.2332,1.2283,1.2283,1.2273,1.2648,1.3346,1.3307,1.3279,1.3279,1.3279,1.3306,1.3314,1.3159,1.2743,1.2359,0.0,0.0,0.0,0.0,0.0,1.3074,0.0,0.0,0.0,0.0,0.0,0.0,0.0,0.0,0.0,0.0,0.0,0.0,0.2761,0.2697,0.1983,0.0179,0.0,0.048,0.1516,0.1467,0.2355,0.4649,0.4727,0.4718,0.4729,0.5452,0.6022,0.6356,0.6661,0.682,0.6994,0.684,0.686,0.6864,0.6461,0.6311,0.6369,0.6301,0.579,0.0,0.0,0.0,0.0,0.0,0.0,0.0,0.0,0.0,0.0,0.0,0.0,0.0,0.0,0.0,0.0,0.0,0.0,0.0,0.0,0.0,0.0,0.0,0.0,0.0,0.0,0.0,0.0,0.0,0.0,0.0,0.0,0.0,0.0,0.0,0.0,0.0,0.0,0.5693,0.6145,0.631,0.6272,0.6134,0.0,0.0,0.0,0.0,0.0,0.0,1.0779,0.8325,0.6693,0.6331,1.0528,1.2739,1.2785,1.2798,1.2798,1.2798,1.2781,1.3205,1.4074,1.442,1.4559,1.4545,1.4266,1.4144,1.3995,1.3171,1.2595,1.2289,1.2286,1.2457,1.277,1.2797,1.2764,1.2769,0.0,0.0,0.0,0.0,0.0,0.0,0.0,0.0,0.0,0.0,0.0,0.2717,0.0438,0.0176,0.0123,0.0,0.0,0.1681,0.5697,0.5474,0.5172,0.5372,0.5379,0.5379,0.5329,0.6434,0.6707,0.6051,0.677,0.6967,0.6589,0.6711,0.6587,0.6316,0.6282,0.6473,0.6709,0.69,0.6732,0.6162,0.5583,0.0,0.0,0.0,0.0,0.0,0.0,0.0,0.0,0.0,0.0,0.0,0.0,0.0,0.0,0.0,0.0,0.0,0.0,0.0,0.0,0.0,0.0,0.0,0.0,0.0,0.0,0.0,0.0,0.0,0.0,0.0,0.0,0.0,0.0,0.0,0.0,0.0,0.0,0.6193,0.6317,0.0,0.0,0.0,0.0,0.6243,0.6492,0.6597,0.6565,0.6458,0.6331,0.6312,1.1348,1.3981,1.4008,1.4005,1.4041,1.4041,1.4025,1.4069,1.4109,1.526,1.5707,1.5617,1.4589,1.4091,1.4091,1.4022,1.3292,1.233,1.2293,1.2989,1.4008,1.4019,1.4007,1.3994,0.0,0.0,0.0,0.0,0.0976,0.1338,0.018,0.1884,0.3358,0.3561,0.2224,0.095,0.0118,0.0,0.0,0.0,0.2503,0.4676,0.6187,0.644,0.6345,0.6022,0.6286,0.6134,0.5448,0.6152,0.664,0.6714,0.6792,0.6943,0.7269,0.7034,0.6869,0.6863,0.7197,0.7272,0.6933,0.6695,0.6675,0.6791,0.657,0.6019,0.0,0.0,0.0,0.0,0.0,0.0,0.0,0.0,0.0,0.0,0.0,0.0,0.0,0.0,0.0,0.0,0.0,0.0,0.0,0.0,0.0,0.0,0.0,0.0,0.0,0.0,0.0,0.0,0.0,0.0,0.0,0.0,0.0,0.0,0.0,0.0,0.0,0.6311,0.6295,0.0,0.0,0.6331,0.6311,0.6271,0.6304,0.7732,1.1106,1.1355,1.1299,1.1305,1.3102,1.4489,1.5186,1.5196,1.5149,1.5149,1.5157,1.5205,1.5187,1.5609,1.5769,1.5755,1.5349,1.5228,1.5232,1.52,1.4511,1.3471,1.347,1.4145,1.5209,1.5228,1.488,1.449,0.0,0.0,0.0,0.01,0.0988,0.1585,0.0996,0.2432,0.3296,0.2498,0.0989,0.0,0.0,0.0,0.0,0.0,0.3827,0.6318,0.627,0.6633,0.6773,0.6579,0.6707,0.6457,0.5711,0.6267,0.678,0.7086,0.7139,0.7256,0.7452,0.7401,0.7401,0.7452,0.7794,0.7806,0.7409,0.6982,0.698,0.7116,0.6926,0.6521,0.5985,0.0,0.0,0.0,0.0,0.0,0.0,0.0,0.0,0.0,0.0,0.0,0.0,0.0,0.0,0.0,0.0,0.0,0.0,0.0,0.0,0.0,0.0,0.0,0.0,0.0,0.0,0.0,0.0,0.0,0.0,0.0,0.0,0.0,0.0,0.0,0.6338,0.6308,0.6458,0.6607,0.6589,0.6602,0.6538,0.6583,0.6531,0.8068,1.1574,1.362,1.4636,1.4661,1.4665,1.508,1.5826,1.5819,1.5782,1.5782,1.5782,1.5773,1.5765,1.5765,1.5765,1.5765,1.5765,1.5749,1.5782,1.5782,1.5345,1.4628,1.4636,1.5161,1.5763,1.5763,1.5361,1.4774,0.0,0.0,0.2091,0.0367,0.007,0.0699,0.2451,0.3146,0.2661,0.033,0.0,0.0,0.0,0.0,0.0076,0.0155,0.3908,0.6264,0.6298,0.627,0.6562,0.704,0.0,0.0,0.6293,0.6871,0.7095,0.7119,0.7738,0.7739,0.7135,0.7782,0.7985,0.8038,0.7986,0.8014,0.8007,0.7963,0.7625,0.7109,0.6532,0.6613,0.7044,0.0,0.0,0.0,0.0,0.0,0.0,0.0,0.0,0.0,0.0,0.0,0.0,0.0,0.0,0.0,0.0,0.0,0.0,0.0,0.0,0.0,0.0,0.0,0.0,0.0,0.0,0.0,0.0,0.0,0.0,0.0,0.0,0.0,0.6317,0.6295,0.6318,0.6324,0.6791,0.7119,0.7111,0.7125,0.7101,0.7143,0.7148,0.7085,0.7121,1.2654,1.5826,1.5819,1.5782,1.5828,1.5828,1.5792,1.5832,1.5832,1.5845,1.5845,1.5845,1.575,1.575,1.5845,1.5845,1.5845,1.5845,1.5845,1.5845,1.5805,1.5832,1.5805,1.5805,1.5805,1.5493,1.499,0.0,0.0403,0.1009,0.1814,0.1966,0.2291,0.3195,0.1999,0.0741,0.0114,0.0,0.0,0.0,0.0,0.1243,0.4302,0.5646,0.6335,0.6298,0.629,0.6325,0.6505,0.0,0.0,0.6903,0.7054,0.7321,0.772,0.8355,0.8575,0.8364,0.809,0.8037,0.7991,0.8045,0.7977,0.797,0.8014,0.7903,0.7691,0.7128,0.6739,0.6531,0.0,0.0,0.0,0.0,0.0,0.0,0.0,0.0,0.0,0.0,0.0,0.0,0.0,0.0,0.0,0.0,0.0,0.0,0.0,0.0,0.0,0.0,0.0,0.0,0.0,0.0,0.0,0.0,0.0,0.0,0.0,0.0,0.6278,0.6284,0.627,0.6459,0.684,0.6993,0.7122,0.7106,0.7513,0.7717,0.7759,0.778,0.7722,0.7771,1.2901,1.5846,1.5819,1.5819,1.5819,1.5819,1.5792,1.5832,1.5832,1.5827,1.5822,1.5822,1.581,1.5797,1.5822,1.5822,1.5822,1.5822,1.5822,1.583,1.5849,1.5818,1.5805,1.5805,1.5805,1.5698,1.5591,0.0134,0.0,0.0574,0.2396,0.2694,0.2567,0.2173,0.0879,0.0,0.0,0.0,0.0,0.0,0.1544,0.3616,0.6067,0.6302,0.627,0.6311,0.6538,0.6648,0.0,0.0,0.7188,0.7449,0.7704,0.8038,0.8357,0.8744,0.8934,0.8906,0.8536,0.822,0.8051,0.8006,0.8038,0.8031,0.8048,0.7973,0.7994,0.7624,0.7141,0.6646,0.6377,0.6087,0.5777,0.5786,0.5567,0.5243,0.5256,0.0,0.0,0.0,0.0,0.0,0.0,0.0,0.0,0.0,0.0,0.0,0.0,0.0,0.0,0.0,0.0,0.0,0.0,0.0,0.0,0.0,0.0,0.0,0.0,0.6688,0.6662,0.6672,0.6655,0.6794,0.7025,0.7299,0.7519,0.7469,0.7787,0.8041,0.7973,0.7979,0.8021,0.7997,1.0913,1.352,1.5725,1.5817,1.5765,1.5765,1.5765,1.5765,1.5765,1.581,1.6012,1.6572,1.652,1.6507,0.0,1.6012,1.5789,1.5888,1.6334,1.6553,0.0,0.0,0.0,0.0,0.0,1.5939,1.5832,0.0303,0.0,0.0578,0.2388,0.2738,0.2181,0.0265,0.0,0.0,0.0,0.0,0.0,0.0,0.3381,0.5617,0.5605,0.5617,0.5836,0.6377,0.6847,0.0,0.7093,0.7224,0.753,0.8079,0.8663,0.8924,0.8864,0.889,0.8852,0.8845,0.8906,0.8536,0.7975,0.8032,0.7952,0.8038,0.8038,0.7963,0.8035,0.8014,0.765,0.7027,0.6599,0.6351,0.6352,0.6345,0.6301,0.6198,0.5768,0.0,0.0,0.0,0.0,0.0,0.0,0.0,0.0,0.0,0.0,0.0,0.0,0.0,0.0,0.0,0.0,0.0,0.0,0.0,0.0,0.0,0.0,0.0,0.0,0.6441,0.7112,0.7195,0.7175,0.7215,0.7217,0.7636,0.7984,0.8042,0.7966,0.7984,0.7955,0.8084,0.811,0.8079,0.0,0.0,0.0,0.0,1.6023,1.601,1.601,1.601,1.601,1.6036,1.6518,1.7548,1.759,1.7576,1.7548,1.6518,1.596,1.6062,1.7204,1.7576,1.7475,1.6413,1.636,1.6787,1.642,1.6056,0.0,0.0068,0.0,0.0578,0.2393,0.3097,0.2672,0.0369,0.0,0.0,0.0,0.0,0.0,0.0,0.0698,0.1254,0.1254,0.1192,0.2861,0.6668,0.7073,0.7115,0.7063,0.8058,0.8645,0.8709,0.8871,0.8918,0.8852,0.8879,0.8893,0.8893,0.8852,0.8587,0.8001,0.7975,0.7951,0.8038,0.8038,0.8024,0.7984,0.7959,0.7617,0.7105,0.6966,0.6916,0.6912,0.645,0.6325,0.5759,0.2376,0.066,0.0,0.0,0.0,0.0,0.0,0.0,0.0,0.0,0.0,0.0,0.0,0.0,0.0,0.0,0.0,0.0,0.0,0.0,0.0,0.0,0.0,0.0,0.1196,0.4491,0.7305,0.7726,0.7859,0.7865,0.7849,0.7952,0.7979,0.8052,0.7971,0.8044,0.7994,0.8438,0.8772,0.8682,0.8744,0.0,1.7082,1.72,1.72,1.7291,1.7291,1.7291,1.7291,0.0,0.0,1.7649,1.7551,1.7646,1.7556,1.7316,1.7303,1.7303,1.7543,1.7567,1.7564,1.7319,1.7282,1.7382,1.6647,1.5657,1.4731,0.0,0.0,0.0552,0.2374,0.2202,0.1391,0.0187,0.0,0.0,0.0,0.0,0.0,0.0,0.0,0.0,0.0,0.0,0.1993,0.0,0.7135,0.7138,0.712,0.8258,0.8866,0.8913,0.8858,0.8866,0.894,0.894,0.894,0.8933,0.8893,0.8735,0.8472,0.8123,0.7978,0.8038,0.8038,0.8038,0.8031,0.797,0.7855,0.7583,0.759,0.7201,0.6628,0.6423,0.4957,0.2817,0.0704,0.0,0.0,0.0,0.0,0.0,0.0,0.0,0.0,0.0,0.0,0.0,0.0,0.0,0.0,0.0,0.0,0.0,0.0,0.0,0.0,0.0,0.0,0.0,0.0,0.4041,0.7447,0.8289,0.8467,0.833,0.8059,0.8039,0.7998,0.804,0.8267,0.8438,0.8474,0.8776,0.8858,0.8927,0.8899,1.0398,1.3546,1.6795,1.8455,1.8523,1.8523,1.8523,1.8523,1.8455,1.8509,1.8509,1.8534,1.8534,1.8523,1.8523,1.8523,1.8523,1.848,1.8477,1.8544,1.8509,1.7318,1.562,1.5692,1.4849,1.3677,0.0,0.0361,0.1176,0.2633,0.1299,0.0,0.0,0.0,0.0,0.0,0.0,0.0,0.0,0.0,0.0,0.0,0.0,0.1588,0.0,0.5681,0.6139,0.7033,0.8153,0.8751,0.8925,0.8948,0.8906,0.894,0.894,0.894,0.8933,0.8893,0.8849,0.8905,0.8227,0.7978,0.8045,0.8045,0.8052,0.7952,0.7972,0.7959,0.7997,0.7994,0.6802,0.5114,0.5063,0.2924,0.0,0.0,0.0,0.0,0.0,0.0,0.0,0.0,0.0,0.0,0.0,0.0,0.0,0.0,0.0,0.0,0.0,0.0,0.0,0.0,0.0,0.0,0.0,0.0,0.0,0.0,0.3231,0.6458,0.8554,0.8862,0.8689,0.8227,0.8229,0.8177,0.813,0.8574,0.8869,0.8941,0.8954,0.8957,0.9071,0.905,0.93,0.9802,1.6046,1.9357,1.9417,1.9417,1.9417,1.9417,1.9417,1.9417,1.9417,1.9417,1.9417,1.9417,1.9417,1.9417,1.9431,1.9429,1.8599,1.7503,1.7514,1.5637,1.299,1.3689,1.3347,1.2521,0.0,0.1723,0.3259,0.3447,0.1553,0.0,0.0,0.0,0.0,0.0,0.0,0.0,0.0,0.0,0.0,0.0,0.0,0.0,0.0775,0.0778,0.27,0.6955,0.7771,0.8348,0.8845,0.8852,0.8913,0.894,0.894,0.894,0.8933,0.8893,0.8849,0.8905,0.824,0.7998,0.7972,0.7979,0.7985,0.7985,0.7985,0.8018,0.7986,0.8013,0.5,0.0704,0.0665,0.0401,0.0,0.0,0.0,0.0,0.0,0.0,0.0,0.0,0.0,0.0,0.0,0.0,0.0,0.0,0.0,0.0,0.0,0.0,0.0,0.0,0.0,0.0,0.0,0.0,0.0,0.0,0.0443,0.2688,0.8135,0.8878,0.8865,0.8839,0.8818,0.8807,0.8749,0.8886,0.889,0.8928,0.8852,0.9103,0.9708,0.9731,0.9745,0.9838,1.6049,1.9429,1.9394,1.9394,1.9394,1.9394,1.9394,1.9394,1.9394,1.9394,1.9394,1.9394,1.9394,1.9394,1.9394,1.9408,1.602,1.0903,1.0871,1.0569,1.0191,1.0333,1.094,1.1617,0.0,0.1928,0.3143,0.1753,0.0653,0.0,0.0,0.0,0.0,0.0,0.0,0.0,0.0,0.0,0.0,0.0,0.0,0.0,0.0,0.0,0.0885,0.2875,0.3164,0.4885,0.8253,0.8728,0.8893,0.8852,0.8933,0.8933,0.8845,0.8893,0.8735,0.8384,0.8117,0.6246,0.3307,0.331,0.331,0.361,0.679,0.6131,0.3315,0.332,0.1918,0.0,0.0,0.0,0.0,0.0,0.0,0.0,0.0,0.0,0.0,0.0,0.0,0.0,0.0,0.0,0.0,0.0,0.0,0.0,0.0,0.0,0.0,0.0,0.0,0.0,0.0,0.0,0.0,0.0,0.0,0.0926,0.3408,0.3763,0.505,0.8476,0.9191,0.93,0.895,0.9198,0.9367,0.9374,0.9462,0.9517,0.9759,0.9779,0.9806,0.9822,1.6001,1.9443,1.9362,1.9412,1.9372,1.9372,1.9372,1.9372,1.9372,1.9372,1.9372,1.9372,1.9452,1.9362,1.9376,1.9417,1.7803,1.5017,1.1319,0.9754,0.9761,0.9849,1.0059,1.0465,0.0134,0.1391,0.207,0.0314,0.0,0.0,0.0,0.0,0.0,0.0,0.0,0.0,0.0,0.0,0.0,0.0,0.0,0.0,0.0,0.0,0.0,0.0,0.0,0.1837,0.5698,0.6271,0.6445,0.6398,0.6478,0.6493,0.6443,0.6491,0.6157,0.5794,0.577,0.3662,0.0,0.0,0.0,0.0298,0.4215,0.3482,0.0,0.0,0.0,0.0,0.0,0.0,0.0,0.0,0.0,0.0,0.0,0.0,0.0,0.0,0.0,0.0,0.0,0.0,0.0,0.0,0.0,0.0,0.0,0.0,0.0,0.0,0.0,0.0,0.0,0.0,0.0,0.0,0.0,0.0,0.0,0.0,0.1546,0.5958,0.8467,0.9662,0.915,0.9593,0.9821,0.9745,0.9849,0.9792,0.9792,0.9768,0.9788,0.984,1.4282,1.7636,1.9325,1.9426,1.9372,1.9372,1.9372,1.9372,1.9372,1.9399,1.9439,1.9376,1.9351,1.8332,1.6773,1.672,1.6811,1.6331,1.1655,0.9829,0.9761,0.9761,0.9856,0.9822,0.0449,0.0045,0.009,0.0,0.0,0.0,0.0,0.0,0.0,0.0,0.0,0.0,0.0,0.0,0.0,0.0,0.0,0.0,0.0,0.0,0.0,0.0,0.0,0.0092,0.0195,0.0299,0.0307,0.0318,0.0318,0.0321,0.0217,0.0315,0.0309,0.0206,0.0203,0.0201,0.0,0.0,0.0,0.0,0.0192,0.0187,0.0,0.0,0.0,0.0,0.0,0.0,0.0,0.0,0.0,0.0,0.0,0.0,0.0,0.0,0.0,0.0,0.0,0.0,0.0,0.0,0.0,0.0,0.0,0.0,0.0,0.0,0.0,0.0,0.0,0.0,0.0,0.0,0.0,0.0,0.0,0.0,0.0123,0.0246,0.5908,0.9754,0.0,0.982,0.9786,0.9802,0.9815,0.9815,0.9815,0.9822,0.9788,0.984,1.0017,1.3031,1.9325,1.9426,1.9372,1.9372,1.9372,1.9372,1.9372,1.9376,1.9404,1.9417,1.9417,1.5882,1.0094,1.0101,1.0144,1.0088,0.984,0.9849,0.979,0.979,0.9821,0.9822,0.2563,0.1077,0.0,0.0,0.0,0.0,0.0,0.0,0.0,0.0,0.0,0.0,0.0,0.0,0.0,0.0,0.0,0.0,0.0,0.0,0.0,0.0,0.0,0.0,0.0,0.0,0.0,0.0,0.0,0.0,0.0,0.0,0.0,0.0,0.0,0.0,0.0,0.0,0.0,0.0,0.0,0.0,0.0,0.0,0.0,0.0,0.0,0.0,0.0,0.0,0.0,0.0,0.0,0.0,0.0,0.0,0.0,0.0,0.0,0.0,0.0,0.0,0.0,0.0,0.0,0.0,0.0,0.0,0.0,0.0,0.0,0.0,0.0,0.0,0.0,0.0,0.0,0.0,0.0,0.0,0.5798,0.0,0.0,0.0,0.0,0.9815,0.9822,0.9822,0.9822,0.9781,0.9741,0.984,0.9772,1.2839,1.9337,1.9364,1.9351,1.9391,1.9443,1.9404,1.9273,1.5032,1.3049,1.3086,1.3021,1.1799,0.9806,0.9854,0.9822,0.9808,0.9808,0.979,0.9816,1.0202,1.0426,1.0385,0.2474,0.1077,0.0,0.0,0.0,0.0,0.0,0.0,0.0,0.0,0.0,0.0,0.0,0.0,0.0,0.0,0.0,0.0,0.0,0.0,0.0,0.0,0.0,0.0,0.0,0.0,0.0,0.0,0.0,0.0,0.0,0.0,0.0,0.0,0.0,0.0,0.0,0.0,0.0,0.0,0.0,0.0,0.0,0.0,0.0,0.0,0.0,0.0,0.0,0.0,0.0,0.0,0.0,0.0,0.0,0.0,0.0,0.0,0.0,0.0,0.0,0.0,0.0,0.0,0.0,0.0,0.0,0.0,0.0,0.0,0.0,0.0,0.0,0.0,0.0,0.0,0.0,0.0,0.0,0.0,0.3699,0.7168,0.0,0.0,0.0,0.9822,0.9822,0.9822,0.9822,0.9754,1.0838,1.3102,1.3223,1.4055,1.5904,1.8618,1.8695,1.597,1.6002,1.5991,1.5828,1.1663,0.9795,0.9774,0.9747,0.9787,0.9794,0.9841,0.979,0.987,1.0002,1.0096,1.0223,1.0621,1.0656,1.069,0.0449,0.0,0.0,0.0,0.0,0.0,0.0,0.0,0.0,0.0,0.0,0.0,0.0,0.0,0.0,0.0,0.0,0.0,0.0,0.0,0.0,0.0,0.0,0.0,0.0,0.0,0.0,0.0,0.0,0.0,0.0,0.0,0.0,0.0,0.0,0.0,0.0,0.0,0.0,0.0,0.0,0.0,0.0,0.0,0.0,0.0,0.0,0.0,0.0,0.0,0.0,0.0,0.0,0.0,0.0,0.0,0.0,0.0,0.0,0.0,0.0,0.0,0.0,0.0,0.0,0.0,0.0,0.0,0.0,0.0,0.0,0.0,0.0,0.0,0.0,0.0,0.0,0.0,0.0,0.0,0.0,0.0,0.0,0.0,0.0,0.9822,0.0,0.9822,0.9822,0.9754,1.2724,1.9228,1.9365,1.6469,1.0347,1.7126,1.6924,0.9822,0.9841,0.9881,0.9828,0.983,0.9863,0.9817,0.9829,0.9888,0.9888,0.9888,0.9888,0.9895,1.0424,1.0649,1.0637,1.0637,1.0733,1.0683,0.0,0.0,0.0,0.0,0.0,0.0,0.0,0.0,0.0,0.0,0.0,0.0,0.0,0.0,0.0,0.0,0.0,0.0,0.0,0.0,0.0,0.0,0.0,0.0,0.0,0.0,0.0,0.0,0.0,0.0,0.0,0.0,0.0,0.0,0.0,0.0,0.0,0.0,0.0,0.0,0.0,0.0,0.0,0.0,0.0,0.0,0.0,0.0,0.0,0.0,0.0,0.0,0.0,0.0,0.0,0.0,0.0,0.0,0.0,0.0,0.0,0.0,0.0,0.0,0.0,0.0,0.0,0.0,0.0,0.0,0.0,0.0,0.0,0.0,0.0,0.0,0.0,0.0,0.0,0.0,0.0,0.0616,0.2334,0.6898,0.0,0.0,0.9822,0.9822,0.9822,0.9754,1.2689,1.9218,1.9389,1.8583,1.6982,1.4058,1.193,1.0492,1.0465,1.0436,1.0411,1.0059,1.0002,1.0482,1.0524,1.041,1.041,1.041,1.0472,1.0439,1.0704,1.0664,1.0663,1.0663,1.0697,1.0738,0.0,0.0,0.0,0.0,0.0,0.0,0.0,0.0,0.0,0.0,0.0,0.0,0.0,0.0,0.0,0.0,0.0,0.0,0.0,0.0,0.0,0.0,0.0,0.0,0.0,0.0,0.0,0.0,0.0,0.0,0.0,0.0,0.0,0.0,0.0,0.0,0.0,0.0,0.0,0.0,0.0,0.0,0.0,0.0,0.0,0.0,0.0,0.0,0.0,0.0,0.0,0.0,0.0,0.0,0.0,0.0,0.0,0.0,0.0,0.0,0.0,0.0,0.0,0.0,0.0,0.0,0.0,0.0,0.0,0.0,0.0,0.0,0.0,0.0,0.0,0.0,0.0,0.0,0.0,0.0,0.0,0.0,0.0,0.5916,0.9767,0.0,0.9836,0.9822,0.9822,0.9754,1.1439,1.5059,1.7876,1.8007,1.5189,1.1614,0.991,1.0365,1.0355,1.0322,1.028,1.0215,1.0417,1.0642,0.0,1.0739,1.0739,1.0739,1.0658,1.0726,1.074,1.0663,1.0738,1.0751,1.0765,1.0505,0.0,0.0,0.0,0.0,0.0,0.0,0.0,0.0,0.0,0.0,0.0,0.0,0.0,0.0,0.0,0.0,0.0,0.0,0.0,0.0,0.0,0.0,0.0,0.0,0.0,0.0,0.0,0.0,0.0,0.0,0.0,0.0,0.0,0.0,0.0,0.0,0.0,0.0,0.0,0.0,0.0,0.0,0.0,0.0,0.0,0.0,0.0,0.0,0.0,0.0,0.0,0.0,0.0,0.0,0.0,0.0,0.0,0.0,0.0,0.0,0.0,0.0,0.0,0.0,0.0,0.0,0.0,0.0,0.0,0.0,0.0,0.0,0.0,0.0,0.0,0.0,0.0,0.0,0.0,0.0,0.0,0.0,0.0,0.5925,0.9787,0.9774,0.9856,0.9822,0.9822,0.9768,0.9847,0.984,1.5979,1.6301,0.987,0.9829,0.9828,0.9771,0.9764,0.9849,0.9761,1.0405,1.0753,1.0664,0.0,0.0,1.0717,1.0717,1.0724,1.0724,1.0744,1.0073,0.9262,0.9291,0.985,1.0264,0.0,0.0,0.0,0.0,0.0,0.0,0.0,0.0,0.0,0.0,0.0,0.0,0.0,0.0,0.0,0.0,0.0,0.0,0.0,0.0,0.0,0.0,0.0,0.0,0.0,0.0,0.0,0.0,0.0,0.0,0.0,0.0,0.0,0.0,0.0,0.0,0.0,0.0,0.0,0.0,0.0,0.0,0.0,0.0,0.0,0.0,0.0,0.0,0.0,0.0,0.0,0.0,0.0,0.0,0.0,0.0,0.0,0.0,0.0,0.0,0.0,0.0,0.0,0.0,0.0,0.0,0.0,0.0,0.0,0.0,0.0,0.0,0.0,0.0,0.0,0.0,0.0,0.0,0.0,0.0,0.0,0.0,0.0,0.5929,0.0,0.0,0.0,0.9842,0.9822,0.9808,0.9774,0.984,1.6014,1.6264,0.982,0.9795,0.9849,0.9863,0.9761,0.9777,0.9761,1.0438,1.0718,1.0683,1.0711,0.0,1.0717,1.0717,1.0731,1.0751,1.0751,0.7098,0.1872,0.1873,0.564,1.0564,0.0,0.0,0.0,0.0,0.0,0.0,0.0,0.0,0.0,0.0,0.0,0.0,0.0,0.0,0.0,0.0,0.0,0.0,0.0,0.0,0.0,0.0,0.0,0.0,0.0,0.0,0.0,0.0,0.0,0.0,0.0,0.0,0.0,0.0,0.0,0.0,0.0,0.0,0.0,0.0,0.0,0.0,0.0,0.0,0.0,0.0,0.0,0.0,0.0,0.0,0.0,0.0,0.0,0.0,0.0,0.0,0.0,0.0,0.0,0.0,0.0,0.0,0.0,0.0,0.0,0.0,0.0,0.0,0.0,0.0,0.0,0.0,0.0,0.0,0.0,0.0,0.0,0.0,0.0,0.0,0.0,0.0,0.0,0.5904,0.9808,0.9781,0.0,0.9842,0.9822,0.9822,0.9788,0.984,1.5991,1.6255,0.984,0.9788,0.9822,0.9822,0.9822,0.9854,0.9761,1.041,1.0704,1.0717,1.0717,0.0,1.0717,1.0717,1.0731,1.0345,0.656,0.3076,0.0,0.0,0.215,0.5662,0.0,0.0,0.0,0.0,0.0,0.0,0.0,0.0,0.0,0.0,0.0,0.0,0.0,0.0,0.0,0.0,0.0,0.0,0.0,0.0,0.0,0.0,0.0,0.0,0.0,0.0,0.0,0.0,0.0,0.0,0.0,0.0,0.0,0.0,0.0,0.0,0.0,0.0,0.0,0.0,0.0,0.0,0.0,0.0,0.0,0.0,0.0,0.0,0.0,0.0,0.0,0.0,0.0,0.0,0.0,0.0,0.0,0.0,0.0,0.0,0.0,0.0,0.0,0.0,0.0,0.0,0.0,0.0,0.0,0.0,0.0,0.0,0.0,0.0,0.0,0.0,0.0,0.0,0.0,0.0,0.0,0.0,0.0,0.4645,0.0,0.9691,0.0,0.0,0.9822,0.9822,0.9788,0.984,1.4741,1.4872,0.984,0.9788,0.9822,0.9822,0.9822,0.9854,0.9761,1.041,1.0704,1.0717,1.0717,0.0,0.0,1.0724,1.0744,0.9946,0.2809,0.0,0.0,0.0,0.0,0.0808,0.0,0.0,0.0,0.0,0.0,0.0,0.0,0.0,0.0,0.0,0.0,0.0,0.0,0.0,0.0,0.0,0.0,0.0,0.0,0.0,0.0,0.0,0.0,0.0,0.0,0.0,0.0,0.0,0.0,0.0,0.0,0.0,0.0,0.0,0.0,0.0,0.0,0.0,0.0,0.0,0.0,0.0,0.0,0.0,0.0,0.0,0.0,0.0,0.0,0.0,0.0,0.0,0.0,0.0,0.0,0.0,0.0,0.0,0.0,0.0,0.0,0.0,0.0,0.0,0.0,0.0,0.0,0.0,0.0,0.0,0.0,0.0,0.0,0.0,0.0,0.0,0.0,0.0,0.0,0.0,0.0,0.0,0.0,0.0607,0.3334,0.9316,0.0,0.0,0.9829,0.9822,0.9788,0.984,1.0407,1.0415,0.984,0.9788,0.9822,0.9822,0.9822,0.9854,0.9761,1.041,1.0704,1.0717,1.0717,0.0,0.0,1.0744,1.0638,0.9984,0.2816,0.0,0.0,0.0,0.0,0.0135,0.0,0.0,0.0,0.0,0.0,0.0,0.0,0.0,0.0,0.0,0.0,0.0,0.0,0.0,0.0,0.0,0.0,0.0,0.0,0.0,0.0,0.0,0.0,0.0,0.0,0.0,0.0,0.0,0.0,0.0,0.0,0.0,0.0,0.0,0.0,0.0,0.0,0.0,0.0,0.0,0.0,0.0,0.0,0.0,0.0,0.0,0.0,0.0,0.0,0.0,0.0,0.0,0.0,0.0,0.0,0.0,0.0,0.0,0.0,0.0,0.0,0.0,0.0,0.0,0.0,0.0,0.0,0.0,0.0,0.0,0.0,0.0,0.0,0.0,0.0,0.0,0.0,0.0,0.0,0.0,0.0,0.0,0.0,0.0,0.1104,0.0,0.0,0.0,0.9861,0.9754,0.9808,0.9781,0.9808,0.9808,0.9781,0.9808,0.9822,0.9822,0.9822,0.9854,0.9761,1.041,1.0704,1.0717,1.0717,0.0,0.0,1.0751,0.8189,0.4026,0.1073,0.0,0.0,0.0,0.0,0.0,0.0,0.0,0.0,0.0,0.0,0.0,0.0,0.0,0.0,0.0,0.0,0.0,0.0,0.0,0.0,0.0,0.0,0.0,0.0,0.0,0.0,0.0,0.0,0.0,0.0,0.0,0.0,0.0,0.0,0.0,0.0,0.0,0.0,-0.0066,0.0,0.0,0.0,0.0,0.0,0.0,0.0,0.0,0.0,0.0,0.0,0.0,0.0,0.0,0.0,0.0,0.0,0.0,0.0,0.0,0.0,0.0,0.0,0.0,0.0,0.0,0.0,0.0,0.0,0.0,0.0,0.0,0.0,0.0,0.0,0.0,0.0,0.0,0.0,0.0,0.0,0.0,0.0,0.0,0.0,0.0,0.0,0.0,0.0,0.0,0.0,0.0,0.0,0.0,1.0035,0.9868,0.9754,0.9822,0.9822,0.9822,0.9822,0.9822,0.9822,0.9822,0.9822,0.9854,0.9761,1.041,1.0704,1.0717,0.0,0.0,0.0,0.8446,0.4551,0.0,0.0,0.0,0.0,0.0,0.0,0.0,0.0,0.0,0.0,0.0,0.0,0.0,0.0,0.0,0.0,0.0,0.0,0.0,0.0,0.0,0.0,0.0,0.0,0.0,0.0,0.0,0.0,0.0,0.0,0.0,0.0,0.0,0.0,0.0,0.0,0.0,0.0,0.0,0.0,-0.0128,0.0,0.0,0.0,0.0,0.0,0.0,0.0,0.0,0.0,0.0,0.0,0.0,0.0,0.0,0.0,0.0,0.0,0.0,0.0,0.0,0.0,0.0,0.0,0.0,0.0,0.0,0.0,0.0,0.0,0.0,0.0,0.0,0.0,0.0,0.0,0.0,0.0,0.0,0.0,0.0,0.0,0.0,0.0,0.0,0.0,0.0,0.0,0.0,0.0,0.0,0.0,0.0,0.0,0.0,1.0721,1.0168,0.9751,0.9829,0.9822,0.9822,0.9822,0.9822,0.9822,0.9822,0.9822,0.9854,0.9761,1.041,1.0704,0.0,0.0,0.0,0.0,0.3074,0.0134,0.0,0.0,0.0,0.0,0.0,0.0,0.0,0.0,0.0,0.0,0.0,0.0,0.0,0.0,0.0,0.0,0.0,0.0,0.0,0.0,0.0,0.0,0.0,0.0,0.0,0.0,0.0,0.0,0.0,0.0,0.0,0.0,0.0,0.0,0.0,0.0,0.0,-0.0069,-0.2507,-0.3918,-0.433,-0.5041,-0.5385,0.0,0.0,0.0,0.0,0.0,0.0,0.0,0.0,0.0,0.0,0.0,0.0,0.0,0.0,0.0,0.0,0.0,0.0,0.0,0.0,0.0,0.0,0.0,0.0,0.0,0.0,0.0,0.0,0.0,0.0,0.0,0.0,0.0,0.0,0.0,0.0,0.0,0.0,0.0,0.0,0.0,0.0,0.0,0.0,0.0,0.0,0.0,0.0,0.0,0.0,0.0,0.0,1.05,1.0156,0.985,0.9829,0.9822,0.9822,0.9822,0.9822,0.9822,0.9822,0.9822,0.9854,0.9761,1.041,0.0,0.0,0.0,0.0,0.0,0.2948,0.0,0.0,0.0,0.0,0.0,0.0,0.0,0.0,0.0,0.0,0.0,0.0,0.0,0.0,0.0,0.0,0.0,0.0,0.0,0.0,0.0,0.0,0.0,0.0,0.0,0.0,0.0,0.0,0.0,0.0,0.0,0.0,0.0,0.0,0.0,0.0,0.0,-0.0843,-0.2428,-0.4697,-0.5926,-0.6259,-0.5929,-0.5616,0.0,0.0,0.0,0.0,-0.0441,0.0,0.0,0.0,0.0,0.0,0.0,0.0,0.0,0.0,0.0,0.0,0.0,0.0,0.0,0.0,0.0,0.0,0.0,0.0,0.0,0.0,0.0,0.0,0.0,0.0,0.0,0.0,0.0,0.0,0.0,0.0,0.0,0.0,0.0,0.0,0.0,0.0,0.0,0.0,0.0,0.0,0.0,0.0,0.0,0.0,0.0,0.0,0.6409,0.8625,0.9803,0.9741,0.9836,0.9822,0.9822,0.9822,0.9822,0.9822,0.9822,0.9854,0.9761,1.041,0.0,0.0,0.0,0.0,0.0,0.1878,0.0,0.0,0.0,0.0,0.0,0.0,0.0,0.0,0.0,0.0,0.0,0.0,0.0,0.0,0.0,0.0,0.0,0.0,0.0,0.0,0.0,0.0,0.0,0.0,0.0,0.0,0.0,0.0,0.0,0.0,0.0,0.0,0.0,0.0,0.0,-0.0,-0.0373,-0.2492,-0.6392,-0.6318,-0.6298,-0.6302,-0.6293,-0.5936,-0.5304,0.0,0.0,0.0,-0.1458,-0.0217,0.0,0.0,0.0,0.0,0.0,0.0,0.0,0.0,0.0,0.0,0.0,0.0,0.0,0.0,0.0,0.0,0.0,0.0,0.0,0.0,0.0,0.0,0.0,0.0,0.0,0.0,0.0,0.0,0.0,0.0,0.0,0.0,0.0,0.0,0.0,0.0,0.0,0.0,0.0,0.0,0.0,0.0,0.0,0.0,0.0,0.0,0.0,0.5758,0.9329,0.9794,0.9856,0.9829,0.9822,0.9829,0.9822,0.9822,0.9822,0.9854,0.9761,1.041,0.0,0.0,0.0,0.0,0.0,0.0,0.0,0.0,0.0,0.0,0.0,0.0,0.0,0.0,0.0,0.0,0.0,0.0,0.0,0.0,0.0,0.0,0.0,0.0,0.0,0.0,0.0,0.0,0.0,0.0,0.0,0.0,0.0,0.0,0.0,0.0,0.0,0.0,0.0,0.0,0.0,-0.0,-0.3609,-0.5943,-0.6893,-0.6458,-0.6331,-0.6308,-0.6318,-0.5676,-0.4702,-0.4552,0.0,0.0,-0.3545,-0.205,0.0,0.0,0.0,0.0,0.0,0.0,0.0,0.0,0.0,0.0,0.0,0.0,0.0,0.0,0.0,0.0,0.0,0.0,0.0,0.0,0.0,0.0,0.0,0.0,0.0,0.0,0.0,0.0,0.0,0.0,0.0,0.0,0.0,0.0,0.0,0.0,0.0,0.0,0.0,0.0,0.0,0.0,0.0,0.0,0.0,0.0,0.0,0.1405,0.4576,0.9691,0.9781,0.9754,0.9849,0.9754,0.9741,0.9822,0.9836,0.9744,0.9761,1.0431,0.0,0.0,0.0,0.0,0.0,0.0,0.0,0.0,0.0,0.0,0.0,0.0,0.0,0.0,0.0,0.0,0.0,0.0,0.0,0.0,0.0,0.0,0.0,0.0,0.0,0.0,0.0,0.0,0.0,0.0,0.0,0.0,0.0,0.0,0.0,0.0,0.0,0.0,0.0,0.0,-0.081,-0.2455,-0.532,-0.6841,-0.7104,-0.6833,-0.6702,-0.6617,-0.6417,-0.5623,-0.4476,-0.452,-0.4311,-0.4064,-0.4348,0.0,0.0,0.0,0.0,0.0,0.0,0.0,0.0,0.0,0.0,0.0,0.0,0.0,0.0,0.0,0.0,0.0,0.0,0.0,0.0,0.0,0.0,0.0,0.0,0.0,0.0,0.0,0.0,0.0,0.0,0.0,0.0,0.0,0.0,0.0,0.0,0.0,0.0,0.0,0.0,0.0,0.0,0.0,0.0,0.0,0.0,0.0,0.0,0.0,0.1653,0.5197,0.5309,0.5295,0.5273,0.8267,0.8261,0.5384,0.8366,0.9744,0.9816,1.0424,0.8869,0.0,0.0,0.0,0.0,0.0,0.0,0.0,0.0,0.0,0.0,0.0,0.0,-0.0404,0.0,0.0,0.0,0.0,0.0,0.0,0.0,0.0,0.0,0.0,0.0,0.0,0.0,0.0,0.0,0.0,0.0,0.0,0.0,0.0,0.0,0.0,0.0,0.0,0.0,0.0,-0.1897,-0.5695,-0.6129,-0.6595,-0.7098,-0.7098,-0.7062,-0.6973,-0.6485,-0.5614,-0.4504,-0.4518,-0.4504,-0.4512,-0.4509,0.0,0.0,0.0,0.0,0.0,0.0,0.0,0.0,0.0,0.0,0.0,0.0,0.0,0.0,0.0,0.0,0.0,0.0,0.0,0.0,0.0,0.0,0.0,0.0,0.0,0.0,0.0,0.0,0.0,0.0,0.0,0.0,0.0,0.0,0.0,0.0,0.0,0.0,0.0,0.0,0.0,0.0,0.0,0.0,0.0,0.0,0.0,0.0,0.0,0.0,0.0,0.0,0.0,0.0,0.554,0.554,0.0123,0.5659,0.8335,0.8329,0.8846,0.5706,0.0,0.0,0.0,0.0,0.0,0.0,0.0,0.0,0.0,0.0,0.0,0.0,-0.1077,0.0,0.0,0.0,0.0,0.0,0.0,0.0,0.0,0.0,0.0,0.0,0.0,0.0,0.0,0.0,0.0,0.0,0.0,0.0,0.0,0.0,0.0,0.0,0.0,0.0,0.0,-0.2233,-0.6873,-0.649,-0.6612,-0.7085,-0.7085,-0.6903,-0.6388,-0.6321,-0.5596,-0.4521,-0.4528,-0.45,-0.4519,-0.4498,0.0,0.0,0.0,0.0,0.0,0.0,0.0,0.0,0.0,0.0,0.0,0.0,0.0,0.0,0.0,0.0,0.0,0.0,0.0,0.0,0.0,0.0,0.0,0.0,0.0,0.0,0.0,0.0,0.0,0.0,0.0,0.0,0.0,0.0,0.0,0.0,0.0,0.0,0.0,0.0,0.0,0.0,0.0,0.0,0.0,0.0,0.0,0.0,0.0,0.0,0.0,0.0,0.0,0.0,0.0987,0.0985,0.0,0.0983,0.1486,0.1504,0.1657,0.1036,0.0,0.0,0.0,0.0,0.0,0.0,0.0,0.0,0.0,0.0,0.0,0.0,-0.1076,0.0,0.0,0.0,0.0,0.0,0.0,0.0,0.0,0.0,0.0,0.0,0.0,0.0,0.0,0.0,0.0,0.0,0.0,0.0,0.0,0.0,0.0,0.0,0.0,0.0,0.0,-0.2465,-0.7614,-0.7625,-0.7799,-0.8081,-0.7444,-0.682,-0.6303,-0.6268,-0.6,-0.5411,-0.479,-0.45,-0.4519,0.0,0.0,0.0,0.0,0.0,0.0,0.0,0.0,0.0,0.0,0.0,0.0,0.0,0.0,0.0,0.0,0.0,0.0,0.0,0.0,0.0,0.0,0.0,0.0,0.0,0.0,0.0,0.0,0.0,0.0,0.0,0.0,0.0,0.0,0.0,0.0,0.0,0.0,0.0,0.0,0.0,0.0,0.0,0.0,0.0,0.0,0.0,0.0,0.0,0.0,0.0,0.0,0.0,0.0,0.0,0.0,0.0,0.0,0.0,0.0,0.0,0.0,0.0,0.0,0.0,0.0,0.0,0.0,0.0,0.0,0.0,0.0,0.0,0.0,0.0,-0.0537,0.0,0.0,0.0,0.0,0.0,0.0,0.0,0.0,0.0,0.0,0.0,0.0,0.0,0.0,0.0,0.0,0.0,0.0,0.0,0.0,0.0,0.0,0.0,0.0,0.0,-0.1194,-0.3897,-0.802,-0.8571,-0.8826,-0.868,-0.7574,-0.6817,-0.6263,-0.6284,-0.6321,-0.6234,-0.4988,-0.4499,-0.4519,0.0,0.0,0.0,0.0,0.0,0.0,0.0,0.0,0.0,0.0,0.0,0.0,0.0,0.0,0.0,0.0,0.0,0.0,0.0,0.0,0.0,0.0,0.0,0.0,0.0,0.0,0.0,0.0,0.0,0.0,0.0,0.0,0.0,0.0,0.0,0.0,0.0,0.0,0.0,0.0,0.0,0.0,0.0,0.0,0.0,0.0,0.0,0.0,0.0,0.0,0.0,0.0,0.0,0.0,0.0,0.0,0.0,0.0,0.0,0.0,0.0,0.0,0.0,0.0,0.0,0.0,0.0,0.0,0.0,0.0,0.0,0.0,0.0,0.0,-0.1072,-0.2546,0.0,0.0,0.0,0.0,0.0,0.0,0.0,0.0,0.0,0.0,0.0,0.0,0.0,0.0,0.0,0.0,0.0,0.0,0.0,0.0,0.0,0.0,0.0,0.0,0.0,-0.4908,-0.7651,-0.7985,-0.8604,-0.864,-0.8096,-0.74,-0.6794,-0.6338,-0.6337,-0.6336,-0.625,-0.4995,-0.4485,-0.4519,-0.4519,0.0,0.0,0.0,0.0,0.0,0.0,0.0,0.0,0.0,0.0,0.0,0.0,0.0,0.0,0.0,0.0,0.0,0.0,0.0,0.0,0.0,0.0,0.0,0.0,0.0,0.0,0.0,0.0,0.0,0.0,0.0,0.0,0.0,0.0,0.0,0.0,0.0,0.0,0.0,0.0,0.0,0.0,0.0,0.0,0.0,0.0,0.0,0.0,0.0,0.0,0.0,0.0,0.0,0.0,0.0,0.0,0.0,0.0,0.0,0.0,0.0,0.0,0.0,0.0,0.0,0.0,0.0,0.0,0.0,0.0,0.0,0.0,0.0,-0.4152,-0.9977,0.0,0.0,0.0,0.0,0.0,0.0,0.0,0.0,0.0,0.0,0.0,0.0,0.0,0.0,0.0,0.0,0.0,0.0,0.0,0.0,0.0,0.0,0.0,-0.1531,-0.4919,-0.6968,-0.8201,-0.8603,-0.8813,-0.8405,-0.7415,-0.723,-0.6987,-0.6778,-0.6458,-0.6318,-0.6209,-0.5049,-0.4481,-0.4494,-0.4525,-0.4488,0.0,0.0,0.0,0.0,0.0,0.0,0.0,0.0,0.0,0.0,0.0,0.0,0.0,0.0,0.0,0.0,0.0,0.0,0.0,0.0,0.0,0.0,0.0,0.0,0.0,0.0,0.0,0.0,0.0,0.0,0.0,0.0,0.0,0.0,0.0,-0.3482,0.0,0.0,0.0,0.0,0.0,0.0,0.0,0.0,0.0,0.0,0.0,0.0,0.0,0.0,0.0,0.0,0.0,0.0,0.0,0.0,0.0,0.0,0.0,0.0,0.0,0.0,0.0,0.0,0.0,0.0,0.0,-0.0398,-0.4951,-0.6719,-0.6711,-0.6698,-0.8318,-1.0638,0.0,0.0,0.0,0.0,0.0,0.0,0.0,0.0,0.0,0.0,0.0,0.0,0.0,0.0,0.0,0.0,0.0,0.0,0.0,0.0,0.0,0.0,0.0,-0.2331,-0.7354,-0.7581,-0.8125,-0.8947,-0.8881,-0.8251,-0.7088,-0.7144,-0.7059,-0.7111,0.0,0.0,-0.6237,-0.5409,-0.496,-0.4783,-0.4558,-0.4493,0.0,0.0,0.0,0.0,0.0,0.0,0.0,0.0,-0.0769,0.0,0.0,0.0,0.0,0.0,0.0,0.0,0.0,0.0,0.0,0.0,0.0,0.0,0.0,0.0,0.0,0.0,0.0,0.0,0.0,0.0,0.0,0.0,0.0,0.0,0.0,0.0,0.0,0.0,0.0,0.0,0.0,0.0,0.0,0.0,0.0,0.0,0.0,0.0,0.0,0.0,0.0,0.0,0.0,0.0,0.0,0.0,0.0,0.0,0.0,0.0,0.0,0.0,0.0,0.0,-0.0126,-0.2446,-0.3388,-0.3808,-0.8789,-1.0744,-1.0645,-1.0751,-1.0744,-1.0738,0.0,0.0,0.0,0.0,0.0,0.0,0.0,0.0,0.0,0.0,0.0,0.0,0.0,0.0,0.0,0.0,0.0,0.0,0.0,0.0,-0.0,-0.0075,-0.0077,-0.2042,-0.6245,-0.6796,-0.7657,-0.887,-0.8893,-0.8232,-0.7101,-0.7136,0.0,0.0,0.0,0.0,0.0,0.0,0.0,-0.5365,-0.4735,-0.4518,-0.4493,0.0,0.0,0.0,0.0,0.0,0.0,0.0,-0.2506,-0.0,-0.0073,-0.0,0.0,0.0,0.0,-0.0,-0.0086,-0.0,0.0,0.0,0.0,0.0,0.0,0.0,0.0,0.0,0.0,0.0,0.0,0.0,0.0,0.0,0.0,0.0,0.0,0.0,0.0,0.0,0.0,0.0,0.0,0.0,0.0,0.0,0.0,0.0,0.0,0.0,0.0,0.0,0.0,0.0,0.0,0.0,0.0,0.0,0.0,0.0,0.0,0.0,0.0,0.0,0.0,-0.0,-0.0629,-0.7723,-1.0714,-1.0678,-1.0678,-1.0747,-1.0717,-1.0717,-1.0717,-1.0717,0.0,0.0,0.0,0.0,0.0,0.0,0.0,0.0,0.0,0.0,0.0,0.0,0.0,0.0,0.0,0.0,0.0,0.0,0.0,0.0,-0.1324,-0.4264,-0.4453,-0.5036,-0.6274,-0.7253,-0.7866,-0.8302,-0.7838,-0.7488,-0.7145,0.0,0.0,-0.6518,0.0,0.0,0.0,0.0,0.0,-0.5992,-0.5353,-0.4857,-0.4507,0.0,0.0,0.0,0.0,0.0,0.0,0.0,0.0,0.0,-0.303,-0.2014,0.0,0.0,0.0,-0.0708,-0.4078,-0.2569,0.0,0.0,0.0,0.0,0.0,0.0,0.0,0.0,0.0,0.0,0.0,0.0,0.0,0.0,0.0,0.0,0.0,0.0,0.0,0.0,0.0,0.0,0.0,0.0,0.0,0.0,0.0,0.0,0.0,0.0,0.0,0.0,0.0,0.0,0.0,0.0,0.0,0.0,0.0,0.0,0.0,0.0,0.0,0.0,0.0,-0.2587,-0.7084,-0.9181,-1.0076,-1.0101,-1.0473,-1.0664,-1.0706,-1.0683,-1.0717,-1.0717,0.0,0.0,0.0,0.0,0.0,0.0,0.0,0.0,0.0,0.0,0.0,0.0,0.0,0.0,0.0,0.0,0.0,0.0,0.0,-0.1603,-0.3657,-0.6213,-0.6268,-0.6291,-0.6329,-0.6986,-0.7313,-0.7324,-0.7195,-0.7086,0.0,0.0,0.0,-0.6312,0.0,0.0,0.0,0.0,0.0,-0.5944,-0.5547,-0.5169,-0.4816,0.0,0.0,0.0,0.0,0.0,0.0,0.0,0.0,0.0,-0.2586,-0.1766,0.0,0.0,0.0,-0.0625,-0.3465,-0.2148,0.0,0.0,0.0,0.0,0.0,0.0,0.0,0.0,0.0,0.0,0.0,0.0,0.0,0.0,-0.2188,0.0,0.0,0.0,0.0,0.0,0.0,0.0,0.0,0.0,0.0,0.0,0.0,0.0,0.0,0.0,0.0,0.0,-0.4106,-0.4271,-0.4271,-0.4271,-0.4257,-0.4234,-0.4234,-0.4201,-0.4267,-0.3986,-0.3836,-0.3937,-0.3927,-0.6141,-0.9767,-0.9828,-0.9804,-0.9816,-1.0216,-1.0446,-1.0644,-1.0663,-1.0717,-1.0717,0.0,0.0,0.0,0.0,0.0,0.0,0.0,0.0,0.0,0.0,0.0,0.0,0.0,0.0,0.0,0.0,0.0,0.0,0.0,-0.3921,-0.6263,-0.631,-0.629,-0.6317,-0.6318,-0.6279,-0.6325,-0.6286,-0.6807,-0.7097,0.0,0.0,-0.6338,0.0,0.0,-0.6084,0.0,0.0,0.0,-0.544,-0.544,-0.5488,-0.5443,-0.4784,0.0,0.0,0.0,0.0,0.0,0.0,0.0,0.0,0.0,0.0,0.0,0.0,-0.0346,-0.0706,-0.0761,-0.0691,-0.0606,-0.0103,0.0,0.0,0.0,0.0,0.0,0.0,0.0,0.0,0.0,0.0,0.0,0.0,0.0,0.0,0.0,0.0,0.0,0.0,0.0,0.0,0.0,0.0,0.0,0.0,0.0,0.0,0.0,0.0,0.0,-0.9761,-1.033,-1.0692,-1.0706,-1.0719,-1.0658,0.0,-1.0649,-1.0642,-1.0621,-1.0076,-0.981,-0.9814,-0.9767,-0.9747,-0.9747,-0.9836,-0.9781,-0.979,-0.981,-1.0216,-1.076,-1.0643,-1.0711,-1.0717,0.0,0.0,0.0,0.0,0.0,0.0,0.0,0.0,0.0,0.0,0.0,0.0,0.0,0.0,0.0,0.0,0.0,0.0,0.0,-0.3921,-0.6333,-0.6303,-0.6276,-0.6295,-0.627,-0.6304,-0.6283,-0.6279,-0.68,-0.6871,0.0,0.0,0.0,0.0,0.0,-0.6885,0.0,0.0,0.0,-0.5427,-0.5916,-0.6119,-0.6037,-0.5438,-0.4918,0.0,0.0,0.0,0.0,0.0,0.0,0.0,0.0,0.0,0.0,0.0,-0.2947,-0.6259,-0.6276,-0.6301,-0.527,-0.1048,0.0,0.0,0.0,0.0,0.0,0.0,0.0,0.0,0.0,0.0,0.0,0.0,0.0,0.0,0.0,0.0,0.0,0.0,0.0,0.0,0.0,0.0,0.0,0.0,0.0,0.0,0.0,0.0,0.0,-0.9843,-1.039,-1.0663,-1.0644,-1.0767,-1.0677,0.0,-1.0643,-1.0713,-1.0725,-1.0068,-0.9856,-0.9803,-0.981,-0.9757,-0.9744,-0.9747,-0.9842,-0.9761,-0.9784,-1.0188,-1.0735,-1.0753,-1.0754,-1.0717,0.0,0.0,0.0,0.0,0.0,0.0,0.0,0.0,0.0,0.0,0.0,0.0,0.0,0.0,0.0,0.0,0.0,0.0,0.0,-0.2035,-0.4166,-0.6243,-0.6336,-0.6289,-0.6275,-0.627,-0.6261,-0.6324,-0.6824,-0.6812,0.0,0.0,0.0,0.0,0.0,-0.6965,0.0,0.0,0.0,0.0,0.0,-0.6127,-0.5822,-0.5199,-0.4968,-0.4904,-0.4918,0.0,0.0,0.0,0.0,0.0,0.0,0.0,0.0,0.0,-0.3813,-0.8019,-0.8029,-0.8014,-0.7363,-0.49,-0.2124,0.0,0.0,0.0,-0.0851,-0.4004,-0.4737,-0.4632,-0.4664,-0.4671,-0.4664,0.0,0.0,0.0,0.0,0.0,0.0,0.0,0.0,0.0,0.0,0.0,0.0,0.0,0.0,0.0,0.0,-0.9822,-0.9767,-0.979,-1.0069,-1.0351,-1.0753,-1.0643,-1.0717,-1.0717,-1.0717,-1.0677,-1.0726,-1.0392,-1.029,-1.0276,-1.0195,-1.0029,-0.9764,-0.9817,-0.9744,-0.9821,-0.9843,-1.0035,-1.0328,-1.0548,-1.0678,-1.0754,0.0,0.0,0.0,0.0,0.0,0.0,0.0,0.0,0.0,0.0,0.0,0.0,0.0,0.0,0.0,0.0,0.0,0.0,0.0,0.0,-0.1581,-0.5039,-0.5827,-0.6136,-0.6172,-0.6177,-0.6187,-0.6338,-0.674,0.0,0.0,0.0,0.0,0.0,0.0,0.0,0.0,0.0,0.0,0.0,0.0,0.0,0.0,0.0,0.0,-0.5403,-0.5396,-0.5424,-0.4964,-0.1952,0.0,0.0,0.0,0.0,0.0,0.0,-0.3109,-0.6844,-0.7745,-0.8115,-0.8279,-0.8735,-0.4402,0.0,0.0,-0.084,-0.3185,-0.8732,-0.9754,-0.9774,-0.9767,-0.9767,0.0,0.0,0.0,0.0,0.0,0.0,0.0,0.0,0.0,0.0,0.0,0.0,0.0,0.0,0.0,0.0,-0.9822,-0.9822,-0.9754,-0.9751,-0.9797,-1.0075,-1.0718,-1.0636,-1.0717,-1.0717,-1.0717,-1.0717,-1.0711,-1.0732,-1.0749,-1.0749,-1.0721,-1.0445,-0.9921,-0.9901,-0.9943,-0.9975,-0.9843,-0.981,-0.9863,-1.0392,-1.0623,-1.0651,0.0,0.0,0.0,0.0,0.0,0.0,0.0,0.0,0.0,0.0,0.0,0.0,0.0,0.0,0.0,0.0,0.0,0.0,0.0,0.0,0.0,-0.0838,-0.3866,-0.5525,-0.5519,-0.55,-0.5796,-0.6338,-0.6338,0.0,0.0,0.0,0.0,0.0,0.0,0.0,0.0,0.0,0.0,0.0,0.0,0.0,0.0,0.0,0.0,0.0,-0.5428,-0.537,-0.5336,-0.4855,-0.2591,0.0,0.0,0.0,0.0,0.0,-0.0472,-0.2059,-0.6721,-0.8422,-0.8816,-0.8829,-0.4412,0.0,0.0,-0.4394,-0.8726,0.0,-0.9856,-0.9856,-0.9836,0.0,0.0,0.0,0.0,0.0,0.0,0.0,0.0,0.0,0.0,0.0,0.0,0.0,0.0,0.0,0.0,0.0,-0.9822,-0.9822,-0.9829,-0.9849,-0.9745,-1.0029,-1.07,-1.0719,-1.0717,-1.0717,-1.0717,-1.0717,-1.0717,-1.0683,-1.0663,-1.0656,-1.0658,-1.0596,-1.0589,-1.0593,-1.0531,-1.0517,-1.0009,-0.9748,-0.9748,-0.9903,-1.0227,-1.0651,0.0,0.0,0.0,0.0,0.0,0.0,0.0,0.0,0.0,0.0,0.0,0.0,0.0,0.0,0.0,0.0,0.0,-0.088,-0.2898,-0.3036,-0.2112,-0.0068,-0.1511,-0.332,-0.5349,-0.5416,-0.5709,-0.6307,-0.6324,0.0,0.0,-0.6627,-0.6558,0.0,0.0,0.0,0.0,0.0,0.0,0.0,0.0,0.0,0.0,0.0,0.0,0.0,0.0,-0.5868,-0.5833,-0.5538,-0.3008,0.0,0.0,0.0,0.0,0.0,0.0,-0.048,-0.2842,-0.5883,-0.8466,-0.8783,-0.6932,-0.5028,-0.4954,-0.7439,-0.9786,-0.9834,-0.9781,-0.9836,0.0,0.0,0.0,0.0,0.0,0.0,0.0,0.0,0.0,0.0,0.0,0.0,0.0,0.0,0.0,0.0,0.0,-0.9822,-0.9822,-0.9822,-0.9856,-0.9821,-0.9777,-1.0035,-1.0721,-1.0678,-1.0761,-1.0719,-1.0719,-1.0719,-1.0719,-1.0719,-1.074,-1.0649,-1.0761,-1.0726,-1.0685,-1.0671,-1.0739,-1.0663,-1.0399,-1.0351,-1.0283,-0.9954,-1.0154,-1.0637,0.0,0.0,0.0,0.0,0.0,0.0,0.0,0.0,0.0,0.0,0.0,0.0,0.0,0.0,0.0,0.0,0.0,-0.1147,-0.3823,-0.4925,-0.4167,-0.1466,-0.1399,-0.2666,-0.5365,-0.5372,-0.5644,-0.6051,0.0,0.0,-0.6274,-0.7008,-0.7075,0.0,-0.6331,0.0,0.0,0.0,0.0,0.0,0.0,0.0,0.0,0.0,0.0,0.0,0.0,0.0,-0.6409,-0.5841,-0.37,-0.1339,-0.1367,-0.0755,0.0,0.0,0.0,0.0,0.0,-0.4014,-0.8292,-0.8828,-0.8879,-0.8917,-0.8878,-0.9211,-0.9648,0.0,-0.9792,-0.9768,0.0,0.0,0.0,0.0,0.0,0.0,0.0,0.0,0.0,0.0,0.0,0.0,0.0,0.0,0.0,0.0,0.0,-0.9822,-0.9822,-0.9822,-0.9767,-0.979,-0.9923,-1.0283,-1.0763,-1.2515,-1.3379,-1.331,-1.331,-1.331,-1.331,-1.331,-1.3336,-1.3387,-1.3384,-1.2281,-1.0706,-1.0677,-1.0643,-1.0658,-1.0678,-1.0725,-1.06,-1.0243,-1.0194,-1.0548,0.0,0.0,0.0,0.0,0.0,0.0,0.0,0.0,0.0,0.0,0.0,0.0,0.0,0.0,0.0,0.0,0.0,-0.0065,-0.0266,-0.3476,-0.5312,-0.5106,-0.5106,0.0,-0.5393,-0.5385,-0.5388,0.0,0.0,0.0,-0.6287,-0.7469,-0.7628,-0.7001,-0.6565,-0.629,-0.6331,0.0,0.0,0.0,0.0,0.0,0.0,0.0,0.0,0.0,0.0,0.0,-0.6962,-0.6428,-0.5759,-0.5143,-0.5121,-0.2788,0.0,0.0,0.0,0.0,0.0,-0.4369,-0.8837,-0.8939,-0.8859,-0.8948,-0.8893,-0.895,-0.9104,-0.9722,-0.9759,0.0,0.0,0.0,0.0,0.0,0.0,0.0,0.0,0.0,0.0,0.0,0.0,0.0,0.0,0.0,0.0,0.0,0.0,-0.9822,-0.9822,-0.9822,-0.9767,-0.979,-1.0378,-1.0622,-1.0763,-1.726,-2.0605,-2.0592,-2.0592,-2.0592,-2.0592,-2.0592,-2.0528,-2.0541,-2.0564,-1.675,-1.076,-1.0656,-1.067,-1.0733,-1.0677,-1.0747,-1.0767,-1.0643,-1.0293,-0.9889,0.0,0.0,0.0,0.0,0.0,0.0,0.0,0.0,0.0,0.0,0.0,0.0,0.0,0.0,-0.0919,-0.3286,-0.3448,-0.3449,-0.3476,-0.4683,0.0,-0.5417,-0.5396,-0.5396,-0.5373,-0.3144,0.0,0.0,0.0,-0.3668,-0.6309,-0.7481,-0.7923,-0.762,-0.6736,-0.626,-0.6303,-0.6659,0.0,0.0,0.0,0.0,0.0,0.0,0.0,0.0,0.0,0.0,-0.7046,-0.6846,-0.6445,-0.5951,-0.5983,-0.4848,-0.3443,-0.3451,-0.1824,-0.0642,-0.3718,-0.612,-0.7006,-0.3993,-0.5808,-0.8434,-0.8858,-0.8863,-0.8937,-0.9218,-0.9195,0.0,0.0,0.0,0.0,0.0,0.0,0.0,0.0,0.0,0.0,0.0,0.0,0.0,0.0,0.0,0.0,0.0,0.0,0.0,-0.9834,-0.9794,-0.9751,-0.9856,-1.0355,-1.2893,-1.7396,-1.9876,-2.1142,-2.1142,-2.1142,-2.1142,-2.1142,-2.1142,-2.1115,-2.1075,-2.1146,-1.7098,-1.107,-1.5564,-1.4772,-1.0664,-1.0747,-1.0713,-1.0746,-1.076,-1.0555,-1.0504,0.0,0.0,0.0,0.0,0.0,0.0,0.0,0.0,0.0,0.0,0.0,0.0,0.0,0.0,-0.2788,-0.5173,-0.5425,-0.5379,-0.5372,-0.5431,-0.5339,-0.5128,-0.5123,-0.5095,-0.5074,0.0,0.0,0.0,0.0,0.0,0.0,0.0,-0.7489,-0.7635,-0.6943,-0.6512,0.0,0.0,0.0,-0.6838,0.0,0.0,-0.7971,0.0,0.0,0.0,0.0,0.0,0.0,0.0,-0.6779,-0.6323,0.0,0.0,0.0,0.0,0.0,0.0,-0.6002,-0.6934,-0.6358,-0.3195,-0.5244,-0.82,-0.8779,-0.8865,-0.889,-0.889,-0.8889,0.0,0.0,0.0,0.0,0.0,0.0,0.0,0.0,0.0,0.0,0.0,0.0,0.0,0.0,0.0,0.0,0.0,0.0,0.0,-0.9857,-1.0046,-1.1128,-1.3462,-1.3998,-1.6456,-2.1001,-2.1162,-2.1109,-2.1109,-2.1109,-2.1109,-2.1109,-2.1109,-2.1109,-2.1109,-2.1089,-1.8442,-1.4581,-1.9217,-1.8406,-1.4216,-1.4187,-1.2816,-1.1005,-1.3371,-1.4159,-1.3928,0.0,0.0,0.0,0.0,0.0,0.0,0.0,0.0,-0.0067,0.0,0.0,0.0,0.0,0.0,0.0,-0.5401,-0.54,-0.5372,-0.5425,-0.5417,-0.5128,-0.4538,0.0,0.0,0.0,0.0,0.0,0.0,0.0,0.0,0.0,0.0,-0.6562,0.0,-0.7038,-0.6803,-0.6268,0.0,-0.6268,-0.6306,0.0,-0.6995,-0.8,0.0,0.0,0.0,-0.8019,-0.8369,0.0,-0.7574,0.0,0.0,0.0,0.0,0.0,0.0,0.0,0.0,0.0,0.0,0.0,-0.7085,-0.7516,-0.8084,-0.8733,-0.882,-0.8932,-0.8932,-0.8947,0.0,0.0,0.0,0.0,0.0,0.0,0.0,0.0,0.0,0.0,0.0,0.0,0.0,0.0,0.0,0.0,0.0,0.0,-0.9863,-0.9882,-1.0601,-1.4094,-2.0895,-2.1062,-2.1129,-2.1109,-2.1109,-2.1109,-2.1109,-2.1109,-2.1109,-2.1109,-2.1109,-2.1109,-2.1109,-2.1109,-2.1109,-2.1136,-2.1044,-2.107,-2.1093,-2.1109,-1.7023,-1.1804,-1.8582,-2.1084,-2.017,0.0,0.0,0.0,0.0,0.0,0.0,0.0,0.0,-0.1075,0.0,0.0,0.0,0.0,0.0,0.0,-0.5461,-0.5416,-0.5375,-0.5372,-0.5417,-0.515,-0.4541,-0.4524,-0.4513,0.0,0.0,0.0,0.0,0.0,0.0,0.0,0.0,0.0,0.0,-0.6317,-0.6411,-0.6283,-0.6283,0.0,0.0,-0.6328,-0.6968,0.0,0.0,0.0,0.0,0.0,-0.8776,-0.8834,0.0,-0.8045,-0.7521,0.0,0.0,0.0,0.0,0.0,0.0,-0.577,0.0,0.0,0.0,0.0,0.0,-0.8147,-0.8249,-0.838,-0.8824,-0.8947,0.0,0.0,0.0,0.0,0.0,0.0,0.0,0.0,0.0,0.0,0.0,0.0,0.0,0.0,0.0,0.0,0.0,-1.0154,-1.041,-1.0426,-1.5396,-1.9164,-2.1056,-2.1136,-2.1149,-2.1109,-2.1109,-2.1109,-2.1109,-2.1109,-2.1109,-2.1109,-2.1109,-2.1109,-2.1109,-2.1109,-2.1109,-2.1109,-2.1075,-2.1075,-2.1062,-2.108,-1.9927,-1.843,-2.0374,-2.1045,-2.0874,0.0,0.0,0.0,0.0,0.0,0.0,0.0,-0.1493,-0.3479,0.0,0.0,0.0,0.0,0.0,0.0,0.0,-0.5689,-0.5409,-0.54,-0.5384,-0.5226,-0.4889,-0.4618,-0.4513,-0.452,0.0,0.0,0.0,0.0,0.0,0.0,0.0,0.0,0.0,0.0,0.0,0.0,0.0,0.0,0.0,-0.6611,0.0,0.0,-0.8235,-0.8508,0.0,0.0,0.0,-0.9197,-0.9026,-0.8543,0.0,0.0,0.0,0.0,0.0,0.0,0.0,0.0,0.0,0.0,0.0,0.0,0.0,0.0,0.0,0.0,0.0,-0.8852,0.0,0.0,0.0,0.0,0.0,0.0,0.0,0.0,0.0,0.0,0.0,0.0,0.0,0.0,0.0,0.0,-1.0141,-1.0461,-1.0686,-1.069,-1.7367,-2.1107,-2.1109,-2.1109,-2.1109,-2.1109,-2.1109,-2.1109,-2.1109,-2.1109,-2.1109,-2.1109,-2.1109,-2.1109,-2.1109,-2.1109,-2.1109,-2.1109,-2.1109,-2.1109,-2.1122,-2.1075,-2.1062,-2.1122,-2.1075,-2.108,-2.1136,0.0,0.0,0.0,0.0,0.0,0.0,0.0,-0.3577,-0.6264,0.0,0.0,0.0,0.0,0.0,0.0,0.0,-0.605,-0.5519,-0.553,-0.5433,-0.5411,-0.5389,-0.4911,-0.4559,-0.4513,-0.4472,0.0,0.0,0.0,0.0,0.0,0.0,0.0,0.0,-0.5365,-0.5802,0.0,0.0,0.0,-0.7111,-0.7027,-0.7396,0.0,0.0,-0.9291,-0.9846,-0.9781,-0.9831,-0.9667,-0.9119,-0.8574,0.0,0.0,0.0,0.0,0.0,-0.6773,0.0,0.0,0.0,0.0,0.0,0.0,0.0,0.0,0.0,0.0,0.0,-0.8855,0.0,0.0,0.0,0.0,0.0,0.0,0.0,0.0,0.0,0.0,0.0,0.0,0.0,0.0,-0.9836,-0.9958,-1.0615,-1.1358,-1.1886,-1.1884,-1.7746,-2.1089,-2.1069,-2.1096,-2.1109,-2.1109,-2.1109,-2.1109,-2.1109,-2.1109,-2.1109,-2.1109,-2.1109,-2.1109,-2.1109,-2.1109,-2.1109,-2.1109,-2.1109,-2.1109,-2.1109,-2.1109,-2.1109,-2.1109,-2.1109,-2.1149,-2.1269,0.0,0.0,0.0,0.0,0.0,0.0,0.0,-0.3576,-0.6318,0.0,0.0,0.0,0.0,0.0,0.0,0.0,0.0,-0.6119,-0.6139,-0.5643,-0.5434,-0.5365,-0.5259,-0.4998,-0.452,-0.4521,0.0,0.0,0.0,0.0,0.0,0.0,0.0,0.0,0.0,0.0,0.0,0.0,0.0,-0.7032,-0.6667,0.0,-0.8046,-0.8655,-0.9229,-0.9759,-0.9781,-0.9795,-0.9737,-0.911,-0.9117,-0.9293,0.0,0.0,0.0,-0.7285,0.0,0.0,0.0,0.0,0.0,0.0,0.0,0.0,0.0,-0.8362,-0.8659,0.0,-0.8585,-0.8853,0.0,0.0,0.0,0.0,0.0,0.0,0.0,0.0,0.0,0.0,0.0,0.0,0.0,-0.9808,-0.9881,-1.0012,-1.567,-1.9075,-1.9125,-2.0328,-2.1074,-2.1051,-2.1128,-2.1109,-2.1109,-2.1109,-2.1109,-2.1109,-2.1109,-2.1109,-2.1109,-2.1109,-2.1109,-2.1109,-2.1109,-2.1109,-2.1109,-2.1109,-2.1109,-2.1109,-2.1109,-2.1109,-2.1109,-2.1109,-2.112,-2.1097,0.0,0.0,0.0,0.0,0.0,-0.0689,-0.278,-0.4924,-0.6263,0.0,0.0,0.0,0.0,0.0,0.0,0.0,0.0,0.0,-0.6706,-0.6381,-0.6003,-0.5416,-0.5411,-0.5404,-0.5414,-0.4833,-0.451,0.0,0.0,0.0,0.0,0.0,0.0,0.0,0.0,0.0,0.0,0.0,-0.7131,-0.7108,-0.7114,0.0,-0.8099,-0.8646,-0.932,-0.9868,-1.0101,-1.0081,-0.9774,-0.9476,-0.9363,0.0,0.0,-0.8236,-0.7979,0.0,-0.7581,-0.7131,0.0,0.0,0.0,-0.7108,0.0,0.0,0.0,0.0,-0.8268,-0.7687,-0.7832,-0.7985,-0.8031,0.0,0.0,0.0,0.0,0.0,0.0,0.0,0.0,0.0,0.0,0.0,0.0,-0.9849,-1.1121,-1.437,-1.8081,-2.0262,-2.0239,-2.023,-2.0486,-2.1094,-2.1101,-2.1109,-2.1109,-2.1109,-2.1109,-2.1109,-2.1109,-2.1109,-2.1109,-2.1109,-2.1109,-2.1109,-2.1109,-2.1109,-2.1109,-2.1109,-2.1109,-2.1109,-2.1109,-2.1109,-2.1109,-2.1109,-2.1093,-2.1176,0.0,0.0,0.0,0.0,-0.0683,-0.2394,-0.5767,-0.6303,0.0,0.0,0.0,0.0,0.0,0.0,0.0,0.0,0.0,0.0,0.0,-0.714,-0.6683,-0.5764,-0.5545,-0.5657,-0.6104,-0.5281,-0.4813,-0.4668,0.0,0.0,0.0,0.0,0.0,0.0,0.0,0.0,0.0,0.0,0.0,-0.7453,0.0,-0.8133,-0.8214,-0.8845,-0.9399,-0.993,-1.0468,-1.044,-0.9944,-0.9883,-0.953,-0.9017,-0.8935,-0.8602,0.0,0.0,0.0,0.0,0.0,0.0,0.0,0.0,0.0,-0.7126,0.0,0.0,0.0,0.0,0.0,0.0,0.0,0.0,0.0,0.0,0.0,0.0,0.0,-0.9354,0.0,0.0,0.0,0.0,0.0,-1.1315,-1.3548,-1.8959,-1.94,-1.9376,-1.94,-1.9427,-1.9892,-2.1012,-2.1074,-2.1109,-2.1109,-2.1109,-2.1109,-2.1109,-2.1109,-2.1109,-2.1109,-2.1109,-2.1109,-2.1109,-2.1109,-2.1109,-2.1109,-2.1109,-2.1109,-2.1109,-2.1109,-2.1109,-2.1109,-2.1036,-2.1093,-2.1201,0.0,0.0,0.0,0.0,-0.3088,-0.5707,-0.6257,-0.6292,0.0,0.0,0.0,0.0,0.0,0.0,0.0,0.0,0.0,0.0,-0.7111,0.0,-0.7041,-0.69,-0.5978,-0.5466,-0.553,-0.588,-0.5858,-0.5297,0.0,0.0,0.0,0.0,0.0,0.0,-0.7222,0.0,0.0,0.0,-0.7694,0.0,-0.8751,-0.8784,0.0,-0.9435,-0.9714,-0.9856,-1.052,-1.0697,-1.0507,0.0,-0.9761,-0.9659,0.0,-0.9211,-0.956,-0.9021,0.0,0.0,0.0,0.0,0.0,0.0,-0.708,0.0,0.0,0.0,-0.7148,-0.7126,0.0,0.0,0.0,0.0,0.0,0.0,0.0,0.0,-1.5763,-1.1213,-0.9618,0.0,0.0,0.0,0.0,0.0,-1.7457,-1.9239,-1.9443,-1.9361,-1.9362,-1.9442,-1.9876,-2.1105,-2.1105,-2.1109,-2.1109,-2.1109,-2.1109,-2.1109,-2.1109,-2.1109,-2.1109,-2.1109,-2.1109,-2.1109,-2.1109,-2.1109,-2.1109,-2.1109,-2.1109,-2.1109,-2.1109,-2.1109,-2.1136,-2.1107,-2.1098,-2.124,0.0,0.0,0.0,0.0,-0.3511,-0.6304,-0.6286,-0.6557,0.0,0.0,0.0,0.0,0.0,0.0,0.0,0.0,0.0,-0.8167,0.0,0.0,0.0,-0.7128,-0.7301,-0.6986,-0.5981,-0.6186,-0.5973,-0.5424,-0.4785,0.0,0.0,0.0,0.0,0.0,-0.7132,0.0,-0.8139,0.0,-0.7761,0.0,0.0,0.0,0.0,-1.0088,-1.0266,-1.0419,-1.0575,-1.0699,-1.061,0.0,-1.028,0.0,0.0,0.0,0.0,-0.9443,0.0,0.0,0.0,0.0,0.0,0.0,0.0,0.0,-0.7204,0.0,-0.7058,0.0,0.0,0.0,0.0,0.0,0.0,0.0,-0.675,0.0,0.0,0.0,-0.9502,0.0,0.0,0.0,0.0,0.0,0.0,0.0,0.0,-1.9376,-1.9401,-1.9417,-1.9958,-2.1064,-2.1091,-2.1109,-2.1109,-2.1109,-2.1109,-2.1109,-2.1109,-2.1109,-2.1109,-2.1109,-2.1109,-2.1109,-2.1109,-2.1109,-2.1109,-2.1109,-2.1109,-2.1122,-2.1142,-2.1115,-2.1136,-2.1146,-2.158,-2.2176,0.0,0.0,0.0,0.0,-0.3526,-0.6331,-0.6492,-0.6828,0.0,0.0,0.0,0.0,-0.8855,-0.909,0.0,0.0,-0.9311,-0.9105,0.0,0.0,-0.731,-0.7349,-0.8057,-0.7839,-0.6583,-0.6548,-0.627,-0.5644,-0.5188,0.0,0.0,0.0,0.0,0.0,0.0,-0.7802,-0.8883,0.0,0.0,-0.8967,-0.9306,-0.9587,-0.985,-1.0418,-1.0756,-1.0706,-1.0683,-1.0649,-1.0692,-1.0692,-1.0649,0.0,-1.0204,0.0,0.0,0.0,0.0,0.0,-0.8201,0.0,0.0,0.0,0.0,0.0,0.0,0.0,0.0,0.0,0.0,0.0,0.0,0.0,0.0,0.0,0.0,-0.5928,0.0,-0.6867,0.0,0.0,0.0,0.0,0.0,0.0,0.0,0.0,0.0,0.0,-1.9347,-1.9391,-1.9933,-2.1064,-2.1148,-2.1042,-2.1109,-2.1109,-2.1109,-2.1109,-2.1109,-2.1109,-2.1109,-2.1042,-2.1141,-2.1141,-2.1141,-2.1141,-2.1141,-2.1082,-2.1149,-2.1102,-2.1159,-2.1275,-2.1565,-2.1214,-2.1911,-2.2896,0.0,0.0,0.0,0.0,-0.3526,-0.6437,-0.7034,-0.7047,0.0,0.0,0.0,0.0,0.0,0.0,0.0,0.0,0.0,-0.9806,-0.9723,0.0,-0.7938,-0.7999,-0.7458,-0.7152,0.0,-0.7083,-0.6805,-0.6261,0.0,0.0,0.0,0.0,0.0,0.0,0.0,-0.7745,-0.8926,-0.882,-0.8907,-0.8981,-1.015,-1.025,-0.9895,0.0,-1.0706,-1.0711,-1.0717,0.0,0.0,-1.0711,-1.074,0.0,0.0,0.0,0.0,0.0,0.0,0.0,0.0,0.0,0.0,-0.8709,0.0,0.0,0.0,0.0,-0.7069,0.0,0.0,0.0,0.0,0.0,0.0,0.0,0.0,0.0,0.0,0.0,-0.682,0.0,0.0,0.0,0.0,0.0,0.0,0.0,0.0,0.0,-1.9359,-1.9372,-1.9915,-2.105,-2.1094,-2.1105,-2.1109,-2.1109,-2.1109,-2.1109,-2.1109,-2.1109,-2.1109,-2.1118,-2.1148,-2.1148,-2.1148,-2.1148,-2.1162,-2.1141,-2.1129,-2.1096,-2.1109,-2.1835,-2.2646,-2.158,-2.1802,-2.2903,0.0,0.0,-0.0868,-0.3687,-0.5388,-0.6586,-0.7541,-0.7677,0.0,0.0,0.0,0.0,0.0,-0.9669,-0.9693,0.0,0.0,-1.0235,-0.9802,-0.9398,0.0,0.0,0.0,-0.7966,0.0,0.0,0.0,0.0,0.0,0.0,0.0,0.0,0.0,0.0,0.0,-0.7367,0.0,0.0,0.0,0.0,0.0,-1.0263,-1.0431,0.0,0.0,-1.0717,-1.0717,-1.0717,0.0,-1.0717,-1.0683,-1.074,-1.0677,-1.0277,-0.9845,-1.0023,-0.9861,0.0,0.0,0.0,-0.8514,-0.8394,0.0,0.0,0.0,0.0,0.0,0.0,0.0,0.0,0.0,0.0,0.0,0.0,0.0,0.0,0.0,0.0,0.0,0.0,0.0,0.0,0.0,0.0,0.0,0.0,0.0,0.0,0.0,-1.8968,-1.9522,-1.9929,-2.0727,-2.1135,-2.1105,-2.1155,-2.1155,-2.1118,-2.1118,-2.1162,-2.1108,-2.1149,-2.352,-2.7538,-2.7538,-2.5103,-2.1121,-2.1091,-2.1141,-2.1142,-2.1923,-2.2577,-2.2919,-2.244,-2.2576,-2.2951,0.0,0.0,-0.1359,-0.5785,-0.6625,0.0,0.0,0.0,0.0,0.0,-0.9405,0.0,-0.9815,0.0,-1.0095,0.0,-1.0232,-1.0183,-0.9788,-0.9829,0.0,-0.9469,-0.9341,0.0,0.0,0.0,0.0,0.0,0.0,-0.6607,0.0,0.0,0.0,0.0,0.0,-0.7318,-0.7453,0.0,-0.9321,0.0,0.0,-1.0326,0.0,0.0,-1.0925,-1.0732,0.0,-1.0665,-1.0665,-1.0665,-1.0765,-1.0697,-1.0671,-1.0424,-1.0149,-1.0114,-0.9962,-0.9863,-1.0222,-0.9989,0.0,-0.8839,-0.9084,0.0,-0.8742,0.0,-0.8505,0.0,0.0,0.0,0.0,0.0,0.0,0.0,0.0,0.0,0.0,-0.6002,0.0,0.0,0.0,0.0,0.0,0.0,0.0,0.0,0.0,0.0,0.0,0.0,-1.8955,-1.9381,-2.012,-2.0713,-2.1108,-2.1061,-2.1115,-2.1135,-2.3435,-2.4564,-2.4632,-2.4537,-2.6849,-3.0959,-3.0959,-2.8531,-2.4671,-2.5262,-2.5454,-2.5579,-2.6279,-2.6665,-2.6681,-2.6609,-2.5024,-2.2932,0.0,0.0,0.0,0.0,-0.6786,0.0,0.0,0.0,-0.8266,0.0,-0.9426,-0.9821,-0.9875,-1.0424,-1.0677,-1.0697,-1.0187,-0.9819,-0.9806,-0.9823,0.0,0.0,-0.9518,-0.9209,-0.8146,0.0,0.0,0.0,0.0,0.0,0.0,0.0,0.0,0.0,-0.7424,0.0,-0.8079,-0.8969,-0.9518,-0.993,-1.0511,-1.0725,-1.0785,-1.1344,0.0,-1.0737,-1.073,-1.0684,-1.0684,-1.0684,-1.0725,-1.0717,-1.0706,-1.0658,-1.076,-1.0749,-1.0277,-0.9786,-0.9903,-1.0204,-1.0543,-0.9998,0.0,0.0,0.0,0.0,-0.9433,0.0,0.0,0.0,0.0,0.0,0.0,0.0,0.0,0.0,0.0,0.0,0.0,0.0,0.0,0.0,0.0,0.0,0.0,0.0,0.0,0.0,0.0,0.0,-1.8671,-1.9763,-1.9834,-2.0267,-2.1091,-2.1091,-2.1074,-2.1231,-2.7706,-3.0926,-3.0952,-3.0888,-3.0873,-3.0873,-3.0892,-3.0945,-3.1066,-3.2676,-3.3379,-3.345,-3.345,-3.3431,-3.345,-3.3424,-2.9121,-2.3459,0.0,0.0,-0.0352,0.0,-0.1857,-0.3184,0.0,0.0,0.0,0.0,-0.9737,-1.0019,-1.0417,-1.1041,-1.1185,-1.0704,-1.0548,0.0,0.0,0.0,0.0,-0.9614,-0.9683,-0.9674,-0.9293,-0.9175,0.0,-0.7114,0.0,0.0,-0.7133,0.0,0.0,0.0,0.0,0.0,-0.8241,-0.8804,-0.9621,-1.0507,-1.0697,-1.0955,0.0,0.0,-1.1447,-1.1322,-1.1344,-1.1393,-1.1248,-1.0822,-1.0659,-1.0756,-1.0723,-1.071,-1.0684,-1.0685,-1.0531,-1.0512,-1.0464,-1.052,-1.0706,-1.0543,-1.0033,-0.9552,0.0,0.0,0.0,0.0,0.0,0.0,0.0,0.0,0.0,0.0,0.0,0.0,0.0,0.0,0.0,-0.8949,0.0,0.0,0.0,0.0,0.0,0.0,0.0,0.0,0.0,0.0,0.0,-2.6042,-2.6041,-2.4483,-2.1142,-2.105,-2.1052,-2.118,-2.7815,-3.0868,-3.0897,-3.0937,-3.0898,-3.0918,-3.0914,-3.0945,-3.1066,-3.2779,-3.3454,-3.3447,-3.3447,-3.3428,-3.3339,-3.345,-3.2264,-3.0674,0.0,0.0,0.0,0.0,0.0,0.0,-0.8243,0.0,0.0,-0.972,-1.0032,0.0,-1.0719,-1.1249,-1.1375,-1.0766,-1.0638,0.0,-1.0746,0.0,0.0,-1.0243,-0.9944,-0.9786,-0.9792,-0.9493,0.0,-0.7075,0.0,0.0,-0.7107,0.0,0.0,0.0,0.0,-0.7704,-0.8196,-0.8723,-0.9477,-1.0326,-1.0934,0.0,0.0,-1.1657,-1.1619,-1.1599,-1.1571,-1.1608,-1.1552,-1.126,-1.1074,-1.102,-1.102,-1.102,-1.1145,-1.107,-1.1043,-1.1023,-1.1077,-1.0884,-1.0671,-1.0385,-1.0002,-0.9883,-1.0088,-1.0187,-1.0957,0.0,0.0,0.0,0.0,0.0,0.0,0.0,0.0,0.0,0.0,0.0,0.0,0.0,-1.1318,0.0,0.0,0.0,0.0,0.0,0.0,0.0,0.0,0.0,0.0,-2.9351,-2.8748,-2.7356,-2.5408,-2.5403,-2.5359,-2.5456,-2.9168,-3.0837,-3.0898,-3.0918,-3.0898,-3.0918,-3.0911,-3.1296,-3.2046,-3.2962,-3.3375,-3.3418,-3.3418,-3.3418,-3.3437,-3.3378,-3.3456,-3.3367,0.0,0.0,0.0,0.0,0.0,0.0,0.0,-0.9449,0.0,-0.9823,0.0,-1.0839,-1.0869,-1.1317,-1.1455,-1.0902,0.0,-1.0752,-1.0758,-1.074,-1.0651,-1.076,-1.0243,-0.9962,-0.9928,-0.9379,-0.8542,0.0,0.0,0.0,0.0,0.0,0.0,0.0,0.0,0.0,0.0,-0.883,-0.9423,0.0,-1.1226,-1.155,-1.1585,-1.1572,-1.1619,-1.1619,-1.1619,-1.1538,-1.1564,-1.1564,-1.1622,-1.165,-1.165,-1.165,-1.165,-1.165,-1.165,-1.1643,-1.1607,-1.1214,-1.0637,-1.0047,-0.9863,-1.0324,-1.1682,-1.1271,-1.047,-0.995,-0.9795,-0.9654,0.0,0.0,0.0,0.0,0.0,0.0,0.0,0.0,0.0,0.0,0.0,0.0,0.0,0.0,0.0,0.0,0.0,0.0,0.0,0.0,0.0,-3.0532,-2.9041,0.0,-3.0923,0.0,-3.0945,-3.0953,-3.0953,-3.0917,-3.0898,-3.0876,-3.1013,-3.1191,-3.106,-3.1905,-3.3416,-3.3367,-3.3414,-3.3418,-3.3418,-3.3418,-3.3418,-3.3418,-3.3418,-3.3418,0.0,0.0,0.0,0.0,0.0,-0.9252,-1.0322,-1.0404,-1.0419,-1.0531,-1.1076,-1.144,-1.1447,-1.1525,-1.1504,-1.1482,-1.0967,0.0,0.0,0.0,0.0,-1.076,-1.0603,-1.0586,-1.0571,-0.9954,-0.949,0.0,0.0,0.0,0.0,0.0,0.0,0.0,0.0,0.0,-0.8857,-0.9638,0.0,-1.1248,-1.1454,-1.1612,-1.1586,-1.1606,-1.1619,-1.1619,-1.1619,-1.1599,-1.1579,-1.1579,-1.1565,-1.1538,-1.1538,-1.1538,-1.1538,-1.1538,-1.1538,-1.164,-1.158,-1.1558,-1.1354,-1.0726,-1.0603,-1.213,-1.7909,-1.4383,-0.9975,-0.9764,-0.9827,-0.9792,-0.9627,0.0,0.0,0.0,0.0,0.0,0.0,0.0,0.0,0.0,0.0,0.0,0.0,0.0,0.0,0.0,0.0,0.0,0.0,0.0,0.0,0.0,-2.843,0.0,0.0,0.0,-3.0858,-3.0859,-3.0859,-3.0957,-3.0898,-3.0876,-3.1642,-3.2892,-3.1501,-3.1865,-3.3386,-3.3454,-3.3379,-3.3418,-3.3418,-3.3418,-3.3418,-3.3418,-3.3418,-3.3418,0.0,0.0,0.0,0.0,0.0,0.0,0.0,-1.0465,0.0,-1.0717,-1.1277,-1.166,-1.1612,-1.1592,-1.1543,-1.1537,-1.1331,-1.1029,-1.0677,-1.0672,-1.069,-1.0747,-1.0747,0.0,-1.0679,-1.0115,-0.9779,-0.9745,0.0,0.0,0.0,0.0,0.0,0.0,0.0,-0.8871,0.0,0.0,0.0,-1.1607,-1.165,-1.1626,-1.1545,-1.1646,-1.1626,-1.1633,-1.1531,-1.1552,-1.1558,-1.1606,-1.1619,-1.1619,-1.1619,-1.1619,-1.1619,-1.1619,-1.1619,-1.1586,-1.1557,-1.4449,-1.7412,-1.7086,-1.654,-1.7012,-2.0361,-1.8265,-1.57,-1.568,-1.5248,-1.3746,-1.0454,-1.503,0.0,0.0,0.0,0.0,0.0,0.0,0.0,0.0,0.0,0.0,0.0,0.0,0.0,0.0,0.0,0.0,0.0,0.0,0.0,0.0,0.0,0.0,0.0,0.0,0.0,-3.0898,-3.0898,-3.1152,-3.1565,-3.1521,-3.2194,-3.3357,-3.2572,-3.2661,-3.3342,-3.3426,-3.3418,-3.3418,-3.3418,-3.3418,-3.3418,-3.3418,-3.3418,-3.3418,0.0,0.0,0.0,0.0,0.0,0.0,-0.8931,-1.0344,-1.0645,-1.0652,-1.1283,-1.1566,-1.1586,-1.1619,-1.1558,-1.155,-1.1538,-1.1386,-1.0684,-1.0672,-1.0717,-1.0717,-1.0717,-1.0816,-1.0864,-1.0297,-0.9971,0.0,0.0,0.0,0.0,0.0,0.0,0.0,0.0,0.0,0.0,0.0,-1.105,-1.1657,-1.1578,-1.2529,-1.3981,-1.404,-1.3999,-1.399,-1.4073,-1.2925,-1.1612,-1.1538,-1.1586,-1.1619,-1.1619,-1.1619,-1.1619,-1.1619,-1.1619,-1.1592,-1.1626,-1.7117,-2.2961,-2.2863,-2.1978,-2.1124,-2.1102,-2.1042,-2.1047,-2.1148,-2.0169,-1.7889,-1.2732,-1.6677,0.0,0.0,0.0,0.0,0.0,0.0,0.0,0.0,0.0,0.0,0.0,0.0,0.0,0.0,0.0,0.0,0.0,0.0,0.0,0.0,0.0,-2.8939,-2.9996,0.0,-3.0794,0.0,-3.0996,-3.1368,-3.2157,-3.2231,-3.2627,-3.3294,-3.3289,-3.3407,-3.344,-3.3446,-3.3418,-3.3418,-3.3418,-3.3418,-3.3418,-3.3418,-3.3418,-3.3418,0.0,0.0,0.0,0.0,0.0,0.0,0.0,-1.0658,-1.0761,-1.065,-1.1221,-1.1566,-1.1586,-1.1619,-1.1558,-1.155,-1.1538,-1.1386,-1.0684,-1.0672,-1.0717,-1.0717,-1.0717,-1.0919,-1.1461,-1.0878,-1.0561,0.0,0.0,0.0,0.0,0.0,0.0,0.0,0.0,0.0,0.0,-1.0611,-1.1111,-1.153,-1.1545,-1.573,-2.179,-2.1777,-2.1832,-2.186,-2.1873,-1.7429,-1.1657,-1.1664,-1.1633,-1.1619,-1.1619,-1.1619,-1.1619,-1.1619,-1.1619,-1.1586,-1.1557,-1.7107,-2.2889,-2.2873,-2.2004,-2.1084,-2.1102,-2.1109,-2.1155,-2.1148,-2.0199,-1.924,-1.8626,-1.9114,-1.9861,0.0,0.0,0.0,0.0,0.0,-1.7647,-1.762,0.0,0.0,0.0,0.0,0.0,0.0,0.0,0.0,0.0,0.0,0.0,-3.0615,0.0,-2.9833,-3.152,-3.0591,0.0,-3.0898,-3.1427,-3.1642,-3.1721,-3.2344,-3.2572,-3.2754,-3.3223,-3.3398,-3.3379,-3.3418,-3.3418,-3.3418,-3.3418,-3.3418,-3.3418,-3.3418,-3.3418,-3.3418,0.0,0.0,0.0,0.0,0.0,0.0,0.0,-1.067,-1.0704,-1.0644,-1.1214,-1.1532,-1.1605,-1.1626,-1.1564,-1.1559,-1.1262,-1.1009,-1.0677,-1.0672,-1.0717,-1.0717,-1.0717,-1.0751,-1.1087,-1.0733,-1.0493,0.0,0.0,0.0,0.0,0.0,0.0,0.0,0.0,-1.0154,-1.0575,-1.0886,-1.1141,-1.1402,-1.1497,-1.3397,-1.6574,-2.12,-2.2928,-2.2948,-2.2902,-2.0926,-1.8347,-1.8433,-1.5379,-1.1605,-1.1605,-1.164,-1.1538,-1.1538,-1.1579,-1.1579,-1.155,-1.7107,-2.2889,-2.2846,-2.1991,-2.1097,-2.1102,-2.1109,-2.1082,-2.1101,-2.0792,-2.0239,-1.9568,-1.9421,-1.9719,0.0,0.0,0.0,0.0,0.0,0.0,-1.8782,0.0,-1.9254,0.0,0.0,0.0,0.0,0.0,0.0,0.0,0.0,0.0,-3.0048,0.0,-2.9702,-3.1191,-3.0541,-3.0525,-3.1269,-3.1191,-3.1562,-3.2305,-3.2363,-3.2676,-3.3039,-3.334,-3.3418,-3.3418,-3.3418,-3.3418,-3.3418,-3.3418,-3.3418,-3.3418,-3.3418,-3.3418,-3.3418,0.0,0.0,0.0,0.0,0.0,-0.2409,-0.957,-1.0658,-1.0692,-1.0657,-1.107,-1.1344,-1.1601,-1.1468,-1.1406,-1.1393,-1.1009,-1.065,-1.0745,-1.0645,-1.0717,-1.0717,-1.0717,0.0,-1.0652,-1.0683,-1.0622,-1.0491,-1.0527,0.0,0.0,0.0,0.0,0.0,-1.0243,-1.0534,-1.0873,-1.1233,-1.1416,-1.1457,-1.1504,-1.1598,-1.2367,-2.0017,-2.2921,-2.2873,-2.2868,-2.2908,-2.2921,-2.2902,-1.939,-1.492,-1.4991,-1.4921,-1.4531,-1.2321,-1.1633,-1.1653,-1.1643,-1.7187,-2.2849,-2.2928,-2.2044,-2.111,-2.1067,-2.1036,-2.1109,-2.1109,-2.1159,-2.0889,-1.9994,-1.9853,-2.0183,-2.0942,0.0,0.0,0.0,-2.0127,0.0,-2.0459,-2.027,-2.0728,-2.2241,0.0,0.0,0.0,0.0,0.0,0.0,0.0,0.0,0.0,0.0,0.0,0.0,-3.0684,-3.084,-3.1699,-3.1543,-3.1914,-3.2793,-3.2617,-3.2871,-3.3418,-3.3418,-3.3418,-3.3418,-3.3418,-3.3418,-3.3418,-3.3418,-3.3418,-3.3418,-3.3418,-3.3418,-3.3418,0.0,0.0,0.0,0.0,0.0,-0.2409,-0.957,-1.0745,-1.067,-1.067,-1.0652,-1.0882,-1.1586,-1.1027,-1.0685,-1.0684,-1.067,-1.0745,-1.0731,-1.0724,-1.0717,0.0,0.0,-1.0652,-1.0664,-1.1083,-1.1083,-1.0941,0.0,0.0,-0.9381,-0.9089,-0.9496,-1.048,-1.0487,-1.0738,-1.1165,-1.1321,-1.1477,-1.1613,-1.1619,-1.166,-1.2374,-1.9993,-2.2889,-2.2859,-2.2859,-2.2859,-2.2859,-2.2873,-2.2859,-2.2775,-2.2701,-2.2806,-2.1249,-1.3833,-1.1643,-1.1629,-1.1532,-1.7184,-2.2881,-2.2849,-2.2045,-2.1162,-2.1162,-2.1041,-2.1109,-2.1109,-2.1159,-2.1094,-2.1094,-2.1094,-2.1094,-2.108,0.0,0.0,0.0,-1.9457,0.0,-2.2645,-2.3535,-2.341,-2.218,0.0,0.0,0.0,0.0,0.0,0.0,0.0,0.0,-3.0156,-2.9785,0.0,-3.2129,-3.1309,-3.1309,-3.2168,-3.2578,-3.2773,-3.2812,-3.3223,-3.3418,-3.3418,-3.3418,-3.3418,-3.3418,-3.3418,-3.3418,-3.3418,-3.3418,-3.3418,-3.3418,-3.3418,-3.3418,-3.3418,0.0,0.0,0.0,0.0,0.0,-0.2481,-0.956,-1.0698,-1.0875,-1.124,-1.0973,-1.077,-1.1007,-1.0796,-1.0677,0.0,-1.0658,-1.0638,0.0,-1.0717,-1.0717,-1.0717,-1.0717,-1.0744,-1.0658,-1.0792,-1.0932,-1.0932,0.0,0.0,0.0,-1.0243,-1.0385,-1.0806,-1.0907,-1.1084,-1.1328,-1.1484,-1.228,-1.3595,-1.4936,-1.4947,-1.4884,-2.0738,-2.2921,-2.2859,-2.2859,-2.2859,-2.2859,-2.2859,-2.2859,-2.2886,-2.2855,-2.2974,-2.2445,-1.9982,-1.9296,-1.9341,-1.9333,-2.1118,-2.2881,-2.2849,-2.2644,-2.2069,-2.1318,-2.1041,-2.1109,-2.1109,-2.1042,-2.1115,-2.1115,-2.1115,-2.1061,-2.1121,-2.0819,0.0,-2.0547,0.0,-1.9773,-2.0879,-2.3442,-2.4548,0.0,-2.5474,0.0,0.0,0.0,0.0,0.0,0.0,0.0,0.0,-3.0371,0.0,-3.2148,-3.3031,-3.3054,-3.2598,-3.3599,-3.3558,-3.2812,-3.3223,-3.3418,-3.3418,-3.3418,-3.3418,-3.3418,-3.3418,-3.3418,-3.3418,-3.3418,-3.3418,-3.3418,-3.3418,-3.3418,-3.3418,0.0,0.0,0.0,0.0,0.0,-0.1537,-0.6005,-0.9131,-1.1154,-1.1594,-1.1483,-1.1248,-1.0803,-1.0723,0.0,-1.0731,-1.0717,-1.0717,-1.0717,-1.0717,-1.0717,-1.0717,-1.0717,-1.0717,-1.0717,0.0,0.0,-1.0946,-1.0955,-1.1029,-1.1029,-1.0928,-1.0968,-1.1118,-1.1206,-1.1335,-1.1484,-1.228,-1.3309,-1.4574,-1.6481,-1.7087,-1.7046,-1.975,-2.1634,-2.2859,-2.2859,-2.2859,-2.2859,-2.2859,-2.2859,-2.2859,-2.2859,-2.2939,-2.2881,-2.2881,-2.2961,-2.2889,-2.2908,-2.2881,-2.2953,-2.2957,-2.2887,-2.2621,-2.1341,-2.1102,-2.1109,-2.1109,-2.1109,-2.1109,-2.1109,-2.1109,-2.1056,-2.1146,-2.1118,-2.1094,-2.1157,0.0,-2.0483,0.0,0.0,0.0,0.0,-2.7014,0.0,0.0,0.0,0.0,0.0,0.0,0.0,-3.0449,-3.0566,0.0,-3.2383,-3.3834,-3.43,-3.398,-3.4631,-3.4288,-3.3047,-3.3301,-3.3418,-3.3418,-3.3418,-3.3418,-3.3418,-3.3418,-3.3418,-3.3418,-3.3418,-3.3418,-3.3418,-3.3418,-3.3418,-3.3418,0.0,0.0,0.0,0.0,0.0,0.0,0.0,-0.6637,-1.153,-1.1657,-1.2042,-1.2006,-1.0873,-1.0684,-1.0745,-1.0731,0.0,0.0,0.0,-1.0717,-1.0717,-1.0717,-1.0717,-1.0717,-1.0717,-1.0719,-1.0664,-1.0684,-1.1097,-1.1172,-1.1192,-1.1192,-1.1267,-1.1409,-1.1409,-1.1626,-1.19,-1.3729,-1.4574,-1.5,-1.6836,-1.8358,-1.9265,-1.8069,-1.9784,-2.2859,-2.2859,-2.2859,-2.2859,-2.2859,-2.2859,-2.2859,-2.2859,-2.2859,-2.2859,-2.2859,-2.2859,-2.2859,-2.2859,-2.2859,-2.2859,-2.2859,-2.2875,-2.2435,-2.1383,-2.1109,-2.1109,-2.1109,-2.1109,-2.1109,-2.1109,-2.1109,-2.1109,-2.1109,-2.1109,-2.1141,-2.1135,-2.023,-2.1894,0.0,0.0,0.0,0.0,-2.9012,-2.9453,0.0,0.0,0.0,0.0,0.0,-3.2571,-3.1015,-3.0527,-3.1094,-3.2799,-3.4097,-3.5163,-3.5928,-3.5806,-3.4964,-3.3418,-3.3418,-3.3418,-3.3418,-3.3418,-3.3418,-3.3418,-3.3418,-3.3418,-3.3418,-3.3418,-3.3418,-3.3418,-3.3418,-3.3418,-3.3418,0.0,0.0,0.0,0.0,0.0,0.0,0.0,-0.6626,-1.1619,-1.1667,-1.166,-1.1657,-1.144,-1.0946,-1.0745,-1.0731,-1.0717,-1.0717,-1.0717,-1.0717,-1.0717,-1.0717,-1.0717,-1.0717,-1.0717,-1.0751,-1.0745,-1.0967,-1.1145,-1.128,-1.1511,-1.1511,-1.1531,-1.1565,-1.1565,-1.243,-1.3729,-1.4742,-1.6574,-1.8938,-2.075,-2.1698,-2.1996,-2.1683,-2.2121,-2.2859,-2.2859,-2.2859,-2.2859,-2.2859,-2.2859,-2.2859,-2.2859,-2.2859,-2.2859,-2.2859,-2.2859,-2.2859,-2.2859,-2.2859,-2.2859,-2.2859,-2.2257,-2.1398,-2.1115,-2.1109,-2.1109,-2.1109,-2.1109,-2.1109,-2.1109,-2.1109,-2.1109,-2.1109,-2.1109,-2.1141,-2.1135,-2.0931,-2.1257,0.0,-2.6577,-2.8454,-2.7246,-2.8916,-3.0156,0.0,0.0,0.0,0.0,-3.2868,-3.2901,-3.1015,-3.1426,-3.2296,-3.352,-3.5713,-3.7148,-3.7626,-3.6417,-3.4964,-3.3418,-3.3418,-3.3418,-3.3418,-3.3418,-3.3418,-3.3418,-3.3418,-3.3418,-3.3418,-3.3418,-3.3418,-3.3418,-3.3418,-3.3418,-3.3418,0.0,0.0,0.0,0.0,0.0,-0.1162,-0.4791,-0.8868,-1.1529,-1.1576,-1.1592,-1.1592,-1.1587,-1.1,-1.0677,-1.0738,-1.0717,-1.0717,-1.0717,-1.0717,-1.0717,-1.0717,-1.0717,-1.0717,-1.0717,-1.0717,-1.0725,-1.0875,-1.1158,-1.1321,-1.1619,-1.1619,-1.1619,-1.1619,-1.2466,-1.3452,-1.4574,-1.6705,-1.853,-2.0201,-2.2112,-2.2939,-2.2859,-2.2859,-2.2859,-2.2859,-2.2859,-2.2859,-2.2859,-2.2859,-2.2859,-2.2859,-2.2859,-2.2859,-2.2859,-2.2859,-2.2859,-2.2859,-2.2859,-2.2859,-2.2832,-2.2848,-2.2017,-2.1123,-2.112,-2.1062,-2.1109,-2.1109,-2.1109,-2.1109,-2.1109,-2.1109,-2.1109,-2.1109,-2.1109,-2.1056,-2.1047,-2.108,0.0,-2.3095,-2.7855,-3.0199,-2.8492,-2.9279,-3.0098,-3.0547,0.0,0.0,-3.1484,-3.2494,-3.2612,-3.1484,-3.2215,-3.3305,-3.4673,-3.7551,-3.9034,-3.9288,-3.7604,-3.6417,-3.5581,-3.486,-3.4487,-3.4487,-3.4487,-3.4133,-3.3418,-3.3418,-3.3418,-3.3418,-3.3418,-3.3418,-3.3418,-3.3418,-3.3418,-3.3418,0.0,0.0,0.0,0.0,0.0,-0.2613,-1.0372,-1.1529,-1.164,-1.1619,-1.1599,-1.1626,-1.1621,-1.1,-1.0736,-1.0744,-1.0717,-1.0717,-1.0717,-1.0717,-1.0717,-1.0717,-1.0717,-1.0717,-1.0717,-1.0744,-1.0745,-1.0731,-1.104,-1.1341,-1.1619,-1.1619,-1.1763,-1.2043,-1.3729,-1.4716,-1.5416,-1.8787,-2.0201,-2.0617,-2.2297,-2.2859,-2.2859,-2.2859,-2.2859,-2.2859,-2.2859,-2.2859,-2.2859,-2.2859,-2.2859,-2.2859,-2.2859,-2.2859,-2.2859,-2.2859,-2.2859,-2.2859,-2.2859,-2.2859,-2.2942,-2.2943,-2.2191,-2.1319,-2.1175,-2.1041,-2.1109,-2.1109,-2.1109,-2.1109,-2.1109,-2.1109,-2.1149,-2.1142,-2.1089,-2.1062,-2.1142,0.0,-2.25,-2.6311,-2.9149,-3.0781,-3.0351,-2.998,-2.9922,-3.0273,-3.0293,-3.0625,0.0,-3.1836,-3.209,-3.2168,-3.2763,-3.401,-3.6046,-3.929,-4.0751,-4.0592,-3.8935,-3.8223,-3.8104,-3.6295,-3.556,-3.5806,-3.556,-3.486,-3.3776,-3.3544,-3.3544,-3.3776,-3.3544,-3.3418,-3.3418,-3.3418,-3.3418,-3.3418,0.0,0.0,0.0,0.0,0.0,-0.261,-1.0372,-1.166,-1.1619,-1.1619,-1.1653,-1.165,-1.1607,-1.1056,-1.0637,-1.0738,-1.0717,-1.0717,-1.0717,-1.0717,-1.0717,-1.0717,-1.0717,-1.0717,-1.0717,-1.0712,-1.0717,-1.0731,-1.1147,-1.1443,-1.1619,-1.1619,-1.2466,-1.4014,-1.429,-1.6263,-1.9206,-1.9912,-2.1032,-2.2448,-2.2722,-2.2859,-2.2859,-2.2859,-2.2859,-2.2859,-2.2859,-2.2859,-2.2859,-2.2859,-2.2859,-2.2859,-2.2859,-2.2859,-2.2859,-2.2859,-2.2859,-2.2859,-2.2859,-2.2859,-2.2942,-2.2943,-2.2804,-2.2359,-2.1318,-2.1041,-2.1109,-2.1109,-2.1109,-2.1109,-2.1109,-2.1109,-2.1067,-2.1053,-2.1071,-2.1072,-2.1104,0.0,-2.3319,-2.941,-3.061,-3.0917,-3.082,-3.0723,-3.0703,-3.0781,-3.0781,-3.084,-3.0976,-3.1387,-3.1797,-3.2148,-3.2607,-3.4265,-3.7266,-4.0403,-4.1457,-4.0592,-3.8935,-3.8223,-3.8104,-3.5108,-3.4487,-3.5683,-3.4383,-3.4383,-3.5335,-3.4027,-3.4258,-3.5335,-3.3902,-3.3418,-3.3418,-3.3418,-3.3418,-3.3418,0.0,0.0,0.0,0.0,0.0,-0.2607,-1.0348,-1.1647,-1.1592,-1.1653,-1.1585,-1.1447,-1.1214,-1.0846,-1.0745,-1.0731,-1.0717,-1.0717,-1.0717,-1.0717,-1.0717,-1.0717,-1.0717,-1.0717,-1.0717,-1.0732,-1.0879,-1.1165,-1.1314,-1.147,-1.1619,-1.1619,-1.2602,-1.4432,-1.5416,-1.7529,-2.0201,-2.1183,-2.216,-2.2859,-2.2859,-2.2859,-2.2859,-2.2859,-2.2859,-2.2859,-2.2859,-2.2859,-2.2859,-2.2859,-2.2859,-2.2859,-2.2859,-2.2859,-2.2859,-2.2859,-2.2859,-2.2859,-2.2859,-2.2859,-2.2832,-2.2848,-2.2889,-2.259,-2.1398,-2.1109,-2.1155,-2.1136,-2.1109,-2.1109,-2.1109,-2.1109,-2.1142,-2.1123,-2.2762,0.0,-2.22,-2.1511,-2.2901,-2.7658,-2.9841,-3.0565,-2.9667,-3.0392,-3.0898,-3.0898,-3.0898,-3.0898,-3.0898,-3.1289,-3.1719,-3.2148,-3.445,-3.6687,-3.8781,-4.1384,-4.1903,-4.0592,-3.8935,-3.8698,-3.9405,-3.6173,-3.5581,-3.7023,-3.6295,-3.5458,-3.4487,-3.4612,-3.4612,-3.4363,-3.365,-3.3418,-3.3418,-3.3418,-3.3418,-3.3418,0.0,0.0,0.0,0.0,-0.145,-0.478,-1.0624,-1.1606,-1.1667,-1.155,-1.1475,-1.1199,-1.0697,-1.0644,-1.0712,-1.0731,-1.0717,-1.0717,-1.0717,-1.0717,-1.0717,-1.0717,-1.0717,-1.0717,-1.0717,-1.0766,-1.105,-1.1586,-1.1643,-1.1646,-1.1619,-1.1599,-1.2716,-1.469,-1.6365,-1.8487,-2.0894,-2.2297,-2.2859,-2.2859,-2.2859,-2.2859,-2.2859,-2.2859,-2.2859,-2.2859,-2.2859,-2.2859,-2.2859,-2.2859,-2.2859,-2.2859,-2.2859,-2.2859,-2.2859,-2.2859,-2.2859,-2.2859,-2.2859,-2.2859,-2.2859,-2.2859,-2.2944,-2.2646,-2.1753,-2.1359,-2.1109,-2.1049,-2.1162,-2.1049,-2.1122,-2.1109,-2.1102,-2.1098,0.0,-2.4879,-2.2744,-2.1672,-2.2544,-2.6677,-2.8672,-2.9615,-2.902,-3.0138,-3.0898,-3.0898,-3.0976,-3.1035,-3.1035,-3.1523,-3.2012,-3.2441,-3.5813,-3.8281,-3.9426,-4.1452,-4.2012,-4.1191,-3.9522,-3.9405,-4.0476,-3.7243,-3.6517,-3.7626,-3.7265,-3.5949,-3.4007,-3.486,-3.4736,-3.3902,-3.3544,-3.3418,-3.3418,-3.3418,-3.3418,-3.3418,0.0,0.0,0.0,0.0,-0.5949,-1.0919,-1.1509,-1.166,-1.155,-1.1537,-1.1151,-1.0697,-1.067,-1.0685,-1.0731,-1.0724,-1.0717,-1.0717,-1.0717,-1.0717,-1.0717,-1.0717,-1.0717,-1.0717,-1.0717,-1.0717,-1.1007,-1.1586,-1.1605,-1.1606,-1.1619,-1.1531,-1.2909,-1.5325,-1.6668,-1.922,-2.2722,-2.2859,-2.2859,-2.2859,-2.2859,-2.2859,-2.2859,-2.2859,-2.2859,-2.2859,-2.2859,-2.2859,-2.2859,-2.2859,-2.2859,-2.2859,-2.2859,-2.2859,-2.2859,-2.2859,-2.2859,-2.2859,-2.2859,-2.2859,-2.2859,-2.2859,-2.2944,-2.2941,-2.28,-2.1964,-2.1058,-2.1089,-2.1041,-2.1133,-2.1149,-2.1109,-2.1093,-2.1168,0.0,0.0,-2.1378,-2.1107,-2.3424,-2.9849,-2.8045,-2.7562,-3.0451,-3.0879,-3.0898,-3.0898,-3.125,-3.1465,-3.1465,-3.2246,-3.2891,-3.332,-3.5067,-3.676,-3.8275,-3.9989,-4.1444,-4.2849,-4.1191,-4.0476,-4.0476,-3.7243,-3.5806,-3.5928,-3.4383,-3.4487,-3.556,-3.4133,-3.4383,-3.5437,-3.4027,-3.3418,-3.3418,-3.3418,-3.3418,-3.3418,0.0,0.0,-0.1453,-0.6402,-0.9607,-1.1619,-1.1653,-1.1585,-1.1468,-1.1138,-1.0879,-1.0637,-1.0678,-1.0751,-1.0717,-1.0717,-1.0717,-1.0717,-1.0717,-1.0717,-1.0717,-1.0717,-1.0717,-1.0717,-1.0717,-1.073,-1.102,-1.1586,-1.1557,-1.1531,-1.1531,-1.1592,-1.3388,-1.6529,-1.7812,-2.0107,-2.2859,-2.2859,-2.2859,-2.2859,-2.2859,-2.2859,-2.2859,-2.2859,-2.2859,-2.2859,-2.2859,-2.2859,-2.2859,-2.2859,-2.2859,-2.2859,-2.2859,-2.2859,-2.2859,-2.2859,-2.2859,-2.2859,-2.2859,-2.2859,-2.2859,-2.2859,-2.2929,-2.2917,-2.2928,-2.1965,-2.128,-2.2052,-2.1619,-2.1102,-2.1122,-2.1109,-2.1129,-2.1058,0.0,-2.1571,-2.1228,-2.1056,-2.358,-3.0144,-2.9849,-2.9245,-2.9748,-3.0658,-3.1387,-3.166,-3.1836,-3.1914,-3.1914,-3.248,-3.2871,-3.3027,-3.3888,-3.5581,-3.8223,-3.9756,-4.0361,-3.9989,-3.9405,-3.8557,-3.7604,-3.5335,-3.486,-3.5806,-3.5211,-3.4612,-3.4383,-3.4736,-3.4612,-3.4258,-3.365,-3.3418,-3.3418,-3.3418,-3.3418,-3.3418,0.0,0.0,-0.247,-1.0221,-1.164,-1.1545,-1.1557,-1.1454,-1.1179,-1.0697,-1.0766,-1.0699,-1.0731,-1.0717,-1.0717,-1.0717,-1.0717,-1.0717,-1.0717,-1.0717,-1.0717,-1.0717,-1.0717,-1.0744,-1.0652,-1.075,-1.1027,-1.1614,-1.153,-1.279,-1.5124,-1.5158,-1.6539,-1.8988,-1.9854,-2.1283,-2.2859,-2.2859,-2.2859,-2.2859,-2.2859,-2.2859,-2.2859,-2.2859,-2.2859,-2.2859,-2.2859,-2.2859,-2.2859,-2.2859,-2.2859,-2.2859,-2.2859,-2.2859,-2.2859,-2.2859,-2.2859,-2.2859,-2.2859,-2.2859,-2.2859,-2.2859,-2.2859,-2.2902,-2.2835,-2.2205,-2.1859,-2.2216,-2.1673,-2.1102,-2.1102,-2.1036,-2.1036,-2.1093,-2.1102,-2.1075,-2.107,-2.1047,-2.3197,-2.8674,-3.0558,-3.0734,-2.9246,-3.0641,-3.1855,-3.2148,-3.2285,-3.2422,-3.2559,-3.2832,-3.2988,-3.2988,-3.3281,-3.4736,-3.7385,-3.9053,-3.9288,-3.8223,-3.8698,-3.7843,-3.5806,-3.4612,-3.4487,-3.5088,-3.5088,-3.4383,-3.3544,-3.4612,-3.4383,-3.3418,-3.3418,-3.3418,-3.3418,-3.3418,-3.3418,-3.3418,0.0,0.0,-0.247,-1.0221,-1.1552,-1.1564,-1.1537,-1.1138,-1.067,-1.067,-1.0678,-1.0717,-1.0717,-1.0717,-1.0717,-1.0717,-1.0717,-1.0717,-1.0717,-1.0717,-1.0717,-1.0717,-1.0717,-1.0658,-1.067,-1.0665,-1.1047,-1.1538,-1.1691,-1.5566,-2.2946,-2.2915,-2.2836,-2.2836,-2.2939,-2.2859,-2.2859,-2.2859,-2.2859,-2.2859,-2.2859,-2.2859,-2.2859,-2.2859,-2.2859,-2.2859,-2.2859,-2.2859,-2.2859,-2.2859,-2.2859,-2.2859,-2.2859,-2.2859,-2.2859,-2.2859,-2.2859,-2.2859,-2.2859,-2.2859,-2.2859,-2.2859,-2.2859,-2.2862,-2.2882,-2.2818,-2.2552,-2.1371,-2.1109,-2.1109,-2.1109,-2.1155,-2.1109,-2.1109,-2.1109,-2.1075,-2.107,-2.1069,-2.2381,-2.5533,-2.9668,-3.1367,-2.9319,-3.1028,-3.2168,-3.2187,-3.2559,-3.2988,-3.3398,-3.3418,-3.3418,-3.3418,-3.3418,-3.4133,-3.5806,-3.7385,-3.8223,-3.8223,-3.9756,-3.8912,-3.5806,-3.5806,-3.484,-3.3418,-3.3418,-3.3418,-3.3418,-3.3418,-3.3418,-3.3418,-3.3418,-3.3418,-3.3418,-3.3418,-3.3418,-3.3418,0.0,0.0,-0.0724,-0.3036,-0.8021,-1.1509,-1.0961,-1.0789,-1.0637,-1.0665,-1.0744,-1.0717,-1.0717,-1.0717,-1.0717,-1.0717,-1.0717,-1.0717,-1.0717,-1.0717,-1.0717,-1.0717,-1.0717,-1.0658,-1.067,-1.109,-1.1476,-1.1538,-1.6937,-2.0742,-2.2915,-2.2881,-2.2939,-2.2939,-2.2886,-2.2859,-2.2859,-2.2859,-2.2859,-2.2859,-2.2859,-2.2859,-2.2859,-2.2859,-2.2859,-2.2859,-2.2859,-2.2859,-2.2859,-2.2859,-2.2859,-2.2859,-2.2859,-2.2859,-2.2859,-2.2859,-2.2859,-2.2859,-2.2859,-2.2859,-2.2859,-2.2859,-2.2859,-2.2916,-2.2848,-2.2205,-2.1476,-2.1149,-2.1827,-2.2134,-2.1252,-2.1044,-2.1067,-2.1136,-2.1109,-2.1136,-2.1089,-2.1823,-2.2623,-2.316,-2.5707,-2.7655,-2.7908,-2.9708,-3.0914,-3.1191,-3.2497,-3.3281,-3.3418,-3.3418,-3.3418,-3.3418,-3.3418,-3.367,-3.4133,-3.5683,-3.6539,-3.6539,-3.7002,-3.6173,-3.4133,-3.4133,-3.3902,-3.3418,-3.3418,-3.3418,-3.3418,-3.3418,-3.3418,-3.3418,-3.3418,-3.3418,-3.3418,-3.3418,-3.3418,-3.3418,0.0,-0.2468,-0.4635,-0.4594,-0.8535,-1.1406,-1.0822,-1.0677,-1.0692,-1.0731,-1.0717,-1.0717,-1.0717,-1.0717,-1.0717,-1.0717,-1.0717,-1.0717,-1.0717,-1.0717,-1.0717,-1.0717,-1.0645,-1.0739,-1.075,-1.1283,-1.1657,-1.158,-1.9133,-2.2915,-2.2881,-2.2913,-2.2859,-2.2859,-2.2859,-2.2859,-2.2859,-2.2859,-2.2859,-2.2859,-2.2859,-2.2859,-2.2859,-2.2859,-2.2859,-2.2859,-2.2859,-2.2859,-2.2859,-2.2859,-2.2859,-2.2859,-2.2859,-2.2859,-2.2859,-2.2859,-2.2859,-2.2859,-2.2859,-2.2859,-2.2859,-2.2859,-2.2859,-2.2929,-2.2943,-2.1978,-2.1104,-2.1104,-2.2069,-2.2655,-2.2015,-2.141,-2.1083,-2.1044,-2.1067,-2.1041,-2.1146,-2.2194,-2.3335,-2.4276,-2.5288,-2.6568,-2.8503,-2.9042,-2.9749,-3.0753,-3.2365,-3.3418,-3.3418,-3.3418,-3.3418,-3.3418,-3.3418,-3.3418,-3.3418,-3.4383,-3.484,-3.486,-3.5437,-3.4964,-3.3418,-3.3418,-3.3418,-3.3418,-3.3418,-3.3418,-3.3418,-3.3418,-3.3418,-3.3418,-3.3418,-3.3418,-3.3418,-3.3418,-3.3418,-3.3418,0.0,-0.6257,-1.1653,-1.1605,-1.158,-1.1283,-1.0833,-1.0685,-1.0717,-1.0717,-1.0717,-1.0717,-1.0717,-1.0717,-1.0717,-1.0717,-1.0717,-1.0717,-1.0717,-1.0717,-1.0724,-1.0738,-1.0745,-1.075,-1.0744,-1.1365,-1.1867,-1.2662,-1.9518,-2.2895,-2.2859,-2.2859,-2.2859,-2.2859,-2.2859,-2.2859,-2.2859,-2.2859,-2.2859,-2.2859,-2.2859,-2.2859,-2.2859,-2.2859,-2.2859,-2.2859,-2.2859,-2.2859,-2.2859,-2.2859,-2.2859,-2.2859,-2.2832,-2.2969,-2.2969,-2.2969,-2.2969,-2.2832,-2.2859,-2.2859,-2.2859,-2.2859,-2.2846,-2.2902,-2.293,-2.211,-2.1213,-2.1213,-2.2205,-2.2869,-2.2835,-2.1991,-2.1254,-2.1056,-2.1176,-2.1241,-2.1214,-2.2454,-2.4481,-2.7425,-2.6771,-2.7034,-2.9485,-2.8748,-2.8952,-3.09,-3.2492,-3.3418,-3.3418,-3.3418,-3.3418,-3.3418,-3.3418,-3.3418,-3.3418,-3.3418,-3.3418,-3.3418,-3.486,-3.486,-3.3418,-3.3418,-3.3418,-3.3418,-3.3418,-3.3418,-3.3418,-3.3418,-3.3418,-3.3418,-3.3418,-3.3418,-3.3418,-3.3418,-3.3418,-3.3418,0.0,-0.6331,-1.1619,-1.1557,-1.1179,-1.0853,-1.0677,-1.0685,-1.0717,-1.0717,-1.0717,-1.0717,-1.0717,-1.0717,-1.0717,-1.0717,-1.0717,-1.0717,-1.0717,-1.0717,-1.0638,-1.0752,-1.0756,-1.0869,-1.1372,-1.1532,-1.4483,-2.0462,-2.2141,-2.2895,-2.2859,-2.2859,-2.2859,-2.2859,-2.2859,-2.2859,-2.2859,-2.2859,-2.2859,-2.2859,-2.2859,-2.2859,-2.2859,-2.2859,-2.2859,-2.2859,-2.2859,-2.2859,-2.2859,-2.2859,-2.2859,-2.2969,-2.289,-2.2971,-2.2971,-2.2971,-2.2971,-2.2876,-2.2942,-2.2859,-2.2859,-2.2859,-2.2848,-2.2943,-2.2889,-2.2727,-2.2566,-2.2566,-2.2673,-2.2941,-2.2875,-2.2633,-2.2178,-2.1266,-2.1924,-2.2504,-2.2572,-2.51,-2.6321,-2.4228,-2.3863,-2.3854,-2.4487,-2.6808,-2.9474,-3.2619,-3.3165,-3.3418,-3.3418,-3.3418,-3.3418,-3.3418,-3.3418,-3.3418,-3.3418,-3.3418,-3.3418,-3.3418,-3.3776,-3.3776,-3.3418,-3.3418,-3.3418,-3.3418,-3.3418,-3.3418,-3.3418,-3.3418,-3.3418,-3.3418,-3.3418,-3.3418,-3.3418,-3.3418,-3.3418,-3.3418,-0.4782,-0.8765,-1.1543,-1.1154,-1.0953,-1.065,-1.0712,-1.0638,-1.0717,-1.0717,-1.0717,-1.0717,-1.0717,-1.0717,-1.0717,-1.0717,-1.0717,-1.0717,-1.0717,-1.0717,-1.0652,-1.0664,-1.105,-1.1289,-1.1538,-1.5153,-1.8905,-2.2841,-2.2948,-2.2953,-2.2859,-2.2859,-2.2859,-2.2859,-2.2859,-2.2859,-2.2859,-2.2859,-2.2859,-2.2859,-2.2859,-2.2859,-2.2859,-2.2859,-2.2859,-2.2859,-2.2859,-2.2859,-2.2859,-2.2859,-2.2916,-2.2944,-2.293,-2.5172,-2.7938,-2.7948,-2.5591,-2.2957,-2.2969,-2.2902,-2.2957,-2.2957,-2.2849,-2.2916,-2.2903,-2.2836,-2.2916,-2.2903,-2.293,-2.293,-2.293,-2.2971,-2.2714,-2.2097,-2.2445,-2.2937,-2.2937,-2.4458,-2.5472,-2.4686,-2.3527,-2.2859,-2.2859,-2.6839,-2.9865,-3.0789,-3.2492,-3.3418,-3.3418,-3.3418,-3.3418,-3.3418,-3.3418,-3.3418,-3.3418,-3.3418,-3.3418,-3.3418,-3.3418,-3.3418,-3.3418,-3.3418,-3.3418,-3.3418,-3.3418,-3.3418,-3.3418,-3.3418,-3.3418,-3.3418,-3.3418,-3.3418,-3.3418,-3.3418,-3.3418,-3.3418,-1.0299,-1.1491,-1.1328,-1.0731,-1.0723,-1.0725,-1.0738,-1.0717,-1.0717,-1.0717,-1.0717,-1.0717,-1.0717,-1.0717,-1.0717,-1.0717,-1.0717,-1.0717,-1.0717,-1.0717,-1.0658,-1.0677,-1.1295,-1.2239,-1.3547,-1.9623,-2.2836,-2.2836,-2.2939,-2.2859,-2.2859,-2.2859,-2.2859,-2.2859,-2.2859,-2.2859,-2.2859,-2.2859,-2.2859,-2.2859,-2.2859,-2.2859,-2.2859,-2.2859,-2.2859,-2.2859,-2.2859,-2.3133,-2.3256,-2.2942,-2.289,-2.2848,-2.293,-2.6931,-3.1541,-3.1608,-2.7531,-2.2929,-2.2929,-2.2917,-2.3185,-2.4415,-2.4698,-2.4429,-2.3243,-2.2971,-2.2876,-2.2956,-2.2859,-2.2859,-2.2859,-2.2957,-2.2876,-2.2969,-2.2917,-2.2903,-2.2943,-2.2957,-2.3555,-2.5559,-2.4096,-2.2996,-2.3256,-2.7619,-2.9865,-2.8689,-3.1579,-3.3418,-3.3418,-3.3418,-3.3418,-3.3418,-3.3418,-3.3418,-3.3418,-3.3418,-3.3418,-3.3418,-3.3418,-3.3418,-3.3418,-3.3418,-3.3418,-3.3418,-3.3418,-3.3418,-3.3418,-3.3418,-3.3418,-3.3418,-3.3418,-3.3418,-3.3418,-3.3418,-3.3418,-3.3418,-1.1342,-1.1174,-1.0862,-1.0723,-1.0712,-1.0744,-1.0724,-1.0717,-1.0717,-1.0717,-1.0717,-1.0717,-1.0717,-1.0717,-1.0717,-1.0717,-1.0717,-1.0717,-1.0717,-1.0717,-1.0678,-1.0736,-1.1316,-1.4671,-2.1282,-2.2367,-2.2836,-2.2836,-2.2939,-2.2859,-2.2859,-2.2859,-2.2859,-2.2859,-2.2859,-2.2859,-2.2859,-2.2859,-2.2859,-2.2859,-2.2859,-2.2859,-2.2859,-2.2859,-2.2859,-2.2859,-2.2859,-2.3924,-2.4949,-2.3403,-2.29,-2.2946,-2.2855,-2.3587,-2.4363,-2.4386,-2.37,-2.293,-2.293,-2.2903,-2.4415,-3.039,-3.1969,-3.0397,-2.4295,-2.2832,-2.2956,-2.2859,-2.2859,-2.2859,-2.2859,-2.2832,-2.2956,-2.2859,-2.2917,-2.2957,-2.2916,-2.2917,-2.3011,-2.3338,-2.3119,-2.3529,-2.4979,-2.7238,-2.9083,-3.0384,-3.2237,-3.3418,-3.3418,-3.3418,-3.3418,-3.3418,-3.3418,-3.3418,-3.3418,-3.3418,-3.3418,-3.3418,-3.3418,-3.3418,-3.3418,-3.3418,-3.3418,-3.3418,-3.3418,-3.3418,-3.3418,-3.3418,-3.3418,-3.3418,-3.3418,-3.3418,-3.3418,-3.3418,-3.3418,-3.3418,-1.1133,-1.0922,-1.0743,-1.0684,-1.0685,-1.0717,-1.0717,-1.0717,-1.0717,-1.0717,-1.0717,-1.0717,-1.0717,-1.0717,-1.0717,-1.0717,-1.0717,-1.0704,-1.0656,-1.0656,-1.0744,-1.0684,-1.5297,-1.9504,-2.2823,-2.2895,-2.2842,-2.2842,-2.2899,-2.2859,-2.2859,-2.2859,-2.2859,-2.2859,-2.2859,-2.2859,-2.2859,-2.2859,-2.2859,-2.2859,-2.2859,-2.2859,-2.2859,-2.2859,-2.2859,-2.2996,-2.406,-2.4232,-2.4089,-2.4671,-2.3923,-2.2918,-2.2924,-2.2846,-2.2859,-2.2848,-2.2875,-2.2848,-2.2832,-2.5718,-2.9567,-3.267,-3.0408,-2.6713,-2.3593,-2.2902,-2.2859,-2.2859,-2.2859,-2.2859,-2.2859,-2.2875,-2.2971,-2.2846,-2.2917,-2.3593,-2.5633,-2.4144,-2.2875,-2.2846,-2.2859,-2.327,-2.3924,-2.5651,-2.737,-2.9213,-3.0918,-3.2365,-3.3292,-3.3418,-3.3418,-3.3418,-3.3418,-3.3418,-3.3418,-3.3418,-3.3418,-3.3418,-3.3418,-3.3418,-3.3418,-3.3418,-3.3418,-3.3418,-3.3418,-3.3418,-3.3418,-3.3418,-3.3418,-3.3418,-3.3418,-3.3418,-3.3418,-3.3418,-3.3418,-3.3418]}]]